<?xml version="1.0" encoding="UTF-8" standalone="no" ?>
<gpx xmlns="http://www.topografix.com/GPX/1/1" xmlns:xsi="http://www.w3.org/2001/XMLSchema-instance" xsi:schemaLocation="http://www.topografix.com/GPX/1/1 http://www.topografix.com/GPX/1/1/gpx.xsd" version="1.1" creator="VisuGPX - https://www.visugpx.com">
  <metadata>
    <name>Pic de BENTAILLOLE (Le CAMPAS) 11/03/2017</name>
    <desc><![CDATA[Belle randonnée en crête, sans difficulté technique, si ce n'est la distance.
16 km pour 1 000 m de D .]]></desc>
  </metadata>
  <trk>
    <name><![CDATA[11-MARS-17 17:43:40]]></name>
    <trkseg>
      <trkpt lat="42.72742" lon="1.96548">
        <ele>1690.14</ele>
        <time>2017-03-11T09:07:15Z</time>
      </trkpt>
      <trkpt lat="42.7274" lon="1.96546">
        <ele>1693.5</ele>
        <time>2017-03-11T09:10:06Z</time>
      </trkpt>
      <trkpt lat="42.72741" lon="1.96536">
        <ele>1693.02</ele>
        <time>2017-03-11T09:10:16Z</time>
      </trkpt>
      <trkpt lat="42.72743" lon="1.96547">
        <ele>1695.9</ele>
        <time>2017-03-11T09:10:47Z</time>
      </trkpt>
      <trkpt lat="42.72748" lon="1.96546">
        <ele>1696.86</ele>
        <time>2017-03-11T09:11:38Z</time>
      </trkpt>
      <trkpt lat="42.72751" lon="1.96548">
        <ele>1696.86</ele>
        <time>2017-03-11T09:12:25Z</time>
      </trkpt>
      <trkpt lat="42.72755" lon="1.96557">
        <ele>1697.34</ele>
        <time>2017-03-11T09:12:40Z</time>
      </trkpt>
      <trkpt lat="42.72763" lon="1.9657">
        <ele>1698.31</ele>
        <time>2017-03-11T09:12:59Z</time>
      </trkpt>
      <trkpt lat="42.72767" lon="1.9658">
        <ele>1699.75</ele>
        <time>2017-03-11T09:13:12Z</time>
      </trkpt>
      <trkpt lat="42.72769" lon="1.96594">
        <ele>1700.71</ele>
        <time>2017-03-11T09:13:29Z</time>
      </trkpt>
      <trkpt lat="42.72772" lon="1.96609">
        <ele>1701.67</ele>
        <time>2017-03-11T09:13:45Z</time>
      </trkpt>
      <trkpt lat="42.72779" lon="1.96622">
        <ele>1704.07</ele>
        <time>2017-03-11T09:14:04Z</time>
      </trkpt>
      <trkpt lat="42.72782" lon="1.96636">
        <ele>1705.52</ele>
        <time>2017-03-11T09:14:19Z</time>
      </trkpt>
      <trkpt lat="42.72788" lon="1.96649">
        <ele>1706.96</ele>
        <time>2017-03-11T09:14:36Z</time>
      </trkpt>
      <trkpt lat="42.72792" lon="1.96662">
        <ele>1708.4</ele>
        <time>2017-03-11T09:14:50Z</time>
      </trkpt>
      <trkpt lat="42.72796" lon="1.96673">
        <ele>1710.32</ele>
        <time>2017-03-11T09:15:06Z</time>
      </trkpt>
      <trkpt lat="42.728" lon="1.96686">
        <ele>1711.28</ele>
        <time>2017-03-11T09:15:22Z</time>
      </trkpt>
      <trkpt lat="42.72807" lon="1.96701">
        <ele>1713.21</ele>
        <time>2017-03-11T09:15:39Z</time>
      </trkpt>
      <trkpt lat="42.7281" lon="1.96716">
        <ele>1714.17</ele>
        <time>2017-03-11T09:16:06Z</time>
      </trkpt>
      <trkpt lat="42.72816" lon="1.96725">
        <ele>1715.61</ele>
        <time>2017-03-11T09:16:18Z</time>
      </trkpt>
      <trkpt lat="42.7282" lon="1.96737">
        <ele>1717.53</ele>
        <time>2017-03-11T09:16:31Z</time>
      </trkpt>
      <trkpt lat="42.72823" lon="1.96749">
        <ele>1719.46</ele>
        <time>2017-03-11T09:16:45Z</time>
      </trkpt>
      <trkpt lat="42.7283" lon="1.96762">
        <ele>1722.82</ele>
        <time>2017-03-11T09:17:03Z</time>
      </trkpt>
      <trkpt lat="42.72834" lon="1.96775">
        <ele>1725.22</ele>
        <time>2017-03-11T09:17:17Z</time>
      </trkpt>
      <trkpt lat="42.72838" lon="1.96787">
        <ele>1727.63</ele>
        <time>2017-03-11T09:17:31Z</time>
      </trkpt>
      <trkpt lat="42.72842" lon="1.96801">
        <ele>1729.55</ele>
        <time>2017-03-11T09:17:51Z</time>
      </trkpt>
      <trkpt lat="42.72847" lon="1.96813">
        <ele>1731.95</ele>
        <time>2017-03-11T09:18:03Z</time>
      </trkpt>
      <trkpt lat="42.72852" lon="1.96825">
        <ele>1732.91</ele>
        <time>2017-03-11T09:18:15Z</time>
      </trkpt>
      <trkpt lat="42.72856" lon="1.96838">
        <ele>1734.36</ele>
        <time>2017-03-11T09:18:28Z</time>
      </trkpt>
      <trkpt lat="42.7286" lon="1.96851">
        <ele>1736.76</ele>
        <time>2017-03-11T09:18:43Z</time>
      </trkpt>
      <trkpt lat="42.72866" lon="1.96865">
        <ele>1739.16</ele>
        <time>2017-03-11T09:18:59Z</time>
      </trkpt>
      <trkpt lat="42.72871" lon="1.96877">
        <ele>1741.08</ele>
        <time>2017-03-11T09:19:13Z</time>
      </trkpt>
      <trkpt lat="42.72876" lon="1.96889">
        <ele>1743.01</ele>
        <time>2017-03-11T09:19:27Z</time>
      </trkpt>
      <trkpt lat="42.72881" lon="1.96901">
        <ele>1744.93</ele>
        <time>2017-03-11T09:19:41Z</time>
      </trkpt>
      <trkpt lat="42.72885" lon="1.96915">
        <ele>1746.85</ele>
        <time>2017-03-11T09:19:57Z</time>
      </trkpt>
      <trkpt lat="42.7289" lon="1.96926">
        <ele>1748.78</ele>
        <time>2017-03-11T09:20:10Z</time>
      </trkpt>
      <trkpt lat="42.72895" lon="1.96939">
        <ele>1750.22</ele>
        <time>2017-03-11T09:20:25Z</time>
      </trkpt>
      <trkpt lat="42.72902" lon="1.96951">
        <ele>1752.62</ele>
        <time>2017-03-11T09:20:40Z</time>
      </trkpt>
      <trkpt lat="42.72907" lon="1.96965">
        <ele>1755.02</ele>
        <time>2017-03-11T09:20:55Z</time>
      </trkpt>
      <trkpt lat="42.72913" lon="1.96977">
        <ele>1756.47</ele>
        <time>2017-03-11T09:21:10Z</time>
      </trkpt>
      <trkpt lat="42.7292" lon="1.9699">
        <ele>1758.39</ele>
        <time>2017-03-11T09:21:24Z</time>
      </trkpt>
      <trkpt lat="42.72925" lon="1.97005">
        <ele>1759.83</ele>
        <time>2017-03-11T09:21:39Z</time>
      </trkpt>
      <trkpt lat="42.72929" lon="1.97017">
        <ele>1761.75</ele>
        <time>2017-03-11T09:21:52Z</time>
      </trkpt>
      <trkpt lat="42.72934" lon="1.97029">
        <ele>1763.2</ele>
        <time>2017-03-11T09:22:05Z</time>
      </trkpt>
      <trkpt lat="42.72938" lon="1.97042">
        <ele>1764.16</ele>
        <time>2017-03-11T09:22:17Z</time>
      </trkpt>
      <trkpt lat="42.72944" lon="1.97055">
        <ele>1766.08</ele>
        <time>2017-03-11T09:22:30Z</time>
      </trkpt>
      <trkpt lat="42.72948" lon="1.97066">
        <ele>1766.56</ele>
        <time>2017-03-11T09:22:43Z</time>
      </trkpt>
      <trkpt lat="42.72951" lon="1.97078">
        <ele>1768.48</ele>
        <time>2017-03-11T09:22:56Z</time>
      </trkpt>
      <trkpt lat="42.72958" lon="1.97088">
        <ele>1769.44</ele>
        <time>2017-03-11T09:23:07Z</time>
      </trkpt>
      <trkpt lat="42.72962" lon="1.97101">
        <ele>1770.41</ele>
        <time>2017-03-11T09:23:18Z</time>
      </trkpt>
      <trkpt lat="42.72967" lon="1.97112">
        <ele>1771.37</ele>
        <time>2017-03-11T09:23:28Z</time>
      </trkpt>
      <trkpt lat="42.72971" lon="1.97124">
        <ele>1772.33</ele>
        <time>2017-03-11T09:23:38Z</time>
      </trkpt>
      <trkpt lat="42.72975" lon="1.97135">
        <ele>1773.77</ele>
        <time>2017-03-11T09:23:48Z</time>
      </trkpt>
      <trkpt lat="42.72982" lon="1.97144">
        <ele>1774.25</ele>
        <time>2017-03-11T09:23:57Z</time>
      </trkpt>
      <trkpt lat="42.72989" lon="1.97154">
        <ele>1774.25</ele>
        <time>2017-03-11T09:24:07Z</time>
      </trkpt>
      <trkpt lat="42.72993" lon="1.97166">
        <ele>1773.77</ele>
        <time>2017-03-11T09:24:16Z</time>
      </trkpt>
      <trkpt lat="42.72987" lon="1.97178">
        <ele>1774.73</ele>
        <time>2017-03-11T09:24:26Z</time>
      </trkpt>
      <trkpt lat="42.72983" lon="1.97191">
        <ele>1775.69</ele>
        <time>2017-03-11T09:24:36Z</time>
      </trkpt>
      <trkpt lat="42.72982" lon="1.97205">
        <ele>1777.13</ele>
        <time>2017-03-11T09:24:46Z</time>
      </trkpt>
      <trkpt lat="42.72983" lon="1.97218">
        <ele>1778.1</ele>
        <time>2017-03-11T09:24:56Z</time>
      </trkpt>
      <trkpt lat="42.72986" lon="1.9723">
        <ele>1779.54</ele>
        <time>2017-03-11T09:25:07Z</time>
      </trkpt>
      <trkpt lat="42.72987" lon="1.97242">
        <ele>1780.98</ele>
        <time>2017-03-11T09:25:17Z</time>
      </trkpt>
      <trkpt lat="42.7299" lon="1.97254">
        <ele>1782.42</ele>
        <time>2017-03-11T09:25:28Z</time>
      </trkpt>
      <trkpt lat="42.72991" lon="1.97267">
        <ele>1783.86</ele>
        <time>2017-03-11T09:25:39Z</time>
      </trkpt>
      <trkpt lat="42.72995" lon="1.97279">
        <ele>1785.31</ele>
        <time>2017-03-11T09:25:50Z</time>
      </trkpt>
      <trkpt lat="42.72998" lon="1.97291">
        <ele>1786.27</ele>
        <time>2017-03-11T09:26:01Z</time>
      </trkpt>
      <trkpt lat="42.73001" lon="1.97304">
        <ele>1787.71</ele>
        <time>2017-03-11T09:26:12Z</time>
      </trkpt>
      <trkpt lat="42.73004" lon="1.97316">
        <ele>1789.15</ele>
        <time>2017-03-11T09:26:23Z</time>
      </trkpt>
      <trkpt lat="42.73009" lon="1.97327">
        <ele>1790.59</ele>
        <time>2017-03-11T09:26:34Z</time>
      </trkpt>
      <trkpt lat="42.73012" lon="1.97339">
        <ele>1791.55</ele>
        <time>2017-03-11T09:26:45Z</time>
      </trkpt>
      <trkpt lat="42.73014" lon="1.97351">
        <ele>1792.52</ele>
        <time>2017-03-11T09:26:55Z</time>
      </trkpt>
      <trkpt lat="42.73019" lon="1.9736">
        <ele>1793</ele>
        <time>2017-03-11T09:27:12Z</time>
      </trkpt>
      <trkpt lat="42.73023" lon="1.97372">
        <ele>1793.48</ele>
        <time>2017-03-11T09:27:23Z</time>
      </trkpt>
      <trkpt lat="42.73029" lon="1.97383">
        <ele>1793.96</ele>
        <time>2017-03-11T09:27:33Z</time>
      </trkpt>
      <trkpt lat="42.73033" lon="1.97394">
        <ele>1794.92</ele>
        <time>2017-03-11T09:27:43Z</time>
      </trkpt>
      <trkpt lat="42.73033" lon="1.97409">
        <ele>1795.88</ele>
        <time>2017-03-11T09:27:53Z</time>
      </trkpt>
      <trkpt lat="42.73037" lon="1.9742">
        <ele>1797.32</ele>
        <time>2017-03-11T09:28:03Z</time>
      </trkpt>
      <trkpt lat="42.73038" lon="1.97434">
        <ele>1798.76</ele>
        <time>2017-03-11T09:28:13Z</time>
      </trkpt>
      <trkpt lat="42.7304" lon="1.97446">
        <ele>1799.24</ele>
        <time>2017-03-11T09:28:23Z</time>
      </trkpt>
      <trkpt lat="42.73045" lon="1.97457">
        <ele>1800.69</ele>
        <time>2017-03-11T09:28:33Z</time>
      </trkpt>
      <trkpt lat="42.73046" lon="1.9747">
        <ele>1800.69</ele>
        <time>2017-03-11T09:28:42Z</time>
      </trkpt>
      <trkpt lat="42.73046" lon="1.97484">
        <ele>1801.17</ele>
        <time>2017-03-11T09:28:51Z</time>
      </trkpt>
      <trkpt lat="42.73045" lon="1.97497">
        <ele>1802.13</ele>
        <time>2017-03-11T09:29:00Z</time>
      </trkpt>
      <trkpt lat="42.73043" lon="1.9751">
        <ele>1801.65</ele>
        <time>2017-03-11T09:29:09Z</time>
      </trkpt>
      <trkpt lat="42.73045" lon="1.97522">
        <ele>1802.61</ele>
        <time>2017-03-11T09:29:18Z</time>
      </trkpt>
      <trkpt lat="42.73044" lon="1.97536">
        <ele>1802.13</ele>
        <time>2017-03-11T09:29:27Z</time>
      </trkpt>
      <trkpt lat="42.73045" lon="1.97549">
        <ele>1802.61</ele>
        <time>2017-03-11T09:29:36Z</time>
      </trkpt>
      <trkpt lat="42.73046" lon="1.97561">
        <ele>1802.61</ele>
        <time>2017-03-11T09:29:45Z</time>
      </trkpt>
      <trkpt lat="42.73049" lon="1.97573">
        <ele>1803.57</ele>
        <time>2017-03-11T09:29:54Z</time>
      </trkpt>
      <trkpt lat="42.73052" lon="1.97585">
        <ele>1803.57</ele>
        <time>2017-03-11T09:30:03Z</time>
      </trkpt>
      <trkpt lat="42.73055" lon="1.97597">
        <ele>1803.57</ele>
        <time>2017-03-11T09:30:12Z</time>
      </trkpt>
      <trkpt lat="42.7306" lon="1.9761">
        <ele>1804.05</ele>
        <time>2017-03-11T09:30:21Z</time>
      </trkpt>
      <trkpt lat="42.73061" lon="1.97623">
        <ele>1803.09</ele>
        <time>2017-03-11T09:30:30Z</time>
      </trkpt>
      <trkpt lat="42.73063" lon="1.97635">
        <ele>1803.57</ele>
        <time>2017-03-11T09:30:38Z</time>
      </trkpt>
      <trkpt lat="42.73063" lon="1.97649">
        <ele>1803.57</ele>
        <time>2017-03-11T09:30:47Z</time>
      </trkpt>
      <trkpt lat="42.73066" lon="1.97661">
        <ele>1804.05</ele>
        <time>2017-03-11T09:30:56Z</time>
      </trkpt>
      <trkpt lat="42.73069" lon="1.97673">
        <ele>1805.01</ele>
        <time>2017-03-11T09:31:05Z</time>
      </trkpt>
      <trkpt lat="42.73072" lon="1.97686">
        <ele>1805.97</ele>
        <time>2017-03-11T09:31:14Z</time>
      </trkpt>
      <trkpt lat="42.73074" lon="1.97699">
        <ele>1805.97</ele>
        <time>2017-03-11T09:31:23Z</time>
      </trkpt>
      <trkpt lat="42.73076" lon="1.97712">
        <ele>1805.97</ele>
        <time>2017-03-11T09:31:32Z</time>
      </trkpt>
      <trkpt lat="42.7308" lon="1.97724">
        <ele>1806.94</ele>
        <time>2017-03-11T09:31:41Z</time>
      </trkpt>
      <trkpt lat="42.73082" lon="1.97736">
        <ele>1807.42</ele>
        <time>2017-03-11T09:31:50Z</time>
      </trkpt>
      <trkpt lat="42.73085" lon="1.97748">
        <ele>1808.38</ele>
        <time>2017-03-11T09:32:00Z</time>
      </trkpt>
      <trkpt lat="42.73089" lon="1.9776">
        <ele>1808.86</ele>
        <time>2017-03-11T09:32:09Z</time>
      </trkpt>
      <trkpt lat="42.73093" lon="1.97771">
        <ele>1810.3</ele>
        <time>2017-03-11T09:32:18Z</time>
      </trkpt>
      <trkpt lat="42.73097" lon="1.97783">
        <ele>1810.78</ele>
        <time>2017-03-11T09:32:28Z</time>
      </trkpt>
      <trkpt lat="42.73101" lon="1.97794">
        <ele>1810.78</ele>
        <time>2017-03-11T09:32:38Z</time>
      </trkpt>
      <trkpt lat="42.73105" lon="1.97806">
        <ele>1811.26</ele>
        <time>2017-03-11T09:32:47Z</time>
      </trkpt>
      <trkpt lat="42.73109" lon="1.97816">
        <ele>1812.22</ele>
        <time>2017-03-11T09:32:56Z</time>
      </trkpt>
      <trkpt lat="42.73114" lon="1.97828">
        <ele>1813.18</ele>
        <time>2017-03-11T09:33:06Z</time>
      </trkpt>
      <trkpt lat="42.73119" lon="1.97839">
        <ele>1813.66</ele>
        <time>2017-03-11T09:33:16Z</time>
      </trkpt>
      <trkpt lat="42.73123" lon="1.97851">
        <ele>1814.63</ele>
        <time>2017-03-11T09:33:26Z</time>
      </trkpt>
      <trkpt lat="42.73127" lon="1.97863">
        <ele>1815.11</ele>
        <time>2017-03-11T09:33:37Z</time>
      </trkpt>
      <trkpt lat="42.73132" lon="1.97875">
        <ele>1816.07</ele>
        <time>2017-03-11T09:33:47Z</time>
      </trkpt>
      <trkpt lat="42.73136" lon="1.97887">
        <ele>1817.03</ele>
        <time>2017-03-11T09:33:57Z</time>
      </trkpt>
      <trkpt lat="42.73138" lon="1.979">
        <ele>1818.95</ele>
        <time>2017-03-11T09:34:07Z</time>
      </trkpt>
      <trkpt lat="42.73139" lon="1.97913">
        <ele>1818.95</ele>
        <time>2017-03-11T09:34:18Z</time>
      </trkpt>
      <trkpt lat="42.73138" lon="1.97922">
        <ele>1820.87</ele>
        <time>2017-03-11T09:35:12Z</time>
      </trkpt>
      <trkpt lat="42.7314" lon="1.97931">
        <ele>1820.39</ele>
        <time>2017-03-11T09:36:33Z</time>
      </trkpt>
      <trkpt lat="42.73137" lon="1.97943">
        <ele>1822.32</ele>
        <time>2017-03-11T09:36:43Z</time>
      </trkpt>
      <trkpt lat="42.73136" lon="1.97957">
        <ele>1822.8</ele>
        <time>2017-03-11T09:36:54Z</time>
      </trkpt>
      <trkpt lat="42.73135" lon="1.97967">
        <ele>1823.28</ele>
        <time>2017-03-11T09:37:05Z</time>
      </trkpt>
      <trkpt lat="42.73133" lon="1.97979">
        <ele>1825.2</ele>
        <time>2017-03-11T09:37:17Z</time>
      </trkpt>
      <trkpt lat="42.73132" lon="1.97991">
        <ele>1827.6</ele>
        <time>2017-03-11T09:37:30Z</time>
      </trkpt>
      <trkpt lat="42.73133" lon="1.98004">
        <ele>1829.05</ele>
        <time>2017-03-11T09:37:44Z</time>
      </trkpt>
      <trkpt lat="42.73138" lon="1.98016">
        <ele>1830.01</ele>
        <time>2017-03-11T09:37:55Z</time>
      </trkpt>
      <trkpt lat="42.73142" lon="1.98027">
        <ele>1832.41</ele>
        <time>2017-03-11T09:38:07Z</time>
      </trkpt>
      <trkpt lat="42.73145" lon="1.98038">
        <ele>1833.37</ele>
        <time>2017-03-11T09:38:19Z</time>
      </trkpt>
      <trkpt lat="42.73149" lon="1.9805">
        <ele>1835.77</ele>
        <time>2017-03-11T09:38:32Z</time>
      </trkpt>
      <trkpt lat="42.73154" lon="1.98062">
        <ele>1837.7</ele>
        <time>2017-03-11T09:38:48Z</time>
      </trkpt>
      <trkpt lat="42.73153" lon="1.98074">
        <ele>1840.58</ele>
        <time>2017-03-11T09:39:02Z</time>
      </trkpt>
      <trkpt lat="42.73156" lon="1.98084">
        <ele>1842.5</ele>
        <time>2017-03-11T09:39:19Z</time>
      </trkpt>
      <trkpt lat="42.7316" lon="1.98096">
        <ele>1843.47</ele>
        <time>2017-03-11T09:39:31Z</time>
      </trkpt>
      <trkpt lat="42.73163" lon="1.98108">
        <ele>1844.91</ele>
        <time>2017-03-11T09:39:42Z</time>
      </trkpt>
      <trkpt lat="42.73166" lon="1.98119">
        <ele>1846.35</ele>
        <time>2017-03-11T09:39:53Z</time>
      </trkpt>
      <trkpt lat="42.7317" lon="1.98131">
        <ele>1847.79</ele>
        <time>2017-03-11T09:40:04Z</time>
      </trkpt>
      <trkpt lat="42.73175" lon="1.98141">
        <ele>1849.23</ele>
        <time>2017-03-11T09:40:15Z</time>
      </trkpt>
      <trkpt lat="42.7318" lon="1.98152">
        <ele>1851.16</ele>
        <time>2017-03-11T09:40:36Z</time>
      </trkpt>
      <trkpt lat="42.73186" lon="1.9816">
        <ele>1852.12</ele>
        <time>2017-03-11T09:40:58Z</time>
      </trkpt>
      <trkpt lat="42.73191" lon="1.9817">
        <ele>1853.56</ele>
        <time>2017-03-11T09:41:10Z</time>
      </trkpt>
      <trkpt lat="42.73196" lon="1.98182">
        <ele>1855.96</ele>
        <time>2017-03-11T09:41:22Z</time>
      </trkpt>
      <trkpt lat="42.73201" lon="1.98192">
        <ele>1859.33</ele>
        <time>2017-03-11T09:41:37Z</time>
      </trkpt>
      <trkpt lat="42.73207" lon="1.98202">
        <ele>1861.25</ele>
        <time>2017-03-11T09:41:51Z</time>
      </trkpt>
      <trkpt lat="42.73213" lon="1.98212">
        <ele>1863.17</ele>
        <time>2017-03-11T09:42:04Z</time>
      </trkpt>
      <trkpt lat="42.73217" lon="1.98225">
        <ele>1867.02</ele>
        <time>2017-03-11T09:42:25Z</time>
      </trkpt>
      <trkpt lat="42.73223" lon="1.98242">
        <ele>1870.38</ele>
        <time>2017-03-11T09:42:54Z</time>
      </trkpt>
      <trkpt lat="42.73225" lon="1.98251">
        <ele>1872.3</ele>
        <time>2017-03-11T09:43:06Z</time>
      </trkpt>
      <trkpt lat="42.73228" lon="1.98266">
        <ele>1876.63</ele>
        <time>2017-03-11T09:43:30Z</time>
      </trkpt>
      <trkpt lat="42.73233" lon="1.98281">
        <ele>1879.51</ele>
        <time>2017-03-11T09:43:46Z</time>
      </trkpt>
      <trkpt lat="42.73237" lon="1.98291">
        <ele>1882.4</ele>
        <time>2017-03-11T09:44:05Z</time>
      </trkpt>
      <trkpt lat="42.73241" lon="1.98301">
        <ele>1885.28</ele>
        <time>2017-03-11T09:44:20Z</time>
      </trkpt>
      <trkpt lat="42.73246" lon="1.9831">
        <ele>1888.17</ele>
        <time>2017-03-11T09:44:35Z</time>
      </trkpt>
      <trkpt lat="42.73251" lon="1.9832">
        <ele>1890.57</ele>
        <time>2017-03-11T09:44:53Z</time>
      </trkpt>
      <trkpt lat="42.73256" lon="1.9833">
        <ele>1892.49</ele>
        <time>2017-03-11T09:45:08Z</time>
      </trkpt>
      <trkpt lat="42.73261" lon="1.98338">
        <ele>1894.42</ele>
        <time>2017-03-11T09:45:25Z</time>
      </trkpt>
      <trkpt lat="42.73267" lon="1.98351">
        <ele>1896.82</ele>
        <time>2017-03-11T09:45:42Z</time>
      </trkpt>
      <trkpt lat="42.73279" lon="1.98364">
        <ele>1899.7</ele>
        <time>2017-03-11T09:46:02Z</time>
      </trkpt>
      <trkpt lat="42.73286" lon="1.98377">
        <ele>1901.63</ele>
        <time>2017-03-11T09:46:21Z</time>
      </trkpt>
      <trkpt lat="42.73296" lon="1.9839">
        <ele>1903.07</ele>
        <time>2017-03-11T09:46:37Z</time>
      </trkpt>
      <trkpt lat="42.73303" lon="1.98399">
        <ele>1904.51</ele>
        <time>2017-03-11T09:46:51Z</time>
      </trkpt>
      <trkpt lat="42.73309" lon="1.98414">
        <ele>1907.87</ele>
        <time>2017-03-11T09:47:10Z</time>
      </trkpt>
      <trkpt lat="42.73309" lon="1.98425">
        <ele>1909.32</ele>
        <time>2017-03-11T09:47:20Z</time>
      </trkpt>
      <trkpt lat="42.73313" lon="1.98437">
        <ele>1911.24</ele>
        <time>2017-03-11T09:47:35Z</time>
      </trkpt>
      <trkpt lat="42.73315" lon="1.9845">
        <ele>1914.12</ele>
        <time>2017-03-11T09:47:50Z</time>
      </trkpt>
      <trkpt lat="42.73314" lon="1.98463">
        <ele>1915.08</ele>
        <time>2017-03-11T09:48:01Z</time>
      </trkpt>
      <trkpt lat="42.73314" lon="1.98476">
        <ele>1916.04</ele>
        <time>2017-03-11T09:48:13Z</time>
      </trkpt>
      <trkpt lat="42.73312" lon="1.98488">
        <ele>1917.49</ele>
        <time>2017-03-11T09:48:24Z</time>
      </trkpt>
      <trkpt lat="42.7331" lon="1.98501">
        <ele>1918.93</ele>
        <time>2017-03-11T09:48:36Z</time>
      </trkpt>
      <trkpt lat="42.73308" lon="1.98512">
        <ele>1920.85</ele>
        <time>2017-03-11T09:48:49Z</time>
      </trkpt>
      <trkpt lat="42.73305" lon="1.98524">
        <ele>1921.81</ele>
        <time>2017-03-11T09:49:01Z</time>
      </trkpt>
      <trkpt lat="42.73307" lon="1.98533">
        <ele>1923.25</ele>
        <time>2017-03-11T09:49:13Z</time>
      </trkpt>
      <trkpt lat="42.73305" lon="1.98546">
        <ele>1925.66</ele>
        <time>2017-03-11T09:49:31Z</time>
      </trkpt>
      <trkpt lat="42.73304" lon="1.98558">
        <ele>1927.1</ele>
        <time>2017-03-11T09:49:43Z</time>
      </trkpt>
      <trkpt lat="42.73303" lon="1.98568">
        <ele>1929.02</ele>
        <time>2017-03-11T09:49:56Z</time>
      </trkpt>
      <trkpt lat="42.73303" lon="1.9858">
        <ele>1930.46</ele>
        <time>2017-03-11T09:50:08Z</time>
      </trkpt>
      <trkpt lat="42.73304" lon="1.98592">
        <ele>1932.39</ele>
        <time>2017-03-11T09:50:22Z</time>
      </trkpt>
      <trkpt lat="42.73302" lon="1.98605">
        <ele>1933.83</ele>
        <time>2017-03-11T09:50:37Z</time>
      </trkpt>
      <trkpt lat="42.733" lon="1.98618">
        <ele>1935.75</ele>
        <time>2017-03-11T09:50:50Z</time>
      </trkpt>
      <trkpt lat="42.73297" lon="1.98629">
        <ele>1936.71</ele>
        <time>2017-03-11T09:51:00Z</time>
      </trkpt>
      <trkpt lat="42.73297" lon="1.98638">
        <ele>1938.16</ele>
        <time>2017-03-11T09:51:10Z</time>
      </trkpt>
      <trkpt lat="42.73292" lon="1.9865">
        <ele>1938.16</ele>
        <time>2017-03-11T09:51:26Z</time>
      </trkpt>
      <trkpt lat="42.73289" lon="1.98663">
        <ele>1940.56</ele>
        <time>2017-03-11T09:51:43Z</time>
      </trkpt>
      <trkpt lat="42.73287" lon="1.98675">
        <ele>1942</ele>
        <time>2017-03-11T09:51:55Z</time>
      </trkpt>
      <trkpt lat="42.73285" lon="1.98686">
        <ele>1943.44</ele>
        <time>2017-03-11T09:52:08Z</time>
      </trkpt>
      <trkpt lat="42.73282" lon="1.98697">
        <ele>1944.4</ele>
        <time>2017-03-11T09:52:20Z</time>
      </trkpt>
      <trkpt lat="42.73278" lon="1.98709">
        <ele>1946.33</ele>
        <time>2017-03-11T09:52:34Z</time>
      </trkpt>
      <trkpt lat="42.73274" lon="1.9872">
        <ele>1947.29</ele>
        <time>2017-03-11T09:52:45Z</time>
      </trkpt>
      <trkpt lat="42.7327" lon="1.98732">
        <ele>1949.21</ele>
        <time>2017-03-11T09:52:58Z</time>
      </trkpt>
      <trkpt lat="42.73265" lon="1.98744">
        <ele>1950.65</ele>
        <time>2017-03-11T09:53:12Z</time>
      </trkpt>
      <trkpt lat="42.73262" lon="1.98756">
        <ele>1952.57</ele>
        <time>2017-03-11T09:53:25Z</time>
      </trkpt>
      <trkpt lat="42.73258" lon="1.98767">
        <ele>1954.5</ele>
        <time>2017-03-11T09:53:40Z</time>
      </trkpt>
      <trkpt lat="42.73252" lon="1.98777">
        <ele>1955.94</ele>
        <time>2017-03-11T09:53:54Z</time>
      </trkpt>
      <trkpt lat="42.73248" lon="1.98788">
        <ele>1957.38</ele>
        <time>2017-03-11T09:54:06Z</time>
      </trkpt>
      <trkpt lat="42.73244" lon="1.98798">
        <ele>1959.3</ele>
        <time>2017-03-11T09:54:17Z</time>
      </trkpt>
      <trkpt lat="42.73239" lon="1.98808">
        <ele>1961.23</ele>
        <time>2017-03-11T09:54:30Z</time>
      </trkpt>
      <trkpt lat="42.73234" lon="1.9882">
        <ele>1962.19</ele>
        <time>2017-03-11T09:54:44Z</time>
      </trkpt>
      <trkpt lat="42.73229" lon="1.98831">
        <ele>1964.11</ele>
        <time>2017-03-11T09:54:55Z</time>
      </trkpt>
      <trkpt lat="42.73226" lon="1.98841">
        <ele>1965.55</ele>
        <time>2017-03-11T09:55:09Z</time>
      </trkpt>
      <trkpt lat="42.73219" lon="1.98853">
        <ele>1966.99</ele>
        <time>2017-03-11T09:55:21Z</time>
      </trkpt>
      <trkpt lat="42.73217" lon="1.98864">
        <ele>1967.96</ele>
        <time>2017-03-11T09:55:32Z</time>
      </trkpt>
      <trkpt lat="42.73212" lon="1.98874">
        <ele>1969.4</ele>
        <time>2017-03-11T09:55:44Z</time>
      </trkpt>
      <trkpt lat="42.73208" lon="1.98886">
        <ele>1970.36</ele>
        <time>2017-03-11T09:55:57Z</time>
      </trkpt>
      <trkpt lat="42.73207" lon="1.98898">
        <ele>1971.8</ele>
        <time>2017-03-11T09:56:09Z</time>
      </trkpt>
      <trkpt lat="42.73209" lon="1.9891">
        <ele>1972.76</ele>
        <time>2017-03-11T09:56:21Z</time>
      </trkpt>
      <trkpt lat="42.7321" lon="1.98922">
        <ele>1973.72</ele>
        <time>2017-03-11T09:56:33Z</time>
      </trkpt>
      <trkpt lat="42.73212" lon="1.98935">
        <ele>1974.69</ele>
        <time>2017-03-11T09:56:45Z</time>
      </trkpt>
      <trkpt lat="42.73213" lon="1.98947">
        <ele>1975.65</ele>
        <time>2017-03-11T09:56:58Z</time>
      </trkpt>
      <trkpt lat="42.7321" lon="1.9896">
        <ele>1977.09</ele>
        <time>2017-03-11T09:57:11Z</time>
      </trkpt>
      <trkpt lat="42.73209" lon="1.98972">
        <ele>1978.53</ele>
        <time>2017-03-11T09:57:23Z</time>
      </trkpt>
      <trkpt lat="42.73215" lon="1.98979">
        <ele>1978.53</ele>
        <time>2017-03-11T09:57:47Z</time>
      </trkpt>
      <trkpt lat="42.73222" lon="1.98987">
        <ele>1979.97</ele>
        <time>2017-03-11T09:57:59Z</time>
      </trkpt>
      <trkpt lat="42.73227" lon="1.98997">
        <ele>1980.45</ele>
        <time>2017-03-11T09:58:11Z</time>
      </trkpt>
      <trkpt lat="42.73232" lon="1.99007">
        <ele>1981.41</ele>
        <time>2017-03-11T09:58:24Z</time>
      </trkpt>
      <trkpt lat="42.73231" lon="1.99019">
        <ele>1982.86</ele>
        <time>2017-03-11T09:58:38Z</time>
      </trkpt>
      <trkpt lat="42.73234" lon="1.99021">
        <ele>1984.78</ele>
        <time>2017-03-11T10:01:14Z</time>
      </trkpt>
      <trkpt lat="42.73226" lon="1.99027">
        <ele>1983.82</ele>
        <time>2017-03-11T10:01:30Z</time>
      </trkpt>
      <trkpt lat="42.7323" lon="1.99038">
        <ele>1984.78</ele>
        <time>2017-03-11T10:01:41Z</time>
      </trkpt>
      <trkpt lat="42.73235" lon="1.99047">
        <ele>1985.74</ele>
        <time>2017-03-11T10:01:52Z</time>
      </trkpt>
      <trkpt lat="42.73243" lon="1.99057">
        <ele>1986.7</ele>
        <time>2017-03-11T10:02:04Z</time>
      </trkpt>
      <trkpt lat="42.7325" lon="1.99067">
        <ele>1987.66</ele>
        <time>2017-03-11T10:02:16Z</time>
      </trkpt>
      <trkpt lat="42.73256" lon="1.99075">
        <ele>1988.62</ele>
        <time>2017-03-11T10:02:29Z</time>
      </trkpt>
      <trkpt lat="42.73255" lon="1.99086">
        <ele>1990.07</ele>
        <time>2017-03-11T10:02:40Z</time>
      </trkpt>
      <trkpt lat="42.73256" lon="1.99098">
        <ele>1991.51</ele>
        <time>2017-03-11T10:02:52Z</time>
      </trkpt>
      <trkpt lat="42.73252" lon="1.99108">
        <ele>1992.47</ele>
        <time>2017-03-11T10:03:03Z</time>
      </trkpt>
      <trkpt lat="42.73249" lon="1.9912">
        <ele>1993.91</ele>
        <time>2017-03-11T10:03:14Z</time>
      </trkpt>
      <trkpt lat="42.73248" lon="1.99132">
        <ele>1994.87</ele>
        <time>2017-03-11T10:03:25Z</time>
      </trkpt>
      <trkpt lat="42.73247" lon="1.99144">
        <ele>1996.32</ele>
        <time>2017-03-11T10:03:38Z</time>
      </trkpt>
      <trkpt lat="42.73246" lon="1.99155">
        <ele>1997.76</ele>
        <time>2017-03-11T10:03:50Z</time>
      </trkpt>
      <trkpt lat="42.73248" lon="1.99168">
        <ele>1998.72</ele>
        <time>2017-03-11T10:04:02Z</time>
      </trkpt>
      <trkpt lat="42.73251" lon="1.9918">
        <ele>1999.68</ele>
        <time>2017-03-11T10:04:14Z</time>
      </trkpt>
      <trkpt lat="42.73256" lon="1.99192">
        <ele>2000.16</ele>
        <time>2017-03-11T10:04:26Z</time>
      </trkpt>
      <trkpt lat="42.73263" lon="1.99201">
        <ele>2001.6</ele>
        <time>2017-03-11T10:04:37Z</time>
      </trkpt>
      <trkpt lat="42.73271" lon="1.99208">
        <ele>2002.08</ele>
        <time>2017-03-11T10:04:49Z</time>
      </trkpt>
      <trkpt lat="42.7328" lon="1.99214">
        <ele>2002.56</ele>
        <time>2017-03-11T10:05:00Z</time>
      </trkpt>
      <trkpt lat="42.7329" lon="1.99218">
        <ele>2002.08</ele>
        <time>2017-03-11T10:05:10Z</time>
      </trkpt>
      <trkpt lat="42.73297" lon="1.99224">
        <ele>2003.52</ele>
        <time>2017-03-11T10:05:23Z</time>
      </trkpt>
      <trkpt lat="42.73305" lon="1.99229">
        <ele>2004.01</ele>
        <time>2017-03-11T10:05:34Z</time>
      </trkpt>
      <trkpt lat="42.73314" lon="1.99234">
        <ele>2004.49</ele>
        <time>2017-03-11T10:05:46Z</time>
      </trkpt>
      <trkpt lat="42.73322" lon="1.9924">
        <ele>2005.93</ele>
        <time>2017-03-11T10:05:57Z</time>
      </trkpt>
      <trkpt lat="42.73331" lon="1.99246">
        <ele>2006.89</ele>
        <time>2017-03-11T10:06:08Z</time>
      </trkpt>
      <trkpt lat="42.73339" lon="1.99253">
        <ele>2006.89</ele>
        <time>2017-03-11T10:06:19Z</time>
      </trkpt>
      <trkpt lat="42.73346" lon="1.99258">
        <ele>2007.85</ele>
        <time>2017-03-11T10:06:30Z</time>
      </trkpt>
      <trkpt lat="42.73355" lon="1.99264">
        <ele>2007.85</ele>
        <time>2017-03-11T10:06:41Z</time>
      </trkpt>
      <trkpt lat="42.73354" lon="1.99272">
        <ele>2008.33</ele>
        <time>2017-03-11T10:06:54Z</time>
      </trkpt>
      <trkpt lat="42.73352" lon="1.9928">
        <ele>2007.85</ele>
        <time>2017-03-11T10:07:19Z</time>
      </trkpt>
      <trkpt lat="42.73353" lon="1.99292">
        <ele>2007.85</ele>
        <time>2017-03-11T10:07:30Z</time>
      </trkpt>
      <trkpt lat="42.7336" lon="1.993">
        <ele>2008.81</ele>
        <time>2017-03-11T10:07:42Z</time>
      </trkpt>
      <trkpt lat="42.73367" lon="1.99305">
        <ele>2007.37</ele>
        <time>2017-03-11T10:07:58Z</time>
      </trkpt>
      <trkpt lat="42.73375" lon="1.99309">
        <ele>2006.89</ele>
        <time>2017-03-11T10:08:09Z</time>
      </trkpt>
      <trkpt lat="42.73383" lon="1.99316">
        <ele>2005.93</ele>
        <time>2017-03-11T10:08:20Z</time>
      </trkpt>
      <trkpt lat="42.73391" lon="1.99324">
        <ele>2004.97</ele>
        <time>2017-03-11T10:08:31Z</time>
      </trkpt>
      <trkpt lat="42.73397" lon="1.99333">
        <ele>2004.49</ele>
        <time>2017-03-11T10:08:41Z</time>
      </trkpt>
      <trkpt lat="42.73407" lon="1.99336">
        <ele>2004.97</ele>
        <time>2017-03-11T10:08:50Z</time>
      </trkpt>
      <trkpt lat="42.73415" lon="1.99342">
        <ele>2004.97</ele>
        <time>2017-03-11T10:09:00Z</time>
      </trkpt>
      <trkpt lat="42.73424" lon="1.99347">
        <ele>2004.01</ele>
        <time>2017-03-11T10:09:10Z</time>
      </trkpt>
      <trkpt lat="42.73433" lon="1.99351">
        <ele>2003.52</ele>
        <time>2017-03-11T10:09:20Z</time>
      </trkpt>
      <trkpt lat="42.73442" lon="1.99354">
        <ele>2004.49</ele>
        <time>2017-03-11T10:09:30Z</time>
      </trkpt>
      <trkpt lat="42.73451" lon="1.99354">
        <ele>2004.97</ele>
        <time>2017-03-11T10:09:41Z</time>
      </trkpt>
      <trkpt lat="42.7346" lon="1.99357">
        <ele>2004.01</ele>
        <time>2017-03-11T10:09:50Z</time>
      </trkpt>
      <trkpt lat="42.73469" lon="1.99361">
        <ele>2003.52</ele>
        <time>2017-03-11T10:10:00Z</time>
      </trkpt>
      <trkpt lat="42.73479" lon="1.99365">
        <ele>2002.08</ele>
        <time>2017-03-11T10:10:09Z</time>
      </trkpt>
      <trkpt lat="42.73488" lon="1.99369">
        <ele>2001.12</ele>
        <time>2017-03-11T10:10:18Z</time>
      </trkpt>
      <trkpt lat="42.73497" lon="1.99372">
        <ele>2000.64</ele>
        <time>2017-03-11T10:10:28Z</time>
      </trkpt>
      <trkpt lat="42.73503" lon="1.99381">
        <ele>1999.68</ele>
        <time>2017-03-11T10:10:38Z</time>
      </trkpt>
      <trkpt lat="42.73507" lon="1.99392">
        <ele>1998.72</ele>
        <time>2017-03-11T10:10:51Z</time>
      </trkpt>
      <trkpt lat="42.73508" lon="1.99404">
        <ele>1996.32</ele>
        <time>2017-03-11T10:11:05Z</time>
      </trkpt>
      <trkpt lat="42.73509" lon="1.99416">
        <ele>1994.87</ele>
        <time>2017-03-11T10:11:17Z</time>
      </trkpt>
      <trkpt lat="42.73511" lon="1.99429">
        <ele>1992.95</ele>
        <time>2017-03-11T10:11:28Z</time>
      </trkpt>
      <trkpt lat="42.73513" lon="1.99442">
        <ele>1991.51</ele>
        <time>2017-03-11T10:11:37Z</time>
      </trkpt>
      <trkpt lat="42.73516" lon="1.99454">
        <ele>1989.59</ele>
        <time>2017-03-11T10:11:46Z</time>
      </trkpt>
      <trkpt lat="42.73515" lon="1.99466">
        <ele>1988.62</ele>
        <time>2017-03-11T10:11:54Z</time>
      </trkpt>
      <trkpt lat="42.7352" lon="1.99478">
        <ele>1987.66</ele>
        <time>2017-03-11T10:12:02Z</time>
      </trkpt>
      <trkpt lat="42.73523" lon="1.99489">
        <ele>1987.18</ele>
        <time>2017-03-11T10:12:10Z</time>
      </trkpt>
      <trkpt lat="42.73526" lon="1.995">
        <ele>1986.7</ele>
        <time>2017-03-11T10:12:18Z</time>
      </trkpt>
      <trkpt lat="42.73529" lon="1.99512">
        <ele>1986.7</ele>
        <time>2017-03-11T10:12:26Z</time>
      </trkpt>
      <trkpt lat="42.73532" lon="1.99525">
        <ele>1986.22</ele>
        <time>2017-03-11T10:12:34Z</time>
      </trkpt>
      <trkpt lat="42.73536" lon="1.99536">
        <ele>1985.26</ele>
        <time>2017-03-11T10:12:42Z</time>
      </trkpt>
      <trkpt lat="42.7354" lon="1.99549">
        <ele>1985.74</ele>
        <time>2017-03-11T10:12:51Z</time>
      </trkpt>
      <trkpt lat="42.73544" lon="1.99561">
        <ele>1985.26</ele>
        <time>2017-03-11T10:13:00Z</time>
      </trkpt>
      <trkpt lat="42.73546" lon="1.99573">
        <ele>1985.26</ele>
        <time>2017-03-11T10:13:09Z</time>
      </trkpt>
      <trkpt lat="42.73549" lon="1.99585">
        <ele>1985.26</ele>
        <time>2017-03-11T10:13:19Z</time>
      </trkpt>
      <trkpt lat="42.73551" lon="1.99597">
        <ele>1985.74</ele>
        <time>2017-03-11T10:13:28Z</time>
      </trkpt>
      <trkpt lat="42.73552" lon="1.99609">
        <ele>1986.22</ele>
        <time>2017-03-11T10:13:37Z</time>
      </trkpt>
      <trkpt lat="42.73553" lon="1.99622">
        <ele>1986.7</ele>
        <time>2017-03-11T10:13:46Z</time>
      </trkpt>
      <trkpt lat="42.73558" lon="1.99633">
        <ele>1988.14</ele>
        <time>2017-03-11T10:13:56Z</time>
      </trkpt>
      <trkpt lat="42.73559" lon="1.99646">
        <ele>1989.1</ele>
        <time>2017-03-11T10:14:07Z</time>
      </trkpt>
      <trkpt lat="42.73564" lon="1.99657">
        <ele>1991.03</ele>
        <time>2017-03-11T10:14:18Z</time>
      </trkpt>
      <trkpt lat="42.73567" lon="1.9967">
        <ele>1991.99</ele>
        <time>2017-03-11T10:14:28Z</time>
      </trkpt>
      <trkpt lat="42.73568" lon="1.99683">
        <ele>1992.47</ele>
        <time>2017-03-11T10:14:38Z</time>
      </trkpt>
      <trkpt lat="42.73569" lon="1.99696">
        <ele>1992.95</ele>
        <time>2017-03-11T10:14:48Z</time>
      </trkpt>
      <trkpt lat="42.73571" lon="1.99709">
        <ele>1994.39</ele>
        <time>2017-03-11T10:14:58Z</time>
      </trkpt>
      <trkpt lat="42.73572" lon="1.99721">
        <ele>1994.87</ele>
        <time>2017-03-11T10:15:08Z</time>
      </trkpt>
      <trkpt lat="42.73576" lon="1.99733">
        <ele>1994.87</ele>
        <time>2017-03-11T10:15:18Z</time>
      </trkpt>
      <trkpt lat="42.73581" lon="1.99744">
        <ele>1994.87</ele>
        <time>2017-03-11T10:15:27Z</time>
      </trkpt>
      <trkpt lat="42.73583" lon="1.99756">
        <ele>1994.39</ele>
        <time>2017-03-11T10:15:36Z</time>
      </trkpt>
      <trkpt lat="42.73586" lon="1.99767">
        <ele>1994.87</ele>
        <time>2017-03-11T10:15:48Z</time>
      </trkpt>
      <trkpt lat="42.73587" lon="1.99781">
        <ele>1994.39</ele>
        <time>2017-03-11T10:16:00Z</time>
      </trkpt>
      <trkpt lat="42.73586" lon="1.99794">
        <ele>1994.39</ele>
        <time>2017-03-11T10:16:11Z</time>
      </trkpt>
      <trkpt lat="42.73583" lon="1.99807">
        <ele>1993.91</ele>
        <time>2017-03-11T10:16:22Z</time>
      </trkpt>
      <trkpt lat="42.73582" lon="1.99819">
        <ele>1992.47</ele>
        <time>2017-03-11T10:16:34Z</time>
      </trkpt>
      <trkpt lat="42.73582" lon="1.99832">
        <ele>1991.51</ele>
        <time>2017-03-11T10:16:47Z</time>
      </trkpt>
      <trkpt lat="42.73584" lon="1.99846">
        <ele>1989.1</ele>
        <time>2017-03-11T10:16:59Z</time>
      </trkpt>
      <trkpt lat="42.73586" lon="1.99858">
        <ele>1986.7</ele>
        <time>2017-03-11T10:17:10Z</time>
      </trkpt>
      <trkpt lat="42.73587" lon="1.9987">
        <ele>1985.26</ele>
        <time>2017-03-11T10:17:20Z</time>
      </trkpt>
      <trkpt lat="42.73588" lon="1.99882">
        <ele>1982.86</ele>
        <time>2017-03-11T10:17:30Z</time>
      </trkpt>
      <trkpt lat="42.7359" lon="1.99893">
        <ele>1981.9</ele>
        <time>2017-03-11T10:17:40Z</time>
      </trkpt>
      <trkpt lat="42.73592" lon="1.99906">
        <ele>1979.49</ele>
        <time>2017-03-11T10:17:52Z</time>
      </trkpt>
      <trkpt lat="42.73594" lon="1.99919">
        <ele>1977.09</ele>
        <time>2017-03-11T10:18:04Z</time>
      </trkpt>
      <trkpt lat="42.73599" lon="1.99926">
        <ele>1976.13</ele>
        <time>2017-03-11T10:18:21Z</time>
      </trkpt>
      <trkpt lat="42.73601" lon="1.99932">
        <ele>1974.2</ele>
        <time>2017-03-11T10:18:36Z</time>
      </trkpt>
      <trkpt lat="42.73598" lon="1.99939">
        <ele>1972.28</ele>
        <time>2017-03-11T10:18:51Z</time>
      </trkpt>
      <trkpt lat="42.73598" lon="1.99953">
        <ele>1968.92</ele>
        <time>2017-03-11T10:19:02Z</time>
      </trkpt>
      <trkpt lat="42.73599" lon="1.99966">
        <ele>1966.03</ele>
        <time>2017-03-11T10:19:12Z</time>
      </trkpt>
      <trkpt lat="42.736" lon="1.99978">
        <ele>1964.59</ele>
        <time>2017-03-11T10:19:22Z</time>
      </trkpt>
      <trkpt lat="42.73598" lon="1.99989">
        <ele>1962.19</ele>
        <time>2017-03-11T10:19:34Z</time>
      </trkpt>
      <trkpt lat="42.73598" lon="2.00001">
        <ele>1961.23</ele>
        <time>2017-03-11T10:19:47Z</time>
      </trkpt>
      <trkpt lat="42.73595" lon="2.00012">
        <ele>1959.78</ele>
        <time>2017-03-11T10:20:00Z</time>
      </trkpt>
      <trkpt lat="42.73595" lon="2.00025">
        <ele>1958.82</ele>
        <time>2017-03-11T10:20:11Z</time>
      </trkpt>
      <trkpt lat="42.73591" lon="2.00036">
        <ele>1957.38</ele>
        <time>2017-03-11T10:20:23Z</time>
      </trkpt>
      <trkpt lat="42.73588" lon="2.00047">
        <ele>1955.94</ele>
        <time>2017-03-11T10:20:33Z</time>
      </trkpt>
      <trkpt lat="42.73587" lon="2.00059">
        <ele>1954.98</ele>
        <time>2017-03-11T10:20:43Z</time>
      </trkpt>
      <trkpt lat="42.73586" lon="2.00072">
        <ele>1954.98</ele>
        <time>2017-03-11T10:20:52Z</time>
      </trkpt>
      <trkpt lat="42.73586" lon="2.00086">
        <ele>1955.46</ele>
        <time>2017-03-11T10:21:02Z</time>
      </trkpt>
      <trkpt lat="42.73582" lon="2.00096">
        <ele>1954.98</ele>
        <time>2017-03-11T10:21:12Z</time>
      </trkpt>
      <trkpt lat="42.73579" lon="2.00108">
        <ele>1952.57</ele>
        <time>2017-03-11T10:21:21Z</time>
      </trkpt>
      <trkpt lat="42.73578" lon="2.00119">
        <ele>1951.13</ele>
        <time>2017-03-11T10:21:29Z</time>
      </trkpt>
      <trkpt lat="42.73575" lon="2.00131">
        <ele>1951.61</ele>
        <time>2017-03-11T10:21:38Z</time>
      </trkpt>
      <trkpt lat="42.73574" lon="2.00143">
        <ele>1951.61</ele>
        <time>2017-03-11T10:21:47Z</time>
      </trkpt>
      <trkpt lat="42.73573" lon="2.00157">
        <ele>1949.21</ele>
        <time>2017-03-11T10:21:57Z</time>
      </trkpt>
      <trkpt lat="42.73572" lon="2.00168">
        <ele>1947.29</ele>
        <time>2017-03-11T10:22:07Z</time>
      </trkpt>
      <trkpt lat="42.73568" lon="2.0018">
        <ele>1944.4</ele>
        <time>2017-03-11T10:22:20Z</time>
      </trkpt>
      <trkpt lat="42.73566" lon="2.00192">
        <ele>1942</ele>
        <time>2017-03-11T10:22:33Z</time>
      </trkpt>
      <trkpt lat="42.73564" lon="2.00204">
        <ele>1939.12</ele>
        <time>2017-03-11T10:22:44Z</time>
      </trkpt>
      <trkpt lat="42.73562" lon="2.00217">
        <ele>1935.75</ele>
        <time>2017-03-11T10:22:55Z</time>
      </trkpt>
      <trkpt lat="42.73559" lon="2.00229">
        <ele>1933.83</ele>
        <time>2017-03-11T10:23:06Z</time>
      </trkpt>
      <trkpt lat="42.73558" lon="2.00242">
        <ele>1931.43</ele>
        <time>2017-03-11T10:23:18Z</time>
      </trkpt>
      <trkpt lat="42.73556" lon="2.00254">
        <ele>1929.5</ele>
        <time>2017-03-11T10:23:29Z</time>
      </trkpt>
      <trkpt lat="42.73553" lon="2.00264">
        <ele>1928.54</ele>
        <time>2017-03-11T10:23:38Z</time>
      </trkpt>
      <trkpt lat="42.73548" lon="2.00276">
        <ele>1928.06</ele>
        <time>2017-03-11T10:23:48Z</time>
      </trkpt>
      <trkpt lat="42.73543" lon="2.00287">
        <ele>1926.14</ele>
        <time>2017-03-11T10:23:58Z</time>
      </trkpt>
      <trkpt lat="42.7354" lon="2.00298">
        <ele>1925.66</ele>
        <time>2017-03-11T10:24:06Z</time>
      </trkpt>
      <trkpt lat="42.73535" lon="2.0031">
        <ele>1924.7</ele>
        <time>2017-03-11T10:24:15Z</time>
      </trkpt>
      <trkpt lat="42.7353" lon="2.00321">
        <ele>1923.74</ele>
        <time>2017-03-11T10:24:23Z</time>
      </trkpt>
      <trkpt lat="42.73525" lon="2.00332">
        <ele>1923.25</ele>
        <time>2017-03-11T10:24:32Z</time>
      </trkpt>
      <trkpt lat="42.7352" lon="2.00344">
        <ele>1921.33</ele>
        <time>2017-03-11T10:24:41Z</time>
      </trkpt>
      <trkpt lat="42.73516" lon="2.00356">
        <ele>1920.37</ele>
        <time>2017-03-11T10:24:50Z</time>
      </trkpt>
      <trkpt lat="42.73512" lon="2.00364">
        <ele>1919.89</ele>
        <time>2017-03-11T10:24:59Z</time>
      </trkpt>
      <trkpt lat="42.73507" lon="2.00377">
        <ele>1919.89</ele>
        <time>2017-03-11T10:25:08Z</time>
      </trkpt>
      <trkpt lat="42.73504" lon="2.00388">
        <ele>1919.41</ele>
        <time>2017-03-11T10:25:17Z</time>
      </trkpt>
      <trkpt lat="42.73501" lon="2.00401">
        <ele>1919.41</ele>
        <time>2017-03-11T10:25:26Z</time>
      </trkpt>
      <trkpt lat="42.73499" lon="2.00412">
        <ele>1919.41</ele>
        <time>2017-03-11T10:25:34Z</time>
      </trkpt>
      <trkpt lat="42.73497" lon="2.00426">
        <ele>1918.93</ele>
        <time>2017-03-11T10:25:44Z</time>
      </trkpt>
      <trkpt lat="42.73497" lon="2.0044">
        <ele>1918.93</ele>
        <time>2017-03-11T10:25:53Z</time>
      </trkpt>
      <trkpt lat="42.73496" lon="2.00452">
        <ele>1918.45</ele>
        <time>2017-03-11T10:26:03Z</time>
      </trkpt>
      <trkpt lat="42.73495" lon="2.00465">
        <ele>1918.45</ele>
        <time>2017-03-11T10:26:12Z</time>
      </trkpt>
      <trkpt lat="42.73494" lon="2.00478">
        <ele>1918.45</ele>
        <time>2017-03-11T10:26:21Z</time>
      </trkpt>
      <trkpt lat="42.73494" lon="2.00491">
        <ele>1918.93</ele>
        <time>2017-03-11T10:26:29Z</time>
      </trkpt>
      <trkpt lat="42.73495" lon="2.00503">
        <ele>1919.41</ele>
        <time>2017-03-11T10:26:37Z</time>
      </trkpt>
      <trkpt lat="42.73497" lon="2.00515">
        <ele>1918.93</ele>
        <time>2017-03-11T10:26:45Z</time>
      </trkpt>
      <trkpt lat="42.73497" lon="2.00528">
        <ele>1919.41</ele>
        <time>2017-03-11T10:26:54Z</time>
      </trkpt>
      <trkpt lat="42.735" lon="2.0054">
        <ele>1919.41</ele>
        <time>2017-03-11T10:27:04Z</time>
      </trkpt>
      <trkpt lat="42.73502" lon="2.00552">
        <ele>1919.41</ele>
        <time>2017-03-11T10:27:13Z</time>
      </trkpt>
      <trkpt lat="42.73505" lon="2.00564">
        <ele>1919.89</ele>
        <time>2017-03-11T10:27:21Z</time>
      </trkpt>
      <trkpt lat="42.73507" lon="2.00577">
        <ele>1919.89</ele>
        <time>2017-03-11T10:27:29Z</time>
      </trkpt>
      <trkpt lat="42.73509" lon="2.00588">
        <ele>1920.37</ele>
        <time>2017-03-11T10:27:37Z</time>
      </trkpt>
      <trkpt lat="42.73512" lon="2.00601">
        <ele>1921.33</ele>
        <time>2017-03-11T10:27:46Z</time>
      </trkpt>
      <trkpt lat="42.73517" lon="2.00613">
        <ele>1920.85</ele>
        <time>2017-03-11T10:27:55Z</time>
      </trkpt>
      <trkpt lat="42.73521" lon="2.00626">
        <ele>1921.81</ele>
        <time>2017-03-11T10:28:03Z</time>
      </trkpt>
      <trkpt lat="42.73525" lon="2.00637">
        <ele>1922.77</ele>
        <time>2017-03-11T10:28:11Z</time>
      </trkpt>
      <trkpt lat="42.73529" lon="2.00647">
        <ele>1922.29</ele>
        <time>2017-03-11T10:28:19Z</time>
      </trkpt>
      <trkpt lat="42.73533" lon="2.00657">
        <ele>1922.29</ele>
        <time>2017-03-11T10:28:27Z</time>
      </trkpt>
      <trkpt lat="42.73539" lon="2.00668">
        <ele>1921.81</ele>
        <time>2017-03-11T10:28:36Z</time>
      </trkpt>
      <trkpt lat="42.73544" lon="2.00678">
        <ele>1922.29</ele>
        <time>2017-03-11T10:28:47Z</time>
      </trkpt>
      <trkpt lat="42.73548" lon="2.00689">
        <ele>1921.81</ele>
        <time>2017-03-11T10:28:58Z</time>
      </trkpt>
      <trkpt lat="42.73553" lon="2.007">
        <ele>1922.77</ele>
        <time>2017-03-11T10:29:07Z</time>
      </trkpt>
      <trkpt lat="42.73559" lon="2.00709">
        <ele>1923.25</ele>
        <time>2017-03-11T10:29:18Z</time>
      </trkpt>
      <trkpt lat="42.73566" lon="2.00718">
        <ele>1924.22</ele>
        <time>2017-03-11T10:29:29Z</time>
      </trkpt>
      <trkpt lat="42.73573" lon="2.00725">
        <ele>1924.22</ele>
        <time>2017-03-11T10:29:38Z</time>
      </trkpt>
      <trkpt lat="42.73577" lon="2.00735">
        <ele>1925.66</ele>
        <time>2017-03-11T10:29:47Z</time>
      </trkpt>
      <trkpt lat="42.73582" lon="2.00747">
        <ele>1926.62</ele>
        <time>2017-03-11T10:29:56Z</time>
      </trkpt>
      <trkpt lat="42.73586" lon="2.00759">
        <ele>1927.1</ele>
        <time>2017-03-11T10:30:06Z</time>
      </trkpt>
      <trkpt lat="42.7359" lon="2.00771">
        <ele>1928.54</ele>
        <time>2017-03-11T10:30:15Z</time>
      </trkpt>
      <trkpt lat="42.73592" lon="2.00782">
        <ele>1929.02</ele>
        <time>2017-03-11T10:30:24Z</time>
      </trkpt>
      <trkpt lat="42.73597" lon="2.00793">
        <ele>1929.5</ele>
        <time>2017-03-11T10:30:34Z</time>
      </trkpt>
      <trkpt lat="42.73603" lon="2.00805">
        <ele>1930.95</ele>
        <time>2017-03-11T10:30:44Z</time>
      </trkpt>
      <trkpt lat="42.73608" lon="2.00815">
        <ele>1931.43</ele>
        <time>2017-03-11T10:30:54Z</time>
      </trkpt>
      <trkpt lat="42.73612" lon="2.00829">
        <ele>1932.39</ele>
        <time>2017-03-11T10:31:05Z</time>
      </trkpt>
      <trkpt lat="42.73613" lon="2.00843">
        <ele>1932.87</ele>
        <time>2017-03-11T10:31:17Z</time>
      </trkpt>
      <trkpt lat="42.73617" lon="2.0085">
        <ele>1933.83</ele>
        <time>2017-03-11T10:31:29Z</time>
      </trkpt>
      <trkpt lat="42.73622" lon="2.00861">
        <ele>1935.27</ele>
        <time>2017-03-11T10:31:40Z</time>
      </trkpt>
      <trkpt lat="42.73626" lon="2.00876">
        <ele>1936.23</ele>
        <time>2017-03-11T10:31:50Z</time>
      </trkpt>
      <trkpt lat="42.73629" lon="2.00889">
        <ele>1936.71</ele>
        <time>2017-03-11T10:32:00Z</time>
      </trkpt>
      <trkpt lat="42.7363" lon="2.00902">
        <ele>1937.67</ele>
        <time>2017-03-11T10:32:10Z</time>
      </trkpt>
      <trkpt lat="42.73631" lon="2.00915">
        <ele>1939.12</ele>
        <time>2017-03-11T10:32:20Z</time>
      </trkpt>
      <trkpt lat="42.73632" lon="2.00927">
        <ele>1940.08</ele>
        <time>2017-03-11T10:32:30Z</time>
      </trkpt>
      <trkpt lat="42.73631" lon="2.00941">
        <ele>1940.56</ele>
        <time>2017-03-11T10:32:40Z</time>
      </trkpt>
      <trkpt lat="42.73631" lon="2.00951">
        <ele>1941.04</ele>
        <time>2017-03-11T10:32:49Z</time>
      </trkpt>
      <trkpt lat="42.73631" lon="2.00965">
        <ele>1942</ele>
        <time>2017-03-11T10:32:59Z</time>
      </trkpt>
      <trkpt lat="42.73631" lon="2.00977">
        <ele>1942.48</ele>
        <time>2017-03-11T10:33:09Z</time>
      </trkpt>
      <trkpt lat="42.73629" lon="2.00989">
        <ele>1943.92</ele>
        <time>2017-03-11T10:33:19Z</time>
      </trkpt>
      <trkpt lat="42.73632" lon="2.01004">
        <ele>1944.88</ele>
        <time>2017-03-11T10:33:30Z</time>
      </trkpt>
      <trkpt lat="42.73635" lon="2.01016">
        <ele>1945.85</ele>
        <time>2017-03-11T10:33:40Z</time>
      </trkpt>
      <trkpt lat="42.73638" lon="2.01027">
        <ele>1947.77</ele>
        <time>2017-03-11T10:33:50Z</time>
      </trkpt>
      <trkpt lat="42.73642" lon="2.01038">
        <ele>1947.77</ele>
        <time>2017-03-11T10:34:00Z</time>
      </trkpt>
      <trkpt lat="42.73647" lon="2.01049">
        <ele>1947.77</ele>
        <time>2017-03-11T10:34:09Z</time>
      </trkpt>
      <trkpt lat="42.73653" lon="2.01058">
        <ele>1946.81</ele>
        <time>2017-03-11T10:34:18Z</time>
      </trkpt>
      <trkpt lat="42.73659" lon="2.01067">
        <ele>1946.33</ele>
        <time>2017-03-11T10:34:27Z</time>
      </trkpt>
      <trkpt lat="42.73665" lon="2.01077">
        <ele>1946.33</ele>
        <time>2017-03-11T10:34:36Z</time>
      </trkpt>
      <trkpt lat="42.73672" lon="2.01086">
        <ele>1945.36</ele>
        <time>2017-03-11T10:34:45Z</time>
      </trkpt>
      <trkpt lat="42.73679" lon="2.01095">
        <ele>1944.4</ele>
        <time>2017-03-11T10:34:54Z</time>
      </trkpt>
      <trkpt lat="42.73686" lon="2.01104">
        <ele>1943.44</ele>
        <time>2017-03-11T10:35:02Z</time>
      </trkpt>
      <trkpt lat="42.73693" lon="2.01111">
        <ele>1943.44</ele>
        <time>2017-03-11T10:35:09Z</time>
      </trkpt>
      <trkpt lat="42.73701" lon="2.01118">
        <ele>1942.48</ele>
        <time>2017-03-11T10:35:17Z</time>
      </trkpt>
      <trkpt lat="42.73708" lon="2.01124">
        <ele>1941.52</ele>
        <time>2017-03-11T10:35:25Z</time>
      </trkpt>
      <trkpt lat="42.73715" lon="2.01131">
        <ele>1941.04</ele>
        <time>2017-03-11T10:35:33Z</time>
      </trkpt>
      <trkpt lat="42.73722" lon="2.01138">
        <ele>1939.6</ele>
        <time>2017-03-11T10:35:41Z</time>
      </trkpt>
      <trkpt lat="42.73731" lon="2.01146">
        <ele>1939.12</ele>
        <time>2017-03-11T10:35:49Z</time>
      </trkpt>
      <trkpt lat="42.73739" lon="2.01152">
        <ele>1938.16</ele>
        <time>2017-03-11T10:35:57Z</time>
      </trkpt>
      <trkpt lat="42.73747" lon="2.01159">
        <ele>1937.67</ele>
        <time>2017-03-11T10:36:05Z</time>
      </trkpt>
      <trkpt lat="42.73756" lon="2.01165">
        <ele>1937.19</ele>
        <time>2017-03-11T10:36:14Z</time>
      </trkpt>
      <trkpt lat="42.73765" lon="2.01172">
        <ele>1937.19</ele>
        <time>2017-03-11T10:36:22Z</time>
      </trkpt>
      <trkpt lat="42.73774" lon="2.01179">
        <ele>1937.19</ele>
        <time>2017-03-11T10:36:31Z</time>
      </trkpt>
      <trkpt lat="42.73783" lon="2.01183">
        <ele>1936.71</ele>
        <time>2017-03-11T10:36:40Z</time>
      </trkpt>
      <trkpt lat="42.73792" lon="2.01187">
        <ele>1936.71</ele>
        <time>2017-03-11T10:36:50Z</time>
      </trkpt>
      <trkpt lat="42.73799" lon="2.01194">
        <ele>1935.27</ele>
        <time>2017-03-11T10:37:14Z</time>
      </trkpt>
      <trkpt lat="42.73799" lon="2.01194">
        <ele>1936.23</ele>
        <time>2017-03-11T10:39:05Z</time>
      </trkpt>
      <trkpt lat="42.738" lon="2.01205">
        <ele>1935.75</ele>
        <time>2017-03-11T10:39:21Z</time>
      </trkpt>
      <trkpt lat="42.73806" lon="2.01212">
        <ele>1936.23</ele>
        <time>2017-03-11T10:40:02Z</time>
      </trkpt>
      <trkpt lat="42.73807" lon="2.01217">
        <ele>1937.19</ele>
        <time>2017-03-11T10:41:18Z</time>
      </trkpt>
      <trkpt lat="42.73803" lon="2.01228">
        <ele>1938.16</ele>
        <time>2017-03-11T10:41:33Z</time>
      </trkpt>
      <trkpt lat="42.73803" lon="2.0124">
        <ele>1940.56</ele>
        <time>2017-03-11T10:41:52Z</time>
      </trkpt>
      <trkpt lat="42.73807" lon="2.01249">
        <ele>1943.44</ele>
        <time>2017-03-11T10:42:43Z</time>
      </trkpt>
      <trkpt lat="42.73807" lon="2.01259">
        <ele>1944.88</ele>
        <time>2017-03-11T10:43:01Z</time>
      </trkpt>
      <trkpt lat="42.73815" lon="2.01263">
        <ele>1944.88</ele>
        <time>2017-03-11T10:43:13Z</time>
      </trkpt>
      <trkpt lat="42.73821" lon="2.01274">
        <ele>1946.81</ele>
        <time>2017-03-11T10:43:31Z</time>
      </trkpt>
      <trkpt lat="42.73818" lon="2.01285">
        <ele>1947.77</ele>
        <time>2017-03-11T10:44:03Z</time>
      </trkpt>
      <trkpt lat="42.73823" lon="2.01296">
        <ele>1949.21</ele>
        <time>2017-03-11T10:44:31Z</time>
      </trkpt>
      <trkpt lat="42.73829" lon="2.01305">
        <ele>1949.69</ele>
        <time>2017-03-11T10:44:44Z</time>
      </trkpt>
      <trkpt lat="42.73834" lon="2.01314">
        <ele>1953.54</ele>
        <time>2017-03-11T10:44:58Z</time>
      </trkpt>
      <trkpt lat="42.73837" lon="2.01327">
        <ele>1954.98</ele>
        <time>2017-03-11T10:45:11Z</time>
      </trkpt>
      <trkpt lat="42.73842" lon="2.01335">
        <ele>1955.94</ele>
        <time>2017-03-11T10:45:34Z</time>
      </trkpt>
      <trkpt lat="42.73842" lon="2.01345">
        <ele>1955.46</ele>
        <time>2017-03-11T10:45:46Z</time>
      </trkpt>
      <trkpt lat="42.73844" lon="2.01357">
        <ele>1954.98</ele>
        <time>2017-03-11T10:45:57Z</time>
      </trkpt>
      <trkpt lat="42.73846" lon="2.01371">
        <ele>1957.86</ele>
        <time>2017-03-11T10:46:10Z</time>
      </trkpt>
      <trkpt lat="42.73849" lon="2.01381">
        <ele>1959.3</ele>
        <time>2017-03-11T10:46:24Z</time>
      </trkpt>
      <trkpt lat="42.73857" lon="2.0139">
        <ele>1960.75</ele>
        <time>2017-03-11T10:46:39Z</time>
      </trkpt>
      <trkpt lat="42.73865" lon="2.01396">
        <ele>1962.67</ele>
        <time>2017-03-11T10:46:55Z</time>
      </trkpt>
      <trkpt lat="42.7387" lon="2.01401">
        <ele>1964.11</ele>
        <time>2017-03-11T10:47:09Z</time>
      </trkpt>
      <trkpt lat="42.73878" lon="2.01408">
        <ele>1964.11</ele>
        <time>2017-03-11T10:47:23Z</time>
      </trkpt>
      <trkpt lat="42.73884" lon="2.01418">
        <ele>1961.71</ele>
        <time>2017-03-11T10:47:36Z</time>
      </trkpt>
      <trkpt lat="42.7389" lon="2.01431">
        <ele>1960.75</ele>
        <time>2017-03-11T10:47:48Z</time>
      </trkpt>
      <trkpt lat="42.73895" lon="2.01442">
        <ele>1960.27</ele>
        <time>2017-03-11T10:47:59Z</time>
      </trkpt>
      <trkpt lat="42.73901" lon="2.01453">
        <ele>1959.78</ele>
        <time>2017-03-11T10:48:09Z</time>
      </trkpt>
      <trkpt lat="42.73906" lon="2.01465">
        <ele>1959.78</ele>
        <time>2017-03-11T10:48:23Z</time>
      </trkpt>
      <trkpt lat="42.73908" lon="2.01475">
        <ele>1959.3</ele>
        <time>2017-03-11T10:48:43Z</time>
      </trkpt>
      <trkpt lat="42.73912" lon="2.01487">
        <ele>1959.78</ele>
        <time>2017-03-11T10:48:54Z</time>
      </trkpt>
      <trkpt lat="42.73913" lon="2.015">
        <ele>1958.82</ele>
        <time>2017-03-11T10:49:06Z</time>
      </trkpt>
      <trkpt lat="42.73915" lon="2.01512">
        <ele>1958.82</ele>
        <time>2017-03-11T10:49:16Z</time>
      </trkpt>
      <trkpt lat="42.73919" lon="2.01523">
        <ele>1959.3</ele>
        <time>2017-03-11T10:49:27Z</time>
      </trkpt>
      <trkpt lat="42.73925" lon="2.01533">
        <ele>1960.27</ele>
        <time>2017-03-11T10:49:38Z</time>
      </trkpt>
      <trkpt lat="42.73931" lon="2.01544">
        <ele>1961.23</ele>
        <time>2017-03-11T10:49:48Z</time>
      </trkpt>
      <trkpt lat="42.73935" lon="2.01555">
        <ele>1960.27</ele>
        <time>2017-03-11T10:49:59Z</time>
      </trkpt>
      <trkpt lat="42.7394" lon="2.01565">
        <ele>1960.27</ele>
        <time>2017-03-11T10:50:13Z</time>
      </trkpt>
      <trkpt lat="42.73944" lon="2.01576">
        <ele>1958.82</ele>
        <time>2017-03-11T10:50:29Z</time>
      </trkpt>
      <trkpt lat="42.73947" lon="2.01588">
        <ele>1956.9</ele>
        <time>2017-03-11T10:50:39Z</time>
      </trkpt>
      <trkpt lat="42.73951" lon="2.016">
        <ele>1956.42</ele>
        <time>2017-03-11T10:50:50Z</time>
      </trkpt>
      <trkpt lat="42.73954" lon="2.01612">
        <ele>1955.46</ele>
        <time>2017-03-11T10:51:01Z</time>
      </trkpt>
      <trkpt lat="42.73955" lon="2.01623">
        <ele>1954.98</ele>
        <time>2017-03-11T10:51:11Z</time>
      </trkpt>
      <trkpt lat="42.73951" lon="2.01634">
        <ele>1953.06</ele>
        <time>2017-03-11T10:51:21Z</time>
      </trkpt>
      <trkpt lat="42.73948" lon="2.01646">
        <ele>1953.54</ele>
        <time>2017-03-11T10:51:33Z</time>
      </trkpt>
      <trkpt lat="42.73948" lon="2.01659">
        <ele>1954.02</ele>
        <time>2017-03-11T10:51:43Z</time>
      </trkpt>
      <trkpt lat="42.73949" lon="2.0167">
        <ele>1954.02</ele>
        <time>2017-03-11T10:51:52Z</time>
      </trkpt>
      <trkpt lat="42.73949" lon="2.01681">
        <ele>1954.98</ele>
        <time>2017-03-11T10:52:02Z</time>
      </trkpt>
      <trkpt lat="42.73949" lon="2.01693">
        <ele>1954.5</ele>
        <time>2017-03-11T10:52:19Z</time>
      </trkpt>
      <trkpt lat="42.73951" lon="2.01705">
        <ele>1954.02</ele>
        <time>2017-03-11T10:52:30Z</time>
      </trkpt>
      <trkpt lat="42.73952" lon="2.01717">
        <ele>1954.5</ele>
        <time>2017-03-11T10:52:43Z</time>
      </trkpt>
      <trkpt lat="42.73947" lon="2.01728">
        <ele>1953.06</ele>
        <time>2017-03-11T10:52:59Z</time>
      </trkpt>
      <trkpt lat="42.7395" lon="2.01739">
        <ele>1952.09</ele>
        <time>2017-03-11T10:53:17Z</time>
      </trkpt>
      <trkpt lat="42.73954" lon="2.0175">
        <ele>1950.65</ele>
        <time>2017-03-11T10:53:58Z</time>
      </trkpt>
      <trkpt lat="42.73958" lon="2.01763">
        <ele>1949.69</ele>
        <time>2017-03-11T10:54:10Z</time>
      </trkpt>
      <trkpt lat="42.73961" lon="2.01775">
        <ele>1948.25</ele>
        <time>2017-03-11T10:54:22Z</time>
      </trkpt>
      <trkpt lat="42.73963" lon="2.01787">
        <ele>1946.81</ele>
        <time>2017-03-11T10:54:34Z</time>
      </trkpt>
      <trkpt lat="42.73965" lon="2.01799">
        <ele>1947.29</ele>
        <time>2017-03-11T10:54:46Z</time>
      </trkpt>
      <trkpt lat="42.73967" lon="2.01811">
        <ele>1947.77</ele>
        <time>2017-03-11T10:54:57Z</time>
      </trkpt>
      <trkpt lat="42.73972" lon="2.0182">
        <ele>1948.25</ele>
        <time>2017-03-11T10:55:09Z</time>
      </trkpt>
      <trkpt lat="42.7398" lon="2.01826">
        <ele>1950.17</ele>
        <time>2017-03-11T10:55:24Z</time>
      </trkpt>
      <trkpt lat="42.73984" lon="2.01837">
        <ele>1951.13</ele>
        <time>2017-03-11T10:55:36Z</time>
      </trkpt>
      <trkpt lat="42.73982" lon="2.01852">
        <ele>1951.13</ele>
        <time>2017-03-11T10:55:47Z</time>
      </trkpt>
      <trkpt lat="42.7398" lon="2.01865">
        <ele>1950.65</ele>
        <time>2017-03-11T10:55:57Z</time>
      </trkpt>
      <trkpt lat="42.73984" lon="2.01878">
        <ele>1951.61</ele>
        <time>2017-03-11T10:56:07Z</time>
      </trkpt>
      <trkpt lat="42.73989" lon="2.01886">
        <ele>1952.09</ele>
        <time>2017-03-11T10:56:17Z</time>
      </trkpt>
      <trkpt lat="42.7399" lon="2.01898">
        <ele>1952.09</ele>
        <time>2017-03-11T10:56:28Z</time>
      </trkpt>
      <trkpt lat="42.73991" lon="2.01911">
        <ele>1951.13</ele>
        <time>2017-03-11T10:56:39Z</time>
      </trkpt>
      <trkpt lat="42.73992" lon="2.01926">
        <ele>1949.21</ele>
        <time>2017-03-11T10:56:51Z</time>
      </trkpt>
      <trkpt lat="42.73991" lon="2.01939">
        <ele>1947.77</ele>
        <time>2017-03-11T10:57:02Z</time>
      </trkpt>
      <trkpt lat="42.73991" lon="2.01951">
        <ele>1947.29</ele>
        <time>2017-03-11T10:57:12Z</time>
      </trkpt>
      <trkpt lat="42.7399" lon="2.01963">
        <ele>1947.29</ele>
        <time>2017-03-11T10:57:22Z</time>
      </trkpt>
      <trkpt lat="42.73987" lon="2.01974">
        <ele>1946.81</ele>
        <time>2017-03-11T10:57:33Z</time>
      </trkpt>
      <trkpt lat="42.73978" lon="2.0198">
        <ele>1947.29</ele>
        <time>2017-03-11T10:57:42Z</time>
      </trkpt>
      <trkpt lat="42.7397" lon="2.01985">
        <ele>1948.25</ele>
        <time>2017-03-11T10:57:52Z</time>
      </trkpt>
      <trkpt lat="42.73962" lon="2.01993">
        <ele>1948.73</ele>
        <time>2017-03-11T10:58:02Z</time>
      </trkpt>
      <trkpt lat="42.73956" lon="2.02004">
        <ele>1948.73</ele>
        <time>2017-03-11T10:58:12Z</time>
      </trkpt>
      <trkpt lat="42.73951" lon="2.02013">
        <ele>1947.29</ele>
        <time>2017-03-11T10:58:23Z</time>
      </trkpt>
      <trkpt lat="42.73949" lon="2.02026">
        <ele>1947.29</ele>
        <time>2017-03-11T10:58:34Z</time>
      </trkpt>
      <trkpt lat="42.73949" lon="2.02041">
        <ele>1946.81</ele>
        <time>2017-03-11T10:58:47Z</time>
      </trkpt>
      <trkpt lat="42.7395" lon="2.02054">
        <ele>1945.36</ele>
        <time>2017-03-11T10:58:59Z</time>
      </trkpt>
      <trkpt lat="42.7395" lon="2.02067">
        <ele>1943.92</ele>
        <time>2017-03-11T10:59:10Z</time>
      </trkpt>
      <trkpt lat="42.73947" lon="2.02078">
        <ele>1942</ele>
        <time>2017-03-11T10:59:21Z</time>
      </trkpt>
      <trkpt lat="42.73944" lon="2.02089">
        <ele>1940.56</ele>
        <time>2017-03-11T10:59:31Z</time>
      </trkpt>
      <trkpt lat="42.73944" lon="2.02103">
        <ele>1939.6</ele>
        <time>2017-03-11T10:59:44Z</time>
      </trkpt>
      <trkpt lat="42.73943" lon="2.02114">
        <ele>1938.64</ele>
        <time>2017-03-11T10:59:57Z</time>
      </trkpt>
      <trkpt lat="42.7394" lon="2.02126">
        <ele>1936.23</ele>
        <time>2017-03-11T11:00:12Z</time>
      </trkpt>
      <trkpt lat="42.73936" lon="2.02137">
        <ele>1934.31</ele>
        <time>2017-03-11T11:00:24Z</time>
      </trkpt>
      <trkpt lat="42.73934" lon="2.02149">
        <ele>1934.79</ele>
        <time>2017-03-11T11:00:36Z</time>
      </trkpt>
      <trkpt lat="42.73932" lon="2.02162">
        <ele>1936.23</ele>
        <time>2017-03-11T11:00:49Z</time>
      </trkpt>
      <trkpt lat="42.73931" lon="2.02175">
        <ele>1937.19</ele>
        <time>2017-03-11T11:01:02Z</time>
      </trkpt>
      <trkpt lat="42.73929" lon="2.02186">
        <ele>1937.19</ele>
        <time>2017-03-11T11:01:14Z</time>
      </trkpt>
      <trkpt lat="42.73923" lon="2.02197">
        <ele>1938.16</ele>
        <time>2017-03-11T11:01:27Z</time>
      </trkpt>
      <trkpt lat="42.73918" lon="2.02208">
        <ele>1940.08</ele>
        <time>2017-03-11T11:01:40Z</time>
      </trkpt>
      <trkpt lat="42.73917" lon="2.02219">
        <ele>1942</ele>
        <time>2017-03-11T11:01:55Z</time>
      </trkpt>
      <trkpt lat="42.73919" lon="2.02232">
        <ele>1944.4</ele>
        <time>2017-03-11T11:02:17Z</time>
      </trkpt>
      <trkpt lat="42.73922" lon="2.02246">
        <ele>1945.85</ele>
        <time>2017-03-11T11:02:33Z</time>
      </trkpt>
      <trkpt lat="42.73922" lon="2.02255">
        <ele>1949.69</ele>
        <time>2017-03-11T11:02:59Z</time>
      </trkpt>
      <trkpt lat="42.73921" lon="2.02267">
        <ele>1951.13</ele>
        <time>2017-03-11T11:04:47Z</time>
      </trkpt>
      <trkpt lat="42.73918" lon="2.02279">
        <ele>1948.73</ele>
        <time>2017-03-11T11:05:17Z</time>
      </trkpt>
      <trkpt lat="42.73923" lon="2.02288">
        <ele>1943.92</ele>
        <time>2017-03-11T11:05:40Z</time>
      </trkpt>
      <trkpt lat="42.73931" lon="2.02298">
        <ele>1940.08</ele>
        <time>2017-03-11T11:06:15Z</time>
      </trkpt>
      <trkpt lat="42.73941" lon="2.02299">
        <ele>1936.23</ele>
        <time>2017-03-11T11:06:29Z</time>
      </trkpt>
      <trkpt lat="42.7395" lon="2.02303">
        <ele>1932.39</ele>
        <time>2017-03-11T11:06:47Z</time>
      </trkpt>
      <trkpt lat="42.73958" lon="2.02309">
        <ele>1928.54</ele>
        <time>2017-03-11T11:07:08Z</time>
      </trkpt>
      <trkpt lat="42.73967" lon="2.02314">
        <ele>1924.22</ele>
        <time>2017-03-11T11:07:29Z</time>
      </trkpt>
      <trkpt lat="42.73969" lon="2.02314">
        <ele>1921.81</ele>
        <time>2017-03-11T11:08:06Z</time>
      </trkpt>
      <trkpt lat="42.73971" lon="2.02314">
        <ele>1921.33</ele>
        <time>2017-03-11T11:08:58Z</time>
      </trkpt>
      <trkpt lat="42.73981" lon="2.02312">
        <ele>1916.53</ele>
        <time>2017-03-11T11:09:10Z</time>
      </trkpt>
      <trkpt lat="42.7399" lon="2.02312">
        <ele>1912.2</ele>
        <time>2017-03-11T11:09:20Z</time>
      </trkpt>
      <trkpt lat="42.73999" lon="2.02312">
        <ele>1908.83</ele>
        <time>2017-03-11T11:09:31Z</time>
      </trkpt>
      <trkpt lat="42.74007" lon="2.02307">
        <ele>1904.99</ele>
        <time>2017-03-11T11:09:43Z</time>
      </trkpt>
      <trkpt lat="42.74017" lon="2.02303">
        <ele>1900.18</ele>
        <time>2017-03-11T11:09:54Z</time>
      </trkpt>
      <trkpt lat="42.74025" lon="2.02308">
        <ele>1895.86</ele>
        <time>2017-03-11T11:10:07Z</time>
      </trkpt>
      <trkpt lat="42.74034" lon="2.02312">
        <ele>1892.97</ele>
        <time>2017-03-11T11:10:19Z</time>
      </trkpt>
      <trkpt lat="42.74042" lon="2.02318">
        <ele>1888.17</ele>
        <time>2017-03-11T11:10:29Z</time>
      </trkpt>
      <trkpt lat="42.74047" lon="2.02329">
        <ele>1884.32</ele>
        <time>2017-03-11T11:10:37Z</time>
      </trkpt>
      <trkpt lat="42.74053" lon="2.02339">
        <ele>1881.92</ele>
        <time>2017-03-11T11:10:47Z</time>
      </trkpt>
      <trkpt lat="42.74062" lon="2.02345">
        <ele>1878.07</ele>
        <time>2017-03-11T11:10:56Z</time>
      </trkpt>
      <trkpt lat="42.74072" lon="2.0235">
        <ele>1873.75</ele>
        <time>2017-03-11T11:11:06Z</time>
      </trkpt>
      <trkpt lat="42.74081" lon="2.02355">
        <ele>1869.42</ele>
        <time>2017-03-11T11:11:16Z</time>
      </trkpt>
      <trkpt lat="42.74088" lon="2.02364">
        <ele>1866.54</ele>
        <time>2017-03-11T11:11:24Z</time>
      </trkpt>
      <trkpt lat="42.74096" lon="2.0237">
        <ele>1864.13</ele>
        <time>2017-03-11T11:11:32Z</time>
      </trkpt>
      <trkpt lat="42.74104" lon="2.02376">
        <ele>1862.21</ele>
        <time>2017-03-11T11:11:40Z</time>
      </trkpt>
      <trkpt lat="42.74112" lon="2.02386">
        <ele>1860.77</ele>
        <time>2017-03-11T11:11:49Z</time>
      </trkpt>
      <trkpt lat="42.74119" lon="2.02393">
        <ele>1859.33</ele>
        <time>2017-03-11T11:11:59Z</time>
      </trkpt>
      <trkpt lat="42.74124" lon="2.02404">
        <ele>1857.89</ele>
        <time>2017-03-11T11:12:08Z</time>
      </trkpt>
      <trkpt lat="42.7413" lon="2.02415">
        <ele>1857.4</ele>
        <time>2017-03-11T11:12:18Z</time>
      </trkpt>
      <trkpt lat="42.74137" lon="2.02424">
        <ele>1855.48</ele>
        <time>2017-03-11T11:12:28Z</time>
      </trkpt>
      <trkpt lat="42.74142" lon="2.02433">
        <ele>1853.56</ele>
        <time>2017-03-11T11:12:50Z</time>
      </trkpt>
      <trkpt lat="42.74147" lon="2.02443">
        <ele>1851.16</ele>
        <time>2017-03-11T11:13:10Z</time>
      </trkpt>
      <trkpt lat="42.74154" lon="2.02453">
        <ele>1848.75</ele>
        <time>2017-03-11T11:13:20Z</time>
      </trkpt>
      <trkpt lat="42.74159" lon="2.02463">
        <ele>1846.83</ele>
        <time>2017-03-11T11:13:30Z</time>
      </trkpt>
      <trkpt lat="42.74165" lon="2.02475">
        <ele>1844.43</ele>
        <time>2017-03-11T11:13:40Z</time>
      </trkpt>
      <trkpt lat="42.74171" lon="2.02487">
        <ele>1842.5</ele>
        <time>2017-03-11T11:13:50Z</time>
      </trkpt>
      <trkpt lat="42.74178" lon="2.02497">
        <ele>1840.1</ele>
        <time>2017-03-11T11:14:00Z</time>
      </trkpt>
      <trkpt lat="42.74184" lon="2.0251">
        <ele>1838.66</ele>
        <time>2017-03-11T11:14:10Z</time>
      </trkpt>
      <trkpt lat="42.74192" lon="2.02518">
        <ele>1836.26</ele>
        <time>2017-03-11T11:14:20Z</time>
      </trkpt>
      <trkpt lat="42.74199" lon="2.02528">
        <ele>1833.85</ele>
        <time>2017-03-11T11:14:31Z</time>
      </trkpt>
      <trkpt lat="42.74205" lon="2.02537">
        <ele>1832.41</ele>
        <time>2017-03-11T11:14:43Z</time>
      </trkpt>
      <trkpt lat="42.74212" lon="2.02546">
        <ele>1829.53</ele>
        <time>2017-03-11T11:14:57Z</time>
      </trkpt>
      <trkpt lat="42.74219" lon="2.02554">
        <ele>1827.6</ele>
        <time>2017-03-11T11:15:12Z</time>
      </trkpt>
      <trkpt lat="42.74226" lon="2.02564">
        <ele>1824.24</ele>
        <time>2017-03-11T11:15:32Z</time>
      </trkpt>
      <trkpt lat="42.74235" lon="2.02572">
        <ele>1820.39</ele>
        <time>2017-03-11T11:15:57Z</time>
      </trkpt>
      <trkpt lat="42.74243" lon="2.02579">
        <ele>1816.55</ele>
        <time>2017-03-11T11:16:17Z</time>
      </trkpt>
      <trkpt lat="42.74249" lon="2.02588">
        <ele>1815.59</ele>
        <time>2017-03-11T11:16:30Z</time>
      </trkpt>
      <trkpt lat="42.74255" lon="2.02595">
        <ele>1813.66</ele>
        <time>2017-03-11T11:16:53Z</time>
      </trkpt>
      <trkpt lat="42.74262" lon="2.02604">
        <ele>1811.26</ele>
        <time>2017-03-11T11:17:09Z</time>
      </trkpt>
      <trkpt lat="42.7427" lon="2.02612">
        <ele>1808.86</ele>
        <time>2017-03-11T11:17:24Z</time>
      </trkpt>
      <trkpt lat="42.74277" lon="2.02618">
        <ele>1806.94</ele>
        <time>2017-03-11T11:17:41Z</time>
      </trkpt>
      <trkpt lat="42.7428" lon="2.0263">
        <ele>1806.45</ele>
        <time>2017-03-11T11:17:57Z</time>
      </trkpt>
      <trkpt lat="42.74283" lon="2.0264">
        <ele>1805.01</ele>
        <time>2017-03-11T11:18:18Z</time>
      </trkpt>
      <trkpt lat="42.74284" lon="2.02651">
        <ele>1805.49</ele>
        <time>2017-03-11T11:18:45Z</time>
      </trkpt>
      <trkpt lat="42.74285" lon="2.02662">
        <ele>1806.45</ele>
        <time>2017-03-11T11:18:58Z</time>
      </trkpt>
      <trkpt lat="42.7429" lon="2.02663">
        <ele>1802.61</ele>
        <time>2017-03-11T11:19:30Z</time>
      </trkpt>
      <trkpt lat="42.74297" lon="2.0267">
        <ele>1799.73</ele>
        <time>2017-03-11T11:19:45Z</time>
      </trkpt>
      <trkpt lat="42.74302" lon="2.02678">
        <ele>1797.8</ele>
        <time>2017-03-11T11:20:01Z</time>
      </trkpt>
      <trkpt lat="42.74309" lon="2.02688">
        <ele>1797.32</ele>
        <time>2017-03-11T11:20:18Z</time>
      </trkpt>
      <trkpt lat="42.74314" lon="2.02698">
        <ele>1795.88</ele>
        <time>2017-03-11T11:20:38Z</time>
      </trkpt>
      <trkpt lat="42.74317" lon="2.02701">
        <ele>1795.88</ele>
        <time>2017-03-11T11:21:59Z</time>
      </trkpt>
      <trkpt lat="42.74317" lon="2.0271">
        <ele>1798.28</ele>
        <time>2017-03-11T11:22:59Z</time>
      </trkpt>
      <trkpt lat="42.74314" lon="2.0272">
        <ele>1801.17</ele>
        <time>2017-03-11T11:23:24Z</time>
      </trkpt>
      <trkpt lat="42.74316" lon="2.0273">
        <ele>1804.53</ele>
        <time>2017-03-11T11:23:45Z</time>
      </trkpt>
      <trkpt lat="42.74314" lon="2.02741">
        <ele>1805.97</ele>
        <time>2017-03-11T11:24:32Z</time>
      </trkpt>
      <trkpt lat="42.74307" lon="2.02742">
        <ele>1807.42</ele>
        <time>2017-03-11T11:27:10Z</time>
      </trkpt>
      <trkpt lat="42.74305" lon="2.02752">
        <ele>1809.34</ele>
        <time>2017-03-11T11:27:30Z</time>
      </trkpt>
      <trkpt lat="42.74306" lon="2.0276">
        <ele>1810.3</ele>
        <time>2017-03-11T11:27:47Z</time>
      </trkpt>
      <trkpt lat="42.74306" lon="2.02769">
        <ele>1811.74</ele>
        <time>2017-03-11T11:28:04Z</time>
      </trkpt>
      <trkpt lat="42.74306" lon="2.02782">
        <ele>1812.7</ele>
        <time>2017-03-11T11:28:18Z</time>
      </trkpt>
      <trkpt lat="42.74307" lon="2.02793">
        <ele>1813.66</ele>
        <time>2017-03-11T11:28:31Z</time>
      </trkpt>
      <trkpt lat="42.74309" lon="2.02803">
        <ele>1813.18</ele>
        <time>2017-03-11T11:28:42Z</time>
      </trkpt>
      <trkpt lat="42.74309" lon="2.02815">
        <ele>1814.15</ele>
        <time>2017-03-11T11:28:58Z</time>
      </trkpt>
      <trkpt lat="42.74308" lon="2.02828">
        <ele>1816.07</ele>
        <time>2017-03-11T11:29:11Z</time>
      </trkpt>
      <trkpt lat="42.74309" lon="2.02834">
        <ele>1816.07</ele>
        <time>2017-03-11T11:29:37Z</time>
      </trkpt>
      <trkpt lat="42.74309" lon="2.02846">
        <ele>1818.95</ele>
        <time>2017-03-11T11:30:00Z</time>
      </trkpt>
      <trkpt lat="42.74309" lon="2.02854">
        <ele>1821.35</ele>
        <time>2017-03-11T11:30:25Z</time>
      </trkpt>
      <trkpt lat="42.74302" lon="2.02861">
        <ele>1824.72</ele>
        <time>2017-03-11T11:30:46Z</time>
      </trkpt>
      <trkpt lat="42.74304" lon="2.02873">
        <ele>1827.12</ele>
        <time>2017-03-11T11:31:01Z</time>
      </trkpt>
      <trkpt lat="42.74305" lon="2.02883">
        <ele>1827.6</ele>
        <time>2017-03-11T11:31:11Z</time>
      </trkpt>
      <trkpt lat="42.74306" lon="2.02896">
        <ele>1830.49</ele>
        <time>2017-03-11T11:31:30Z</time>
      </trkpt>
      <trkpt lat="42.74305" lon="2.02908">
        <ele>1830.01</ele>
        <time>2017-03-11T11:31:47Z</time>
      </trkpt>
      <trkpt lat="42.7431" lon="2.02914">
        <ele>1827.12</ele>
        <time>2017-03-11T11:31:59Z</time>
      </trkpt>
      <trkpt lat="42.74317" lon="2.02921">
        <ele>1825.2</ele>
        <time>2017-03-11T11:32:12Z</time>
      </trkpt>
      <trkpt lat="42.74324" lon="2.0293">
        <ele>1823.28</ele>
        <time>2017-03-11T11:32:23Z</time>
      </trkpt>
      <trkpt lat="42.7433" lon="2.0294">
        <ele>1822.32</ele>
        <time>2017-03-11T11:32:33Z</time>
      </trkpt>
      <trkpt lat="42.74338" lon="2.02948">
        <ele>1818.95</ele>
        <time>2017-03-11T11:32:43Z</time>
      </trkpt>
      <trkpt lat="42.74345" lon="2.02956">
        <ele>1817.03</ele>
        <time>2017-03-11T11:32:54Z</time>
      </trkpt>
      <trkpt lat="42.74351" lon="2.02966">
        <ele>1816.07</ele>
        <time>2017-03-11T11:33:04Z</time>
      </trkpt>
      <trkpt lat="42.74357" lon="2.02975">
        <ele>1814.63</ele>
        <time>2017-03-11T11:33:15Z</time>
      </trkpt>
      <trkpt lat="42.74363" lon="2.0298">
        <ele>1813.66</ele>
        <time>2017-03-11T11:33:40Z</time>
      </trkpt>
      <trkpt lat="42.74371" lon="2.02978">
        <ele>1810.78</ele>
        <time>2017-03-11T11:33:57Z</time>
      </trkpt>
      <trkpt lat="42.74382" lon="2.0299">
        <ele>1809.34</ele>
        <time>2017-03-11T11:34:44Z</time>
      </trkpt>
      <trkpt lat="42.74395" lon="2.0299">
        <ele>1804.53</ele>
        <time>2017-03-11T11:35:27Z</time>
      </trkpt>
      <trkpt lat="42.74401" lon="2.03">
        <ele>1803.09</ele>
        <time>2017-03-11T11:35:48Z</time>
      </trkpt>
      <trkpt lat="42.74408" lon="2.03005">
        <ele>1802.13</ele>
        <time>2017-03-11T11:36:07Z</time>
      </trkpt>
      <trkpt lat="42.74416" lon="2.03007">
        <ele>1799.24</ele>
        <time>2017-03-11T11:36:39Z</time>
      </trkpt>
      <trkpt lat="42.74423" lon="2.03011">
        <ele>1797.32</ele>
        <time>2017-03-11T11:37:00Z</time>
      </trkpt>
      <trkpt lat="42.74432" lon="2.03019">
        <ele>1795.4</ele>
        <time>2017-03-11T11:37:16Z</time>
      </trkpt>
      <trkpt lat="42.74436" lon="2.03024">
        <ele>1791.55</ele>
        <time>2017-03-11T11:37:33Z</time>
      </trkpt>
      <trkpt lat="42.74443" lon="2.0303">
        <ele>1790.59</ele>
        <time>2017-03-11T11:37:47Z</time>
      </trkpt>
      <trkpt lat="42.74444" lon="2.03029">
        <ele>1789.63</ele>
        <time>2017-03-11T11:44:14Z</time>
      </trkpt>
      <trkpt lat="42.74447" lon="2.03035">
        <ele>1787.71</ele>
        <time>2017-03-11T11:45:19Z</time>
      </trkpt>
      <trkpt lat="42.74454" lon="2.03041">
        <ele>1785.79</ele>
        <time>2017-03-11T11:45:33Z</time>
      </trkpt>
      <trkpt lat="42.74461" lon="2.03049">
        <ele>1783.38</ele>
        <time>2017-03-11T11:45:47Z</time>
      </trkpt>
      <trkpt lat="42.74467" lon="2.03055">
        <ele>1780.98</ele>
        <time>2017-03-11T11:46:00Z</time>
      </trkpt>
      <trkpt lat="42.74474" lon="2.0306">
        <ele>1778.1</ele>
        <time>2017-03-11T11:46:13Z</time>
      </trkpt>
      <trkpt lat="42.7448" lon="2.03067">
        <ele>1775.69</ele>
        <time>2017-03-11T11:46:26Z</time>
      </trkpt>
      <trkpt lat="42.74491" lon="2.03071">
        <ele>1770.89</ele>
        <time>2017-03-11T11:46:40Z</time>
      </trkpt>
      <trkpt lat="42.745" lon="2.03076">
        <ele>1767.04</ele>
        <time>2017-03-11T11:46:52Z</time>
      </trkpt>
      <trkpt lat="42.7451" lon="2.03081">
        <ele>1766.08</ele>
        <time>2017-03-11T11:47:02Z</time>
      </trkpt>
      <trkpt lat="42.7452" lon="2.03087">
        <ele>1763.68</ele>
        <time>2017-03-11T11:47:11Z</time>
      </trkpt>
      <trkpt lat="42.7453" lon="2.03089">
        <ele>1763.2</ele>
        <time>2017-03-11T11:47:20Z</time>
      </trkpt>
      <trkpt lat="42.74539" lon="2.03089">
        <ele>1763.2</ele>
        <time>2017-03-11T11:47:29Z</time>
      </trkpt>
      <trkpt lat="42.74546" lon="2.03089">
        <ele>1761.27</ele>
        <time>2017-03-11T11:47:38Z</time>
      </trkpt>
      <trkpt lat="42.74556" lon="2.03087">
        <ele>1761.27</ele>
        <time>2017-03-11T11:47:48Z</time>
      </trkpt>
      <trkpt lat="42.74567" lon="2.03082">
        <ele>1761.75</ele>
        <time>2017-03-11T11:47:57Z</time>
      </trkpt>
      <trkpt lat="42.74577" lon="2.03081">
        <ele>1759.35</ele>
        <time>2017-03-11T11:48:07Z</time>
      </trkpt>
      <trkpt lat="42.74586" lon="2.03082">
        <ele>1757.43</ele>
        <time>2017-03-11T11:48:19Z</time>
      </trkpt>
      <trkpt lat="42.74595" lon="2.03084">
        <ele>1756.47</ele>
        <time>2017-03-11T11:48:30Z</time>
      </trkpt>
      <trkpt lat="42.74604" lon="2.03085">
        <ele>1755.99</ele>
        <time>2017-03-11T11:48:42Z</time>
      </trkpt>
      <trkpt lat="42.74613" lon="2.03084">
        <ele>1753.1</ele>
        <time>2017-03-11T11:49:00Z</time>
      </trkpt>
      <trkpt lat="42.74619" lon="2.0308">
        <ele>1750.22</ele>
        <time>2017-03-11T11:49:17Z</time>
      </trkpt>
      <trkpt lat="42.74625" lon="2.03073">
        <ele>1746.85</ele>
        <time>2017-03-11T11:49:34Z</time>
      </trkpt>
      <trkpt lat="42.74628" lon="2.03065">
        <ele>1744.93</ele>
        <time>2017-03-11T11:49:49Z</time>
      </trkpt>
      <trkpt lat="42.74635" lon="2.03057">
        <ele>1742.05</ele>
        <time>2017-03-11T11:50:04Z</time>
      </trkpt>
      <trkpt lat="42.74644" lon="2.03059">
        <ele>1740.6</ele>
        <time>2017-03-11T11:50:18Z</time>
      </trkpt>
      <trkpt lat="42.74653" lon="2.03058">
        <ele>1738.2</ele>
        <time>2017-03-11T11:50:48Z</time>
      </trkpt>
      <trkpt lat="42.74657" lon="2.03055">
        <ele>1733.88</ele>
        <time>2017-03-11T11:52:01Z</time>
      </trkpt>
      <trkpt lat="42.74665" lon="2.03048">
        <ele>1731.47</ele>
        <time>2017-03-11T11:52:12Z</time>
      </trkpt>
      <trkpt lat="42.74672" lon="2.03038">
        <ele>1725.22</ele>
        <time>2017-03-11T11:52:30Z</time>
      </trkpt>
      <trkpt lat="42.74679" lon="2.03025">
        <ele>1722.34</ele>
        <time>2017-03-11T11:52:48Z</time>
      </trkpt>
      <trkpt lat="42.74695" lon="2.03015">
        <ele>1714.65</ele>
        <time>2017-03-11T11:53:09Z</time>
      </trkpt>
      <trkpt lat="42.74709" lon="2.03002">
        <ele>1709.84</ele>
        <time>2017-03-11T11:53:29Z</time>
      </trkpt>
      <trkpt lat="42.7472" lon="2.0299">
        <ele>1706.48</ele>
        <time>2017-03-11T11:53:52Z</time>
      </trkpt>
      <trkpt lat="42.74729" lon="2.02982">
        <ele>1699.27</ele>
        <time>2017-03-11T11:54:04Z</time>
      </trkpt>
      <trkpt lat="42.74741" lon="2.02971">
        <ele>1698.31</ele>
        <time>2017-03-11T11:54:14Z</time>
      </trkpt>
      <trkpt lat="42.74749" lon="2.02961">
        <ele>1694.94</ele>
        <time>2017-03-11T11:54:24Z</time>
      </trkpt>
      <trkpt lat="42.74756" lon="2.02944">
        <ele>1692.54</ele>
        <time>2017-03-11T11:54:36Z</time>
      </trkpt>
      <trkpt lat="42.74761" lon="2.02934">
        <ele>1691.58</ele>
        <time>2017-03-11T11:54:49Z</time>
      </trkpt>
      <trkpt lat="42.74772" lon="2.02914">
        <ele>1687.73</ele>
        <time>2017-03-11T11:55:11Z</time>
      </trkpt>
      <trkpt lat="42.74785" lon="2.029">
        <ele>1681.96</ele>
        <time>2017-03-11T11:55:26Z</time>
      </trkpt>
      <trkpt lat="42.748" lon="2.0289">
        <ele>1678.6</ele>
        <time>2017-03-11T11:55:44Z</time>
      </trkpt>
      <trkpt lat="42.74815" lon="2.0289">
        <ele>1676.2</ele>
        <time>2017-03-11T11:55:58Z</time>
      </trkpt>
      <trkpt lat="42.74827" lon="2.02891">
        <ele>1673.79</ele>
        <time>2017-03-11T11:56:10Z</time>
      </trkpt>
      <trkpt lat="42.74839" lon="2.0289">
        <ele>1670.91</ele>
        <time>2017-03-11T11:56:20Z</time>
      </trkpt>
      <trkpt lat="42.74849" lon="2.02891">
        <ele>1668.51</ele>
        <time>2017-03-11T11:56:30Z</time>
      </trkpt>
      <trkpt lat="42.74859" lon="2.02895">
        <ele>1665.62</ele>
        <time>2017-03-11T11:56:40Z</time>
      </trkpt>
      <trkpt lat="42.74871" lon="2.02899">
        <ele>1662.26</ele>
        <time>2017-03-11T11:56:51Z</time>
      </trkpt>
      <trkpt lat="42.74882" lon="2.02906">
        <ele>1659.37</ele>
        <time>2017-03-11T11:57:02Z</time>
      </trkpt>
      <trkpt lat="42.74892" lon="2.02906">
        <ele>1657.45</ele>
        <time>2017-03-11T11:57:15Z</time>
      </trkpt>
      <trkpt lat="42.749" lon="2.02909">
        <ele>1654.09</ele>
        <time>2017-03-11T11:57:33Z</time>
      </trkpt>
      <trkpt lat="42.74909" lon="2.0291">
        <ele>1652.16</ele>
        <time>2017-03-11T11:57:58Z</time>
      </trkpt>
      <trkpt lat="42.74918" lon="2.02909">
        <ele>1650.24</ele>
        <time>2017-03-11T11:58:11Z</time>
      </trkpt>
      <trkpt lat="42.74928" lon="2.02908">
        <ele>1647.84</ele>
        <time>2017-03-11T11:58:24Z</time>
      </trkpt>
      <trkpt lat="42.74935" lon="2.02907">
        <ele>1644.47</ele>
        <time>2017-03-11T11:58:36Z</time>
      </trkpt>
      <trkpt lat="42.74943" lon="2.02906">
        <ele>1642.55</ele>
        <time>2017-03-11T11:58:48Z</time>
      </trkpt>
      <trkpt lat="42.74953" lon="2.02903">
        <ele>1640.63</ele>
        <time>2017-03-11T11:58:59Z</time>
      </trkpt>
      <trkpt lat="42.74963" lon="2.02898">
        <ele>1637.26</ele>
        <time>2017-03-11T11:59:11Z</time>
      </trkpt>
      <trkpt lat="42.7497" lon="2.02889">
        <ele>1635.82</ele>
        <time>2017-03-11T11:59:22Z</time>
      </trkpt>
      <trkpt lat="42.74979" lon="2.02885">
        <ele>1633.42</ele>
        <time>2017-03-11T11:59:32Z</time>
      </trkpt>
      <trkpt lat="42.74987" lon="2.02878">
        <ele>1631.98</ele>
        <time>2017-03-11T11:59:42Z</time>
      </trkpt>
      <trkpt lat="42.74993" lon="2.0287">
        <ele>1630.53</ele>
        <time>2017-03-11T11:59:51Z</time>
      </trkpt>
      <trkpt lat="42.75" lon="2.02861">
        <ele>1628.13</ele>
        <time>2017-03-11T12:00:00Z</time>
      </trkpt>
      <trkpt lat="42.75006" lon="2.02851">
        <ele>1627.65</ele>
        <time>2017-03-11T12:00:09Z</time>
      </trkpt>
      <trkpt lat="42.75013" lon="2.02844">
        <ele>1625.25</ele>
        <time>2017-03-11T12:00:18Z</time>
      </trkpt>
      <trkpt lat="42.75019" lon="2.02834">
        <ele>1623.8</ele>
        <time>2017-03-11T12:00:27Z</time>
      </trkpt>
      <trkpt lat="42.75022" lon="2.02824">
        <ele>1623.32</ele>
        <time>2017-03-11T12:00:35Z</time>
      </trkpt>
      <trkpt lat="42.75026" lon="2.02812">
        <ele>1621.4</ele>
        <time>2017-03-11T12:00:43Z</time>
      </trkpt>
      <trkpt lat="42.75028" lon="2.02799">
        <ele>1621.4</ele>
        <time>2017-03-11T12:00:52Z</time>
      </trkpt>
      <trkpt lat="42.75028" lon="2.02787">
        <ele>1623.8</ele>
        <time>2017-03-11T12:01:03Z</time>
      </trkpt>
      <trkpt lat="42.75032" lon="2.02778">
        <ele>1626.21</ele>
        <time>2017-03-11T12:01:15Z</time>
      </trkpt>
      <trkpt lat="42.75039" lon="2.02768">
        <ele>1627.65</ele>
        <time>2017-03-11T12:01:26Z</time>
      </trkpt>
      <trkpt lat="42.75042" lon="2.02757">
        <ele>1628.61</ele>
        <time>2017-03-11T12:01:37Z</time>
      </trkpt>
      <trkpt lat="42.75043" lon="2.02744">
        <ele>1629.09</ele>
        <time>2017-03-11T12:01:47Z</time>
      </trkpt>
      <trkpt lat="42.75045" lon="2.02731">
        <ele>1628.13</ele>
        <time>2017-03-11T12:01:57Z</time>
      </trkpt>
      <trkpt lat="42.75049" lon="2.02719">
        <ele>1627.17</ele>
        <time>2017-03-11T12:02:06Z</time>
      </trkpt>
      <trkpt lat="42.75054" lon="2.02707">
        <ele>1627.17</ele>
        <time>2017-03-11T12:02:15Z</time>
      </trkpt>
      <trkpt lat="42.75059" lon="2.02696">
        <ele>1628.13</ele>
        <time>2017-03-11T12:02:24Z</time>
      </trkpt>
      <trkpt lat="42.75063" lon="2.02685">
        <ele>1628.13</ele>
        <time>2017-03-11T12:02:32Z</time>
      </trkpt>
      <trkpt lat="42.7507" lon="2.02676">
        <ele>1627.17</ele>
        <time>2017-03-11T12:02:41Z</time>
      </trkpt>
      <trkpt lat="42.75078" lon="2.0267">
        <ele>1625.73</ele>
        <time>2017-03-11T12:02:50Z</time>
      </trkpt>
      <trkpt lat="42.75087" lon="2.02661">
        <ele>1625.73</ele>
        <time>2017-03-11T12:02:59Z</time>
      </trkpt>
      <trkpt lat="42.75094" lon="2.02651">
        <ele>1625.25</ele>
        <time>2017-03-11T12:03:09Z</time>
      </trkpt>
      <trkpt lat="42.75101" lon="2.02643">
        <ele>1624.28</ele>
        <time>2017-03-11T12:03:19Z</time>
      </trkpt>
      <trkpt lat="42.75107" lon="2.02634">
        <ele>1623.8</ele>
        <time>2017-03-11T12:03:30Z</time>
      </trkpt>
      <trkpt lat="42.75115" lon="2.02626">
        <ele>1623.32</ele>
        <time>2017-03-11T12:03:40Z</time>
      </trkpt>
      <trkpt lat="42.75122" lon="2.02619">
        <ele>1622.36</ele>
        <time>2017-03-11T12:03:50Z</time>
      </trkpt>
      <trkpt lat="42.75129" lon="2.02611">
        <ele>1621.88</ele>
        <time>2017-03-11T12:04:00Z</time>
      </trkpt>
      <trkpt lat="42.75135" lon="2.02603">
        <ele>1621.4</ele>
        <time>2017-03-11T12:04:10Z</time>
      </trkpt>
      <trkpt lat="42.75143" lon="2.02595">
        <ele>1620.92</ele>
        <time>2017-03-11T12:04:20Z</time>
      </trkpt>
      <trkpt lat="42.75151" lon="2.02589">
        <ele>1620.44</ele>
        <time>2017-03-11T12:04:31Z</time>
      </trkpt>
      <trkpt lat="42.75159" lon="2.02583">
        <ele>1620.44</ele>
        <time>2017-03-11T12:04:42Z</time>
      </trkpt>
      <trkpt lat="42.75166" lon="2.02575">
        <ele>1620.92</ele>
        <time>2017-03-11T12:04:56Z</time>
      </trkpt>
      <trkpt lat="42.75174" lon="2.02567">
        <ele>1621.88</ele>
        <time>2017-03-11T12:05:08Z</time>
      </trkpt>
      <trkpt lat="42.75178" lon="2.02556">
        <ele>1623.8</ele>
        <time>2017-03-11T12:05:20Z</time>
      </trkpt>
      <trkpt lat="42.75184" lon="2.02547">
        <ele>1625.25</ele>
        <time>2017-03-11T12:05:34Z</time>
      </trkpt>
      <trkpt lat="42.7519" lon="2.02537">
        <ele>1627.65</ele>
        <time>2017-03-11T12:05:51Z</time>
      </trkpt>
      <trkpt lat="42.752" lon="2.02533">
        <ele>1629.09</ele>
        <time>2017-03-11T12:06:06Z</time>
      </trkpt>
      <trkpt lat="42.75209" lon="2.02529">
        <ele>1631.49</ele>
        <time>2017-03-11T12:06:18Z</time>
      </trkpt>
      <trkpt lat="42.75217" lon="2.02525">
        <ele>1633.42</ele>
        <time>2017-03-11T12:06:31Z</time>
      </trkpt>
      <trkpt lat="42.75226" lon="2.02526">
        <ele>1634.38</ele>
        <time>2017-03-11T12:06:42Z</time>
      </trkpt>
      <trkpt lat="42.75235" lon="2.02527">
        <ele>1635.34</ele>
        <time>2017-03-11T12:06:59Z</time>
      </trkpt>
      <trkpt lat="42.75242" lon="2.02534">
        <ele>1636.78</ele>
        <time>2017-03-11T12:07:13Z</time>
      </trkpt>
      <trkpt lat="42.75251" lon="2.02535">
        <ele>1638.7</ele>
        <time>2017-03-11T12:07:26Z</time>
      </trkpt>
      <trkpt lat="42.75259" lon="2.02533">
        <ele>1640.63</ele>
        <time>2017-03-11T12:07:39Z</time>
      </trkpt>
      <trkpt lat="42.75265" lon="2.02543">
        <ele>1640.63</ele>
        <time>2017-03-11T12:07:50Z</time>
      </trkpt>
      <trkpt lat="42.75273" lon="2.02537">
        <ele>1642.07</ele>
        <time>2017-03-11T12:08:04Z</time>
      </trkpt>
      <trkpt lat="42.75276" lon="2.02526">
        <ele>1643.51</ele>
        <time>2017-03-11T12:08:16Z</time>
      </trkpt>
      <trkpt lat="42.75284" lon="2.0252">
        <ele>1645.91</ele>
        <time>2017-03-11T12:08:32Z</time>
      </trkpt>
      <trkpt lat="42.75293" lon="2.02516">
        <ele>1647.84</ele>
        <time>2017-03-11T12:08:48Z</time>
      </trkpt>
      <trkpt lat="42.75299" lon="2.02514">
        <ele>1650.72</ele>
        <time>2017-03-11T12:09:08Z</time>
      </trkpt>
      <trkpt lat="42.75306" lon="2.02509">
        <ele>1654.57</ele>
        <time>2017-03-11T12:09:30Z</time>
      </trkpt>
      <trkpt lat="42.75314" lon="2.02516">
        <ele>1656.97</ele>
        <time>2017-03-11T12:09:46Z</time>
      </trkpt>
      <trkpt lat="42.75322" lon="2.02524">
        <ele>1658.89</ele>
        <time>2017-03-11T12:10:03Z</time>
      </trkpt>
      <trkpt lat="42.7533" lon="2.02532">
        <ele>1660.81</ele>
        <time>2017-03-11T12:10:19Z</time>
      </trkpt>
      <trkpt lat="42.75338" lon="2.0254">
        <ele>1663.7</ele>
        <time>2017-03-11T12:10:37Z</time>
      </trkpt>
      <trkpt lat="42.75348" lon="2.02546">
        <ele>1667.06</ele>
        <time>2017-03-11T12:10:56Z</time>
      </trkpt>
      <trkpt lat="42.75354" lon="2.02552">
        <ele>1668.51</ele>
        <time>2017-03-11T12:11:11Z</time>
      </trkpt>
      <trkpt lat="42.75362" lon="2.02558">
        <ele>1670.43</ele>
        <time>2017-03-11T12:11:29Z</time>
      </trkpt>
      <trkpt lat="42.75373" lon="2.02564">
        <ele>1673.79</ele>
        <time>2017-03-11T12:11:49Z</time>
      </trkpt>
      <trkpt lat="42.75379" lon="2.02563">
        <ele>1677.64</ele>
        <time>2017-03-11T12:12:11Z</time>
      </trkpt>
      <trkpt lat="42.75387" lon="2.02556">
        <ele>1681.96</ele>
        <time>2017-03-11T12:12:38Z</time>
      </trkpt>
      <trkpt lat="42.75394" lon="2.02551">
        <ele>1686.29</ele>
        <time>2017-03-11T12:13:02Z</time>
      </trkpt>
      <trkpt lat="42.75401" lon="2.02551">
        <ele>1689.17</ele>
        <time>2017-03-11T12:13:26Z</time>
      </trkpt>
      <trkpt lat="42.75408" lon="2.02546">
        <ele>1690.14</ele>
        <time>2017-03-11T12:13:53Z</time>
      </trkpt>
      <trkpt lat="42.75415" lon="2.02543">
        <ele>1694.94</ele>
        <time>2017-03-11T12:14:19Z</time>
      </trkpt>
      <trkpt lat="42.75422" lon="2.02536">
        <ele>1699.75</ele>
        <time>2017-03-11T12:14:43Z</time>
      </trkpt>
      <trkpt lat="42.7543" lon="2.02535">
        <ele>1702.63</ele>
        <time>2017-03-11T12:15:08Z</time>
      </trkpt>
      <trkpt lat="42.75436" lon="2.02535">
        <ele>1704.55</ele>
        <time>2017-03-11T12:15:33Z</time>
      </trkpt>
      <trkpt lat="42.75443" lon="2.02529">
        <ele>1707.92</ele>
        <time>2017-03-11T12:15:54Z</time>
      </trkpt>
      <trkpt lat="42.75451" lon="2.02526">
        <ele>1706.96</ele>
        <time>2017-03-11T12:16:20Z</time>
      </trkpt>
      <trkpt lat="42.75454" lon="2.02525">
        <ele>1709.36</ele>
        <time>2017-03-11T12:16:43Z</time>
      </trkpt>
      <trkpt lat="42.75462" lon="2.0253">
        <ele>1717.05</ele>
        <time>2017-03-11T12:17:05Z</time>
      </trkpt>
      <trkpt lat="42.7547" lon="2.02535">
        <ele>1719.46</ele>
        <time>2017-03-11T12:17:28Z</time>
      </trkpt>
      <trkpt lat="42.75473" lon="2.02527">
        <ele>1720.9</ele>
        <time>2017-03-11T12:17:49Z</time>
      </trkpt>
      <trkpt lat="42.75479" lon="2.02515">
        <ele>1723.3</ele>
        <time>2017-03-11T12:18:15Z</time>
      </trkpt>
      <trkpt lat="42.75484" lon="2.02506">
        <ele>1726.67</ele>
        <time>2017-03-11T12:18:42Z</time>
      </trkpt>
      <trkpt lat="42.7549" lon="2.02503">
        <ele>1730.03</ele>
        <time>2017-03-11T12:19:10Z</time>
      </trkpt>
      <trkpt lat="42.75497" lon="2.02503">
        <ele>1733.88</ele>
        <time>2017-03-11T12:19:33Z</time>
      </trkpt>
      <trkpt lat="42.75503" lon="2.02494">
        <ele>1737.24</ele>
        <time>2017-03-11T12:20:00Z</time>
      </trkpt>
      <trkpt lat="42.75508" lon="2.02492">
        <ele>1740.6</ele>
        <time>2017-03-11T12:20:26Z</time>
      </trkpt>
      <trkpt lat="42.75515" lon="2.02489">
        <ele>1744.93</ele>
        <time>2017-03-11T12:20:52Z</time>
      </trkpt>
      <trkpt lat="42.75522" lon="2.02485">
        <ele>1745.89</ele>
        <time>2017-03-11T12:21:17Z</time>
      </trkpt>
      <trkpt lat="42.75529" lon="2.02482">
        <ele>1751.18</ele>
        <time>2017-03-11T12:21:43Z</time>
      </trkpt>
      <trkpt lat="42.75535" lon="2.02485">
        <ele>1754.54</ele>
        <time>2017-03-11T12:22:07Z</time>
      </trkpt>
      <trkpt lat="42.75542" lon="2.0248">
        <ele>1756.47</ele>
        <time>2017-03-11T12:22:31Z</time>
      </trkpt>
      <trkpt lat="42.75549" lon="2.0248">
        <ele>1761.27</ele>
        <time>2017-03-11T12:22:57Z</time>
      </trkpt>
      <trkpt lat="42.75554" lon="2.02473">
        <ele>1763.2</ele>
        <time>2017-03-11T12:23:23Z</time>
      </trkpt>
      <trkpt lat="42.75561" lon="2.02477">
        <ele>1767.04</ele>
        <time>2017-03-11T12:23:46Z</time>
      </trkpt>
      <trkpt lat="42.75565" lon="2.02466">
        <ele>1769.44</ele>
        <time>2017-03-11T12:24:11Z</time>
      </trkpt>
      <trkpt lat="42.75572" lon="2.0246">
        <ele>1772.81</ele>
        <time>2017-03-11T12:24:36Z</time>
      </trkpt>
      <trkpt lat="42.75578" lon="2.02455">
        <ele>1775.69</ele>
        <time>2017-03-11T12:24:59Z</time>
      </trkpt>
      <trkpt lat="42.75585" lon="2.02457">
        <ele>1779.06</ele>
        <time>2017-03-11T12:25:20Z</time>
      </trkpt>
      <trkpt lat="42.7559" lon="2.02449">
        <ele>1778.1</ele>
        <time>2017-03-11T12:25:39Z</time>
      </trkpt>
      <trkpt lat="42.75597" lon="2.0245">
        <ele>1783.38</ele>
        <time>2017-03-11T12:26:03Z</time>
      </trkpt>
      <trkpt lat="42.75606" lon="2.02452">
        <ele>1784.34</ele>
        <time>2017-03-11T12:26:23Z</time>
      </trkpt>
      <trkpt lat="42.75614" lon="2.02454">
        <ele>1785.79</ele>
        <time>2017-03-11T12:26:43Z</time>
      </trkpt>
      <trkpt lat="42.75623" lon="2.02454">
        <ele>1790.11</ele>
        <time>2017-03-11T12:27:07Z</time>
      </trkpt>
      <trkpt lat="42.7563" lon="2.02448">
        <ele>1792.52</ele>
        <time>2017-03-11T12:27:26Z</time>
      </trkpt>
      <trkpt lat="42.75636" lon="2.02442">
        <ele>1793.48</ele>
        <time>2017-03-11T12:27:37Z</time>
      </trkpt>
      <trkpt lat="42.75642" lon="2.02435">
        <ele>1793</ele>
        <time>2017-03-11T12:27:52Z</time>
      </trkpt>
      <trkpt lat="42.75647" lon="2.02425">
        <ele>1794.92</ele>
        <time>2017-03-11T12:28:10Z</time>
      </trkpt>
      <trkpt lat="42.7565" lon="2.02413">
        <ele>1796.84</ele>
        <time>2017-03-11T12:28:28Z</time>
      </trkpt>
      <trkpt lat="42.75651" lon="2.02402">
        <ele>1798.76</ele>
        <time>2017-03-11T12:28:41Z</time>
      </trkpt>
      <trkpt lat="42.75651" lon="2.02391">
        <ele>1798.76</ele>
        <time>2017-03-11T12:28:53Z</time>
      </trkpt>
      <trkpt lat="42.7565" lon="2.02383">
        <ele>1799.73</ele>
        <time>2017-03-11T12:29:03Z</time>
      </trkpt>
      <trkpt lat="42.75648" lon="2.0237">
        <ele>1800.69</ele>
        <time>2017-03-11T12:29:21Z</time>
      </trkpt>
      <trkpt lat="42.75647" lon="2.02355">
        <ele>1801.17</ele>
        <time>2017-03-11T12:29:36Z</time>
      </trkpt>
      <trkpt lat="42.75646" lon="2.02346">
        <ele>1802.61</ele>
        <time>2017-03-11T12:29:48Z</time>
      </trkpt>
      <trkpt lat="42.75645" lon="2.02335">
        <ele>1804.53</ele>
        <time>2017-03-11T12:30:03Z</time>
      </trkpt>
      <trkpt lat="42.75645" lon="2.0232">
        <ele>1806.45</ele>
        <time>2017-03-11T12:30:23Z</time>
      </trkpt>
      <trkpt lat="42.75645" lon="2.02307">
        <ele>1806.94</ele>
        <time>2017-03-11T12:30:36Z</time>
      </trkpt>
      <trkpt lat="42.75645" lon="2.02297">
        <ele>1808.38</ele>
        <time>2017-03-11T12:30:48Z</time>
      </trkpt>
      <trkpt lat="42.75645" lon="2.02286">
        <ele>1809.82</ele>
        <time>2017-03-11T12:31:03Z</time>
      </trkpt>
      <trkpt lat="42.75645" lon="2.02275">
        <ele>1811.26</ele>
        <time>2017-03-11T12:31:14Z</time>
      </trkpt>
      <trkpt lat="42.75644" lon="2.02266">
        <ele>1810.3</ele>
        <time>2017-03-11T12:31:27Z</time>
      </trkpt>
      <trkpt lat="42.75643" lon="2.02254">
        <ele>1813.66</ele>
        <time>2017-03-11T12:31:45Z</time>
      </trkpt>
      <trkpt lat="42.75643" lon="2.02245">
        <ele>1814.15</ele>
        <time>2017-03-11T12:31:58Z</time>
      </trkpt>
      <trkpt lat="42.75643" lon="2.02232">
        <ele>1816.55</ele>
        <time>2017-03-11T12:32:13Z</time>
      </trkpt>
      <trkpt lat="42.75643" lon="2.02219">
        <ele>1817.51</ele>
        <time>2017-03-11T12:32:29Z</time>
      </trkpt>
      <trkpt lat="42.75642" lon="2.02209">
        <ele>1818.47</ele>
        <time>2017-03-11T12:32:41Z</time>
      </trkpt>
      <trkpt lat="42.7564" lon="2.02199">
        <ele>1818.95</ele>
        <time>2017-03-11T12:34:53Z</time>
      </trkpt>
      <trkpt lat="42.75639" lon="2.02186">
        <ele>1821.35</ele>
        <time>2017-03-11T12:35:04Z</time>
      </trkpt>
      <trkpt lat="42.75639" lon="2.02173">
        <ele>1821.84</ele>
        <time>2017-03-11T12:35:14Z</time>
      </trkpt>
      <trkpt lat="42.75639" lon="2.02162">
        <ele>1821.84</ele>
        <time>2017-03-11T12:35:24Z</time>
      </trkpt>
      <trkpt lat="42.75639" lon="2.02149">
        <ele>1822.32</ele>
        <time>2017-03-11T12:35:35Z</time>
      </trkpt>
      <trkpt lat="42.7564" lon="2.02136">
        <ele>1824.24</ele>
        <time>2017-03-11T12:35:46Z</time>
      </trkpt>
      <trkpt lat="42.75639" lon="2.02123">
        <ele>1825.2</ele>
        <time>2017-03-11T12:35:57Z</time>
      </trkpt>
      <trkpt lat="42.75639" lon="2.02111">
        <ele>1826.16</ele>
        <time>2017-03-11T12:36:08Z</time>
      </trkpt>
      <trkpt lat="42.75638" lon="2.02098">
        <ele>1826.16</ele>
        <time>2017-03-11T12:36:20Z</time>
      </trkpt>
      <trkpt lat="42.75638" lon="2.02086">
        <ele>1828.08</ele>
        <time>2017-03-11T12:36:33Z</time>
      </trkpt>
      <trkpt lat="42.75638" lon="2.02073">
        <ele>1830.49</ele>
        <time>2017-03-11T12:36:47Z</time>
      </trkpt>
      <trkpt lat="42.7564" lon="2.02062">
        <ele>1831.93</ele>
        <time>2017-03-11T12:36:59Z</time>
      </trkpt>
      <trkpt lat="42.7564" lon="2.02049">
        <ele>1833.37</ele>
        <time>2017-03-11T12:37:13Z</time>
      </trkpt>
      <trkpt lat="42.75641" lon="2.02038">
        <ele>1834.81</ele>
        <time>2017-03-11T12:37:27Z</time>
      </trkpt>
      <trkpt lat="42.7564" lon="2.02025">
        <ele>1835.77</ele>
        <time>2017-03-11T12:37:40Z</time>
      </trkpt>
      <trkpt lat="42.7564" lon="2.02013">
        <ele>1837.7</ele>
        <time>2017-03-11T12:37:53Z</time>
      </trkpt>
      <trkpt lat="42.75639" lon="2.02001">
        <ele>1838.18</ele>
        <time>2017-03-11T12:38:05Z</time>
      </trkpt>
      <trkpt lat="42.75639" lon="2.01988">
        <ele>1838.18</ele>
        <time>2017-03-11T12:38:16Z</time>
      </trkpt>
      <trkpt lat="42.7564" lon="2.01976">
        <ele>1839.62</ele>
        <time>2017-03-11T12:38:28Z</time>
      </trkpt>
      <trkpt lat="42.75641" lon="2.01964">
        <ele>1842.5</ele>
        <time>2017-03-11T12:38:43Z</time>
      </trkpt>
      <trkpt lat="42.75644" lon="2.01952">
        <ele>1842.98</ele>
        <time>2017-03-11T12:38:56Z</time>
      </trkpt>
      <trkpt lat="42.75642" lon="2.01939">
        <ele>1843.95</ele>
        <time>2017-03-11T12:39:08Z</time>
      </trkpt>
      <trkpt lat="42.75645" lon="2.01928">
        <ele>1844.91</ele>
        <time>2017-03-11T12:39:19Z</time>
      </trkpt>
      <trkpt lat="42.75649" lon="2.01917">
        <ele>1845.87</ele>
        <time>2017-03-11T12:39:32Z</time>
      </trkpt>
      <trkpt lat="42.75654" lon="2.01908">
        <ele>1847.79</ele>
        <time>2017-03-11T12:39:48Z</time>
      </trkpt>
      <trkpt lat="42.75665" lon="2.01904">
        <ele>1849.71</ele>
        <time>2017-03-11T12:40:10Z</time>
      </trkpt>
      <trkpt lat="42.75668" lon="2.01892">
        <ele>1852.12</ele>
        <time>2017-03-11T12:40:26Z</time>
      </trkpt>
      <trkpt lat="42.7567" lon="2.01883">
        <ele>1854.04</ele>
        <time>2017-03-11T12:40:40Z</time>
      </trkpt>
      <trkpt lat="42.75673" lon="2.01872">
        <ele>1854.52</ele>
        <time>2017-03-11T12:40:56Z</time>
      </trkpt>
      <trkpt lat="42.75675" lon="2.01861">
        <ele>1856.44</ele>
        <time>2017-03-11T12:41:10Z</time>
      </trkpt>
      <trkpt lat="42.75678" lon="2.01851">
        <ele>1857.89</ele>
        <time>2017-03-11T12:41:27Z</time>
      </trkpt>
      <trkpt lat="42.75683" lon="2.01844">
        <ele>1860.29</ele>
        <time>2017-03-11T12:41:49Z</time>
      </trkpt>
      <trkpt lat="42.75689" lon="2.01834">
        <ele>1862.21</ele>
        <time>2017-03-11T12:42:12Z</time>
      </trkpt>
      <trkpt lat="42.75693" lon="2.01825">
        <ele>1865.58</ele>
        <time>2017-03-11T12:42:34Z</time>
      </trkpt>
      <trkpt lat="42.75699" lon="2.01817">
        <ele>1867.98</ele>
        <time>2017-03-11T12:43:21Z</time>
      </trkpt>
      <trkpt lat="42.75704" lon="2.01811">
        <ele>1870.86</ele>
        <time>2017-03-11T12:44:11Z</time>
      </trkpt>
      <trkpt lat="42.75711" lon="2.01804">
        <ele>1873.75</ele>
        <time>2017-03-11T12:44:36Z</time>
      </trkpt>
      <trkpt lat="42.75719" lon="2.018">
        <ele>1875.19</ele>
        <time>2017-03-11T12:44:55Z</time>
      </trkpt>
      <trkpt lat="42.75723" lon="2.0179">
        <ele>1878.07</ele>
        <time>2017-03-11T12:45:18Z</time>
      </trkpt>
      <trkpt lat="42.7573" lon="2.01782">
        <ele>1880.48</ele>
        <time>2017-03-11T12:45:40Z</time>
      </trkpt>
      <trkpt lat="42.75736" lon="2.01776">
        <ele>1884.32</ele>
        <time>2017-03-11T12:46:05Z</time>
      </trkpt>
      <trkpt lat="42.75743" lon="2.01769">
        <ele>1886.24</ele>
        <time>2017-03-11T12:46:27Z</time>
      </trkpt>
      <trkpt lat="42.7575" lon="2.01766">
        <ele>1888.17</ele>
        <time>2017-03-11T12:46:45Z</time>
      </trkpt>
      <trkpt lat="42.75756" lon="2.01766">
        <ele>1890.57</ele>
        <time>2017-03-11T12:47:06Z</time>
      </trkpt>
      <trkpt lat="42.75766" lon="2.01767">
        <ele>1892.97</ele>
        <time>2017-03-11T12:47:31Z</time>
      </trkpt>
      <trkpt lat="42.75771" lon="2.01768">
        <ele>1894.42</ele>
        <time>2017-03-11T12:48:40Z</time>
      </trkpt>
      <trkpt lat="42.75778" lon="2.01769">
        <ele>1895.38</ele>
        <time>2017-03-11T12:48:57Z</time>
      </trkpt>
      <trkpt lat="42.7579" lon="2.01773">
        <ele>1898.74</ele>
        <time>2017-03-11T12:49:23Z</time>
      </trkpt>
      <trkpt lat="42.75796" lon="2.01781">
        <ele>1902.11</ele>
        <time>2017-03-11T12:49:49Z</time>
      </trkpt>
      <trkpt lat="42.75801" lon="2.0178">
        <ele>1904.51</ele>
        <time>2017-03-11T12:50:07Z</time>
      </trkpt>
      <trkpt lat="42.75807" lon="2.01785">
        <ele>1906.43</ele>
        <time>2017-03-11T12:50:30Z</time>
      </trkpt>
      <trkpt lat="42.75814" lon="2.01785">
        <ele>1909.8</ele>
        <time>2017-03-11T12:51:03Z</time>
      </trkpt>
      <trkpt lat="42.75819" lon="2.01783">
        <ele>1912.68</ele>
        <time>2017-03-11T12:51:24Z</time>
      </trkpt>
      <trkpt lat="42.75824" lon="2.01785">
        <ele>1915.08</ele>
        <time>2017-03-11T12:51:48Z</time>
      </trkpt>
      <trkpt lat="42.75829" lon="2.01777">
        <ele>1918.45</ele>
        <time>2017-03-11T12:52:11Z</time>
      </trkpt>
      <trkpt lat="42.75835" lon="2.01774">
        <ele>1920.85</ele>
        <time>2017-03-11T12:52:35Z</time>
      </trkpt>
      <trkpt lat="42.75841" lon="2.01773">
        <ele>1923.74</ele>
        <time>2017-03-11T12:53:03Z</time>
      </trkpt>
      <trkpt lat="42.75848" lon="2.01768">
        <ele>1928.54</ele>
        <time>2017-03-11T12:53:27Z</time>
      </trkpt>
      <trkpt lat="42.75855" lon="2.01762">
        <ele>1929.5</ele>
        <time>2017-03-11T12:53:56Z</time>
      </trkpt>
      <trkpt lat="42.75861" lon="2.01761">
        <ele>1932.87</ele>
        <time>2017-03-11T12:54:31Z</time>
      </trkpt>
      <trkpt lat="42.75868" lon="2.01754">
        <ele>1935.27</ele>
        <time>2017-03-11T12:54:55Z</time>
      </trkpt>
      <trkpt lat="42.75874" lon="2.0175">
        <ele>1937.67</ele>
        <time>2017-03-11T12:55:17Z</time>
      </trkpt>
      <trkpt lat="42.7588" lon="2.01742">
        <ele>1939.12</ele>
        <time>2017-03-11T12:55:43Z</time>
      </trkpt>
      <trkpt lat="42.75883" lon="2.01732">
        <ele>1939.6</ele>
        <time>2017-03-11T12:56:19Z</time>
      </trkpt>
      <trkpt lat="42.7589" lon="2.01722">
        <ele>1941.52</ele>
        <time>2017-03-11T12:56:38Z</time>
      </trkpt>
      <trkpt lat="42.75899" lon="2.0172">
        <ele>1943.92</ele>
        <time>2017-03-11T12:56:55Z</time>
      </trkpt>
      <trkpt lat="42.75907" lon="2.01715">
        <ele>1945.85</ele>
        <time>2017-03-11T12:57:10Z</time>
      </trkpt>
      <trkpt lat="42.75913" lon="2.01712">
        <ele>1947.77</ele>
        <time>2017-03-11T12:57:25Z</time>
      </trkpt>
      <trkpt lat="42.75921" lon="2.01711">
        <ele>1949.69</ele>
        <time>2017-03-11T12:57:42Z</time>
      </trkpt>
      <trkpt lat="42.75929" lon="2.0171">
        <ele>1952.09</ele>
        <time>2017-03-11T12:58:02Z</time>
      </trkpt>
      <trkpt lat="42.75936" lon="2.01711">
        <ele>1954.02</ele>
        <time>2017-03-11T12:58:35Z</time>
      </trkpt>
      <trkpt lat="42.75945" lon="2.0171">
        <ele>1955.94</ele>
        <time>2017-03-11T12:58:54Z</time>
      </trkpt>
      <trkpt lat="42.7595" lon="2.01715">
        <ele>1957.86</ele>
        <time>2017-03-11T12:59:13Z</time>
      </trkpt>
      <trkpt lat="42.75959" lon="2.01715">
        <ele>1959.3</ele>
        <time>2017-03-11T12:59:31Z</time>
      </trkpt>
      <trkpt lat="42.75964" lon="2.01722">
        <ele>1960.75</ele>
        <time>2017-03-11T12:59:49Z</time>
      </trkpt>
      <trkpt lat="42.75969" lon="2.01728">
        <ele>1963.15</ele>
        <time>2017-03-11T13:00:10Z</time>
      </trkpt>
      <trkpt lat="42.75975" lon="2.01734">
        <ele>1966.03</ele>
        <time>2017-03-11T13:00:44Z</time>
      </trkpt>
      <trkpt lat="42.75984" lon="2.01733">
        <ele>1969.4</ele>
        <time>2017-03-11T13:01:10Z</time>
      </trkpt>
      <trkpt lat="42.75991" lon="2.01738">
        <ele>1972.28</ele>
        <time>2017-03-11T13:01:31Z</time>
      </trkpt>
      <trkpt lat="42.75997" lon="2.01741">
        <ele>1974.2</ele>
        <time>2017-03-11T13:01:53Z</time>
      </trkpt>
      <trkpt lat="42.75995" lon="2.01742">
        <ele>1972.76</ele>
        <time>2017-03-11T13:02:53Z</time>
      </trkpt>
      <trkpt lat="42.75998" lon="2.01741">
        <ele>1973.72</ele>
        <time>2017-03-11T13:38:03Z</time>
      </trkpt>
      <trkpt lat="42.75997" lon="2.01742">
        <ele>1973.72</ele>
        <time>2017-03-11T13:41:20Z</time>
      </trkpt>
      <trkpt lat="42.75996" lon="2.01738">
        <ele>1973.72</ele>
        <time>2017-03-11T13:42:44Z</time>
      </trkpt>
      <trkpt lat="42.75992" lon="2.01728">
        <ele>1971.32</ele>
        <time>2017-03-11T13:42:57Z</time>
      </trkpt>
      <trkpt lat="42.75984" lon="2.01724">
        <ele>1969.4</ele>
        <time>2017-03-11T13:43:11Z</time>
      </trkpt>
      <trkpt lat="42.7598" lon="2.01713">
        <ele>1966.51</ele>
        <time>2017-03-11T13:43:26Z</time>
      </trkpt>
      <trkpt lat="42.7598" lon="2.01701">
        <ele>1963.63</ele>
        <time>2017-03-11T13:43:40Z</time>
      </trkpt>
      <trkpt lat="42.75978" lon="2.01689">
        <ele>1961.23</ele>
        <time>2017-03-11T13:43:54Z</time>
      </trkpt>
      <trkpt lat="42.75976" lon="2.01678">
        <ele>1957.86</ele>
        <time>2017-03-11T13:44:08Z</time>
      </trkpt>
      <trkpt lat="42.75968" lon="2.01674">
        <ele>1954.98</ele>
        <time>2017-03-11T13:44:21Z</time>
      </trkpt>
      <trkpt lat="42.75961" lon="2.01668">
        <ele>1952.09</ele>
        <time>2017-03-11T13:44:34Z</time>
      </trkpt>
      <trkpt lat="42.75952" lon="2.01669">
        <ele>1950.17</ele>
        <time>2017-03-11T13:44:46Z</time>
      </trkpt>
      <trkpt lat="42.75942" lon="2.01669">
        <ele>1948.25</ele>
        <time>2017-03-11T13:44:59Z</time>
      </trkpt>
      <trkpt lat="42.75933" lon="2.01669">
        <ele>1946.81</ele>
        <time>2017-03-11T13:45:11Z</time>
      </trkpt>
      <trkpt lat="42.75925" lon="2.01667">
        <ele>1943.92</ele>
        <time>2017-03-11T13:45:24Z</time>
      </trkpt>
      <trkpt lat="42.75918" lon="2.01662">
        <ele>1941.52</ele>
        <time>2017-03-11T13:45:38Z</time>
      </trkpt>
      <trkpt lat="42.75908" lon="2.01664">
        <ele>1940.08</ele>
        <time>2017-03-11T13:45:50Z</time>
      </trkpt>
      <trkpt lat="42.75899" lon="2.01665">
        <ele>1938.16</ele>
        <time>2017-03-11T13:46:04Z</time>
      </trkpt>
      <trkpt lat="42.7589" lon="2.01667">
        <ele>1935.75</ele>
        <time>2017-03-11T13:46:19Z</time>
      </trkpt>
      <trkpt lat="42.75882" lon="2.01668">
        <ele>1932.39</ele>
        <time>2017-03-11T13:47:21Z</time>
      </trkpt>
      <trkpt lat="42.75874" lon="2.01666">
        <ele>1929.5</ele>
        <time>2017-03-11T13:47:36Z</time>
      </trkpt>
      <trkpt lat="42.75865" lon="2.0167">
        <ele>1927.1</ele>
        <time>2017-03-11T13:47:49Z</time>
      </trkpt>
      <trkpt lat="42.75857" lon="2.0167">
        <ele>1924.22</ele>
        <time>2017-03-11T13:48:04Z</time>
      </trkpt>
      <trkpt lat="42.75849" lon="2.01671">
        <ele>1919.89</ele>
        <time>2017-03-11T13:48:18Z</time>
      </trkpt>
      <trkpt lat="42.7584" lon="2.01671">
        <ele>1918.45</ele>
        <time>2017-03-11T13:48:30Z</time>
      </trkpt>
      <trkpt lat="42.75832" lon="2.01668">
        <ele>1915.56</ele>
        <time>2017-03-11T13:48:42Z</time>
      </trkpt>
      <trkpt lat="42.75823" lon="2.01668">
        <ele>1914.12</ele>
        <time>2017-03-11T13:48:54Z</time>
      </trkpt>
      <trkpt lat="42.75815" lon="2.01668">
        <ele>1911.24</ele>
        <time>2017-03-11T13:49:07Z</time>
      </trkpt>
      <trkpt lat="42.75805" lon="2.01668">
        <ele>1908.35</ele>
        <time>2017-03-11T13:49:21Z</time>
      </trkpt>
      <trkpt lat="42.75797" lon="2.0167">
        <ele>1905.47</ele>
        <time>2017-03-11T13:49:34Z</time>
      </trkpt>
      <trkpt lat="42.75788" lon="2.0167">
        <ele>1903.55</ele>
        <time>2017-03-11T13:49:47Z</time>
      </trkpt>
      <trkpt lat="42.75779" lon="2.0167">
        <ele>1901.63</ele>
        <time>2017-03-11T13:49:57Z</time>
      </trkpt>
      <trkpt lat="42.75771" lon="2.01671">
        <ele>1901.14</ele>
        <time>2017-03-11T13:50:07Z</time>
      </trkpt>
      <trkpt lat="42.75762" lon="2.01673">
        <ele>1899.22</ele>
        <time>2017-03-11T13:50:17Z</time>
      </trkpt>
      <trkpt lat="42.75752" lon="2.01672">
        <ele>1897.78</ele>
        <time>2017-03-11T13:50:28Z</time>
      </trkpt>
      <trkpt lat="42.75743" lon="2.01672">
        <ele>1895.86</ele>
        <time>2017-03-11T13:50:38Z</time>
      </trkpt>
      <trkpt lat="42.75733" lon="2.01672">
        <ele>1893.45</ele>
        <time>2017-03-11T13:50:51Z</time>
      </trkpt>
      <trkpt lat="42.75724" lon="2.01674">
        <ele>1890.09</ele>
        <time>2017-03-11T13:51:04Z</time>
      </trkpt>
      <trkpt lat="42.75716" lon="2.01676">
        <ele>1887.21</ele>
        <time>2017-03-11T13:51:17Z</time>
      </trkpt>
      <trkpt lat="42.75707" lon="2.01679">
        <ele>1884.8</ele>
        <time>2017-03-11T13:51:30Z</time>
      </trkpt>
      <trkpt lat="42.75699" lon="2.01679">
        <ele>1881.44</ele>
        <time>2017-03-11T13:51:44Z</time>
      </trkpt>
      <trkpt lat="42.75692" lon="2.01677">
        <ele>1879.51</ele>
        <time>2017-03-11T13:51:58Z</time>
      </trkpt>
      <trkpt lat="42.75683" lon="2.01681">
        <ele>1876.15</ele>
        <time>2017-03-11T13:52:13Z</time>
      </trkpt>
      <trkpt lat="42.75676" lon="2.0168">
        <ele>1873.27</ele>
        <time>2017-03-11T13:52:28Z</time>
      </trkpt>
      <trkpt lat="42.7567" lon="2.01682">
        <ele>1870.38</ele>
        <time>2017-03-11T13:52:43Z</time>
      </trkpt>
      <trkpt lat="42.75662" lon="2.01681">
        <ele>1868.46</ele>
        <time>2017-03-11T13:52:56Z</time>
      </trkpt>
      <trkpt lat="42.75655" lon="2.01674">
        <ele>1866.54</ele>
        <time>2017-03-11T13:53:13Z</time>
      </trkpt>
      <trkpt lat="42.75647" lon="2.01677">
        <ele>1863.17</ele>
        <time>2017-03-11T13:53:31Z</time>
      </trkpt>
      <trkpt lat="42.75641" lon="2.01674">
        <ele>1859.81</ele>
        <time>2017-03-11T13:53:46Z</time>
      </trkpt>
      <trkpt lat="42.75633" lon="2.01681">
        <ele>1856.92</ele>
        <time>2017-03-11T13:54:01Z</time>
      </trkpt>
      <trkpt lat="42.75627" lon="2.01682">
        <ele>1854.04</ele>
        <time>2017-03-11T13:54:16Z</time>
      </trkpt>
      <trkpt lat="42.75622" lon="2.01679">
        <ele>1851.16</ele>
        <time>2017-03-11T13:54:32Z</time>
      </trkpt>
      <trkpt lat="42.75616" lon="2.01682">
        <ele>1847.79</ele>
        <time>2017-03-11T13:54:48Z</time>
      </trkpt>
      <trkpt lat="42.75609" lon="2.01684">
        <ele>1846.35</ele>
        <time>2017-03-11T13:55:02Z</time>
      </trkpt>
      <trkpt lat="42.75604" lon="2.01674">
        <ele>1843.95</ele>
        <time>2017-03-11T13:55:17Z</time>
      </trkpt>
      <trkpt lat="42.75596" lon="2.01677">
        <ele>1841.06</ele>
        <time>2017-03-11T13:55:31Z</time>
      </trkpt>
      <trkpt lat="42.75588" lon="2.0168">
        <ele>1838.18</ele>
        <time>2017-03-11T13:55:45Z</time>
      </trkpt>
      <trkpt lat="42.7558" lon="2.01685">
        <ele>1836.26</ele>
        <time>2017-03-11T13:55:59Z</time>
      </trkpt>
      <trkpt lat="42.75576" lon="2.01677">
        <ele>1834.33</ele>
        <time>2017-03-11T13:56:13Z</time>
      </trkpt>
      <trkpt lat="42.75568" lon="2.01679">
        <ele>1830.49</ele>
        <time>2017-03-11T13:56:28Z</time>
      </trkpt>
      <trkpt lat="42.75562" lon="2.01681">
        <ele>1829.05</ele>
        <time>2017-03-11T13:56:44Z</time>
      </trkpt>
      <trkpt lat="42.75555" lon="2.01677">
        <ele>1825.68</ele>
        <time>2017-03-11T13:56:58Z</time>
      </trkpt>
      <trkpt lat="42.75546" lon="2.01682">
        <ele>1823.28</ele>
        <time>2017-03-11T13:57:12Z</time>
      </trkpt>
      <trkpt lat="42.75538" lon="2.01681">
        <ele>1820.39</ele>
        <time>2017-03-11T13:57:24Z</time>
      </trkpt>
      <trkpt lat="42.7553" lon="2.01674">
        <ele>1818.47</ele>
        <time>2017-03-11T13:57:35Z</time>
      </trkpt>
      <trkpt lat="42.75523" lon="2.01668">
        <ele>1817.03</ele>
        <time>2017-03-11T13:57:45Z</time>
      </trkpt>
      <trkpt lat="42.75514" lon="2.01664">
        <ele>1816.55</ele>
        <time>2017-03-11T13:57:55Z</time>
      </trkpt>
      <trkpt lat="42.75505" lon="2.01664">
        <ele>1816.55</ele>
        <time>2017-03-11T13:58:05Z</time>
      </trkpt>
      <trkpt lat="42.75497" lon="2.0166">
        <ele>1814.63</ele>
        <time>2017-03-11T13:58:15Z</time>
      </trkpt>
      <trkpt lat="42.75487" lon="2.01659">
        <ele>1814.63</ele>
        <time>2017-03-11T13:58:25Z</time>
      </trkpt>
      <trkpt lat="42.75479" lon="2.0166">
        <ele>1814.15</ele>
        <time>2017-03-11T13:58:36Z</time>
      </trkpt>
      <trkpt lat="42.75469" lon="2.01659">
        <ele>1813.66</ele>
        <time>2017-03-11T13:58:45Z</time>
      </trkpt>
      <trkpt lat="42.75461" lon="2.01661">
        <ele>1813.18</ele>
        <time>2017-03-11T13:58:54Z</time>
      </trkpt>
      <trkpt lat="42.75453" lon="2.01666">
        <ele>1812.22</ele>
        <time>2017-03-11T13:59:03Z</time>
      </trkpt>
      <trkpt lat="42.75444" lon="2.01671">
        <ele>1810.3</ele>
        <time>2017-03-11T13:59:13Z</time>
      </trkpt>
      <trkpt lat="42.75436" lon="2.01676">
        <ele>1809.34</ele>
        <time>2017-03-11T13:59:22Z</time>
      </trkpt>
      <trkpt lat="42.75428" lon="2.01682">
        <ele>1809.82</ele>
        <time>2017-03-11T13:59:32Z</time>
      </trkpt>
      <trkpt lat="42.7542" lon="2.01688">
        <ele>1809.34</ele>
        <time>2017-03-11T13:59:42Z</time>
      </trkpt>
      <trkpt lat="42.75412" lon="2.01696">
        <ele>1809.34</ele>
        <time>2017-03-11T13:59:52Z</time>
      </trkpt>
      <trkpt lat="42.75406" lon="2.01705">
        <ele>1809.34</ele>
        <time>2017-03-11T14:00:02Z</time>
      </trkpt>
      <trkpt lat="42.754" lon="2.01715">
        <ele>1810.78</ele>
        <time>2017-03-11T14:00:13Z</time>
      </trkpt>
      <trkpt lat="42.75394" lon="2.01724">
        <ele>1810.3</ele>
        <time>2017-03-11T14:00:24Z</time>
      </trkpt>
      <trkpt lat="42.75387" lon="2.01734">
        <ele>1807.9</ele>
        <time>2017-03-11T14:00:34Z</time>
      </trkpt>
      <trkpt lat="42.75379" lon="2.0174">
        <ele>1807.42</ele>
        <time>2017-03-11T14:00:43Z</time>
      </trkpt>
      <trkpt lat="42.75373" lon="2.0175">
        <ele>1806.45</ele>
        <time>2017-03-11T14:00:52Z</time>
      </trkpt>
      <trkpt lat="42.75366" lon="2.01755">
        <ele>1806.94</ele>
        <time>2017-03-11T14:01:02Z</time>
      </trkpt>
      <trkpt lat="42.75357" lon="2.01759">
        <ele>1805.97</ele>
        <time>2017-03-11T14:01:12Z</time>
      </trkpt>
      <trkpt lat="42.75348" lon="2.01762">
        <ele>1804.05</ele>
        <time>2017-03-11T14:01:21Z</time>
      </trkpt>
      <trkpt lat="42.75339" lon="2.01768">
        <ele>1804.05</ele>
        <time>2017-03-11T14:01:30Z</time>
      </trkpt>
      <trkpt lat="42.75331" lon="2.01775">
        <ele>1803.57</ele>
        <time>2017-03-11T14:01:39Z</time>
      </trkpt>
      <trkpt lat="42.75322" lon="2.0178">
        <ele>1803.57</ele>
        <time>2017-03-11T14:01:48Z</time>
      </trkpt>
      <trkpt lat="42.75314" lon="2.01788">
        <ele>1803.09</ele>
        <time>2017-03-11T14:01:57Z</time>
      </trkpt>
      <trkpt lat="42.75306" lon="2.01794">
        <ele>1801.65</ele>
        <time>2017-03-11T14:02:05Z</time>
      </trkpt>
      <trkpt lat="42.75298" lon="2.01802">
        <ele>1801.65</ele>
        <time>2017-03-11T14:02:14Z</time>
      </trkpt>
      <trkpt lat="42.75288" lon="2.01805">
        <ele>1802.61</ele>
        <time>2017-03-11T14:02:24Z</time>
      </trkpt>
      <trkpt lat="42.75279" lon="2.01808">
        <ele>1802.61</ele>
        <time>2017-03-11T14:02:33Z</time>
      </trkpt>
      <trkpt lat="42.7527" lon="2.01811">
        <ele>1802.61</ele>
        <time>2017-03-11T14:02:42Z</time>
      </trkpt>
      <trkpt lat="42.75261" lon="2.01814">
        <ele>1804.53</ele>
        <time>2017-03-11T14:02:53Z</time>
      </trkpt>
      <trkpt lat="42.75251" lon="2.01813">
        <ele>1805.01</ele>
        <time>2017-03-11T14:03:04Z</time>
      </trkpt>
      <trkpt lat="42.75243" lon="2.01813">
        <ele>1805.97</ele>
        <time>2017-03-11T14:03:14Z</time>
      </trkpt>
      <trkpt lat="42.75234" lon="2.01817">
        <ele>1806.45</ele>
        <time>2017-03-11T14:03:25Z</time>
      </trkpt>
      <trkpt lat="42.7523" lon="2.01828">
        <ele>1808.38</ele>
        <time>2017-03-11T14:03:38Z</time>
      </trkpt>
      <trkpt lat="42.75225" lon="2.01836">
        <ele>1809.34</ele>
        <time>2017-03-11T14:03:51Z</time>
      </trkpt>
      <trkpt lat="42.75219" lon="2.01845">
        <ele>1811.74</ele>
        <time>2017-03-11T14:04:05Z</time>
      </trkpt>
      <trkpt lat="42.75211" lon="2.01852">
        <ele>1813.18</ele>
        <time>2017-03-11T14:04:16Z</time>
      </trkpt>
      <trkpt lat="42.75202" lon="2.01855">
        <ele>1814.63</ele>
        <time>2017-03-11T14:04:33Z</time>
      </trkpt>
      <trkpt lat="42.75193" lon="2.01855">
        <ele>1816.07</ele>
        <time>2017-03-11T14:04:43Z</time>
      </trkpt>
      <trkpt lat="42.75186" lon="2.01855">
        <ele>1817.51</ele>
        <time>2017-03-11T14:04:56Z</time>
      </trkpt>
      <trkpt lat="42.75177" lon="2.01855">
        <ele>1817.99</ele>
        <time>2017-03-11T14:05:10Z</time>
      </trkpt>
      <trkpt lat="42.75169" lon="2.01851">
        <ele>1818.95</ele>
        <time>2017-03-11T14:05:21Z</time>
      </trkpt>
      <trkpt lat="42.75161" lon="2.01847">
        <ele>1817.99</ele>
        <time>2017-03-11T14:05:33Z</time>
      </trkpt>
      <trkpt lat="42.75153" lon="2.01841">
        <ele>1817.03</ele>
        <time>2017-03-11T14:05:44Z</time>
      </trkpt>
      <trkpt lat="42.75145" lon="2.01835">
        <ele>1816.55</ele>
        <time>2017-03-11T14:05:54Z</time>
      </trkpt>
      <trkpt lat="42.75135" lon="2.01833">
        <ele>1816.07</ele>
        <time>2017-03-11T14:06:04Z</time>
      </trkpt>
      <trkpt lat="42.75127" lon="2.01833">
        <ele>1814.63</ele>
        <time>2017-03-11T14:06:19Z</time>
      </trkpt>
      <trkpt lat="42.75118" lon="2.01832">
        <ele>1814.15</ele>
        <time>2017-03-11T14:06:28Z</time>
      </trkpt>
      <trkpt lat="42.75109" lon="2.01831">
        <ele>1813.18</ele>
        <time>2017-03-11T14:06:37Z</time>
      </trkpt>
      <trkpt lat="42.75099" lon="2.01831">
        <ele>1812.7</ele>
        <time>2017-03-11T14:06:47Z</time>
      </trkpt>
      <trkpt lat="42.7509" lon="2.01831">
        <ele>1811.74</ele>
        <time>2017-03-11T14:06:56Z</time>
      </trkpt>
      <trkpt lat="42.75082" lon="2.01828">
        <ele>1808.86</ele>
        <time>2017-03-11T14:07:07Z</time>
      </trkpt>
      <trkpt lat="42.75074" lon="2.01824">
        <ele>1806.45</ele>
        <time>2017-03-11T14:07:20Z</time>
      </trkpt>
      <trkpt lat="42.75071" lon="2.01815">
        <ele>1803.57</ele>
        <time>2017-03-11T14:07:33Z</time>
      </trkpt>
      <trkpt lat="42.75062" lon="2.01818">
        <ele>1801.65</ele>
        <time>2017-03-11T14:07:47Z</time>
      </trkpt>
      <trkpt lat="42.75054" lon="2.01822">
        <ele>1799.24</ele>
        <time>2017-03-11T14:07:59Z</time>
      </trkpt>
      <trkpt lat="42.75045" lon="2.01826">
        <ele>1797.8</ele>
        <time>2017-03-11T14:08:11Z</time>
      </trkpt>
      <trkpt lat="42.75036" lon="2.01825">
        <ele>1795.88</ele>
        <time>2017-03-11T14:08:21Z</time>
      </trkpt>
      <trkpt lat="42.75027" lon="2.01825">
        <ele>1793.96</ele>
        <time>2017-03-11T14:08:31Z</time>
      </trkpt>
      <trkpt lat="42.75018" lon="2.01824">
        <ele>1791.07</ele>
        <time>2017-03-11T14:08:44Z</time>
      </trkpt>
      <trkpt lat="42.75009" lon="2.01824">
        <ele>1789.15</ele>
        <time>2017-03-11T14:08:55Z</time>
      </trkpt>
      <trkpt lat="42.74999" lon="2.01825">
        <ele>1787.23</ele>
        <time>2017-03-11T14:09:06Z</time>
      </trkpt>
      <trkpt lat="42.7499" lon="2.01828">
        <ele>1785.79</ele>
        <time>2017-03-11T14:09:16Z</time>
      </trkpt>
      <trkpt lat="42.74981" lon="2.01831">
        <ele>1783.86</ele>
        <time>2017-03-11T14:09:26Z</time>
      </trkpt>
      <trkpt lat="42.74971" lon="2.01829">
        <ele>1781.94</ele>
        <time>2017-03-11T14:09:35Z</time>
      </trkpt>
      <trkpt lat="42.74962" lon="2.01825">
        <ele>1781.46</ele>
        <time>2017-03-11T14:09:44Z</time>
      </trkpt>
      <trkpt lat="42.74952" lon="2.01821">
        <ele>1780.98</ele>
        <time>2017-03-11T14:09:53Z</time>
      </trkpt>
      <trkpt lat="42.74942" lon="2.01821">
        <ele>1780.98</ele>
        <time>2017-03-11T14:10:02Z</time>
      </trkpt>
      <trkpt lat="42.74934" lon="2.01824">
        <ele>1780.5</ele>
        <time>2017-03-11T14:10:10Z</time>
      </trkpt>
      <trkpt lat="42.74926" lon="2.01831">
        <ele>1780.5</ele>
        <time>2017-03-11T14:10:19Z</time>
      </trkpt>
      <trkpt lat="42.74918" lon="2.01837">
        <ele>1780.98</ele>
        <time>2017-03-11T14:10:28Z</time>
      </trkpt>
      <trkpt lat="42.7491" lon="2.01844">
        <ele>1780.02</ele>
        <time>2017-03-11T14:10:37Z</time>
      </trkpt>
      <trkpt lat="42.74901" lon="2.01846">
        <ele>1780.02</ele>
        <time>2017-03-11T14:10:48Z</time>
      </trkpt>
      <trkpt lat="42.74891" lon="2.01845">
        <ele>1780.98</ele>
        <time>2017-03-11T14:11:01Z</time>
      </trkpt>
      <trkpt lat="42.74882" lon="2.01842">
        <ele>1782.42</ele>
        <time>2017-03-11T14:11:14Z</time>
      </trkpt>
      <trkpt lat="42.74872" lon="2.01839">
        <ele>1783.38</ele>
        <time>2017-03-11T14:11:28Z</time>
      </trkpt>
      <trkpt lat="42.74863" lon="2.01837">
        <ele>1784.82</ele>
        <time>2017-03-11T14:11:41Z</time>
      </trkpt>
      <trkpt lat="42.74853" lon="2.01835">
        <ele>1786.75</ele>
        <time>2017-03-11T14:12:05Z</time>
      </trkpt>
      <trkpt lat="42.74843" lon="2.01833">
        <ele>1787.71</ele>
        <time>2017-03-11T14:12:19Z</time>
      </trkpt>
      <trkpt lat="42.74834" lon="2.01831">
        <ele>1789.15</ele>
        <time>2017-03-11T14:12:35Z</time>
      </trkpt>
      <trkpt lat="42.74825" lon="2.01829">
        <ele>1790.11</ele>
        <time>2017-03-11T14:12:53Z</time>
      </trkpt>
      <trkpt lat="42.74818" lon="2.01823">
        <ele>1792.52</ele>
        <time>2017-03-11T14:13:08Z</time>
      </trkpt>
      <trkpt lat="42.7481" lon="2.01818">
        <ele>1793.48</ele>
        <time>2017-03-11T14:13:19Z</time>
      </trkpt>
      <trkpt lat="42.74804" lon="2.01813">
        <ele>1794.44</ele>
        <time>2017-03-11T14:13:30Z</time>
      </trkpt>
      <trkpt lat="42.74797" lon="2.01806">
        <ele>1796.84</ele>
        <time>2017-03-11T14:13:50Z</time>
      </trkpt>
      <trkpt lat="42.74789" lon="2.01799">
        <ele>1799.24</ele>
        <time>2017-03-11T14:14:04Z</time>
      </trkpt>
      <trkpt lat="42.74782" lon="2.01792">
        <ele>1800.69</ele>
        <time>2017-03-11T14:14:20Z</time>
      </trkpt>
      <trkpt lat="42.74775" lon="2.01786">
        <ele>1802.13</ele>
        <time>2017-03-11T14:14:30Z</time>
      </trkpt>
      <trkpt lat="42.74768" lon="2.01781">
        <ele>1803.57</ele>
        <time>2017-03-11T14:14:48Z</time>
      </trkpt>
      <trkpt lat="42.7476" lon="2.01773">
        <ele>1804.53</ele>
        <time>2017-03-11T14:15:01Z</time>
      </trkpt>
      <trkpt lat="42.74752" lon="2.01766">
        <ele>1805.01</ele>
        <time>2017-03-11T14:15:14Z</time>
      </trkpt>
      <trkpt lat="42.74745" lon="2.0176">
        <ele>1806.45</ele>
        <time>2017-03-11T14:15:31Z</time>
      </trkpt>
      <trkpt lat="42.74738" lon="2.01752">
        <ele>1808.38</ele>
        <time>2017-03-11T14:15:48Z</time>
      </trkpt>
      <trkpt lat="42.74729" lon="2.01745">
        <ele>1808.86</ele>
        <time>2017-03-11T14:16:06Z</time>
      </trkpt>
      <trkpt lat="42.74723" lon="2.01737">
        <ele>1809.82</ele>
        <time>2017-03-11T14:16:22Z</time>
      </trkpt>
      <trkpt lat="42.74712" lon="2.01731">
        <ele>1812.22</ele>
        <time>2017-03-11T14:16:40Z</time>
      </trkpt>
      <trkpt lat="42.74706" lon="2.01723">
        <ele>1812.7</ele>
        <time>2017-03-11T14:16:54Z</time>
      </trkpt>
      <trkpt lat="42.74699" lon="2.01717">
        <ele>1813.66</ele>
        <time>2017-03-11T14:17:15Z</time>
      </trkpt>
      <trkpt lat="42.74692" lon="2.01709">
        <ele>1813.66</ele>
        <time>2017-03-11T14:17:27Z</time>
      </trkpt>
      <trkpt lat="42.74683" lon="2.01705">
        <ele>1815.59</ele>
        <time>2017-03-11T14:17:39Z</time>
      </trkpt>
      <trkpt lat="42.74677" lon="2.01697">
        <ele>1815.59</ele>
        <time>2017-03-11T14:17:50Z</time>
      </trkpt>
      <trkpt lat="42.74669" lon="2.01691">
        <ele>1815.11</ele>
        <time>2017-03-11T14:18:03Z</time>
      </trkpt>
      <trkpt lat="42.7466" lon="2.01688">
        <ele>1815.59</ele>
        <time>2017-03-11T14:18:15Z</time>
      </trkpt>
      <trkpt lat="42.74653" lon="2.01683">
        <ele>1816.55</ele>
        <time>2017-03-11T14:18:26Z</time>
      </trkpt>
      <trkpt lat="42.74644" lon="2.01676">
        <ele>1815.59</ele>
        <time>2017-03-11T14:18:37Z</time>
      </trkpt>
      <trkpt lat="42.74636" lon="2.01674">
        <ele>1816.07</ele>
        <time>2017-03-11T14:18:47Z</time>
      </trkpt>
      <trkpt lat="42.74627" lon="2.0167">
        <ele>1815.59</ele>
        <time>2017-03-11T14:18:57Z</time>
      </trkpt>
      <trkpt lat="42.74618" lon="2.01666">
        <ele>1815.59</ele>
        <time>2017-03-11T14:19:07Z</time>
      </trkpt>
      <trkpt lat="42.74609" lon="2.01662">
        <ele>1815.11</ele>
        <time>2017-03-11T14:19:17Z</time>
      </trkpt>
      <trkpt lat="42.746" lon="2.01658">
        <ele>1815.11</ele>
        <time>2017-03-11T14:19:26Z</time>
      </trkpt>
      <trkpt lat="42.74592" lon="2.01653">
        <ele>1814.63</ele>
        <time>2017-03-11T14:19:35Z</time>
      </trkpt>
      <trkpt lat="42.74583" lon="2.01649">
        <ele>1814.63</ele>
        <time>2017-03-11T14:19:44Z</time>
      </trkpt>
      <trkpt lat="42.74574" lon="2.01644">
        <ele>1814.15</ele>
        <time>2017-03-11T14:19:53Z</time>
      </trkpt>
      <trkpt lat="42.74565" lon="2.01639">
        <ele>1814.63</ele>
        <time>2017-03-11T14:20:03Z</time>
      </trkpt>
      <trkpt lat="42.74558" lon="2.01633">
        <ele>1815.59</ele>
        <time>2017-03-11T14:20:14Z</time>
      </trkpt>
      <trkpt lat="42.74549" lon="2.01627">
        <ele>1816.07</ele>
        <time>2017-03-11T14:20:24Z</time>
      </trkpt>
      <trkpt lat="42.74546" lon="2.01623">
        <ele>1816.07</ele>
        <time>2017-03-11T14:21:10Z</time>
      </trkpt>
      <trkpt lat="42.74543" lon="2.01619">
        <ele>1816.55</ele>
        <time>2017-03-11T14:22:00Z</time>
      </trkpt>
      <trkpt lat="42.74539" lon="2.01607">
        <ele>1817.03</ele>
        <time>2017-03-11T14:22:12Z</time>
      </trkpt>
      <trkpt lat="42.74537" lon="2.01594">
        <ele>1817.51</ele>
        <time>2017-03-11T14:22:23Z</time>
      </trkpt>
      <trkpt lat="42.74534" lon="2.01582">
        <ele>1818.47</ele>
        <time>2017-03-11T14:22:35Z</time>
      </trkpt>
      <trkpt lat="42.74533" lon="2.01571">
        <ele>1818.95</ele>
        <time>2017-03-11T14:22:47Z</time>
      </trkpt>
      <trkpt lat="42.74531" lon="2.01559">
        <ele>1819.91</ele>
        <time>2017-03-11T14:22:59Z</time>
      </trkpt>
      <trkpt lat="42.74531" lon="2.01545">
        <ele>1820.87</ele>
        <time>2017-03-11T14:23:12Z</time>
      </trkpt>
      <trkpt lat="42.74531" lon="2.01532">
        <ele>1821.84</ele>
        <time>2017-03-11T14:23:23Z</time>
      </trkpt>
      <trkpt lat="42.74531" lon="2.01521">
        <ele>1823.28</ele>
        <time>2017-03-11T14:23:35Z</time>
      </trkpt>
      <trkpt lat="42.7453" lon="2.01509">
        <ele>1823.28</ele>
        <time>2017-03-11T14:23:47Z</time>
      </trkpt>
      <trkpt lat="42.74531" lon="2.01496">
        <ele>1824.24</ele>
        <time>2017-03-11T14:23:58Z</time>
      </trkpt>
      <trkpt lat="42.74532" lon="2.01485">
        <ele>1824.72</ele>
        <time>2017-03-11T14:24:09Z</time>
      </trkpt>
      <trkpt lat="42.74533" lon="2.0147">
        <ele>1826.64</ele>
        <time>2017-03-11T14:24:30Z</time>
      </trkpt>
      <trkpt lat="42.74534" lon="2.01457">
        <ele>1826.16</ele>
        <time>2017-03-11T14:24:42Z</time>
      </trkpt>
      <trkpt lat="42.74533" lon="2.01444">
        <ele>1827.12</ele>
        <time>2017-03-11T14:24:54Z</time>
      </trkpt>
      <trkpt lat="42.74531" lon="2.01431">
        <ele>1827.6</ele>
        <time>2017-03-11T14:25:07Z</time>
      </trkpt>
      <trkpt lat="42.74529" lon="2.01417">
        <ele>1829.53</ele>
        <time>2017-03-11T14:25:24Z</time>
      </trkpt>
      <trkpt lat="42.74527" lon="2.01404">
        <ele>1831.93</ele>
        <time>2017-03-11T14:25:41Z</time>
      </trkpt>
      <trkpt lat="42.74527" lon="2.01388">
        <ele>1831.93</ele>
        <time>2017-03-11T14:25:58Z</time>
      </trkpt>
      <trkpt lat="42.74527" lon="2.01372">
        <ele>1832.89</ele>
        <time>2017-03-11T14:26:17Z</time>
      </trkpt>
      <trkpt lat="42.74528" lon="2.01361">
        <ele>1832.89</ele>
        <time>2017-03-11T14:26:27Z</time>
      </trkpt>
      <trkpt lat="42.7453" lon="2.01352">
        <ele>1833.85</ele>
        <time>2017-03-11T14:26:36Z</time>
      </trkpt>
      <trkpt lat="42.74531" lon="2.0134">
        <ele>1833.85</ele>
        <time>2017-03-11T14:26:53Z</time>
      </trkpt>
      <trkpt lat="42.74526" lon="2.01329">
        <ele>1836.74</ele>
        <time>2017-03-11T14:27:12Z</time>
      </trkpt>
      <trkpt lat="42.74521" lon="2.0132">
        <ele>1839.14</ele>
        <time>2017-03-11T14:27:29Z</time>
      </trkpt>
      <trkpt lat="42.74518" lon="2.0131">
        <ele>1838.66</ele>
        <time>2017-03-11T14:27:41Z</time>
      </trkpt>
      <trkpt lat="42.74515" lon="2.01297">
        <ele>1839.14</ele>
        <time>2017-03-11T14:27:54Z</time>
      </trkpt>
      <trkpt lat="42.74513" lon="2.01286">
        <ele>1838.66</ele>
        <time>2017-03-11T14:28:06Z</time>
      </trkpt>
      <trkpt lat="42.74511" lon="2.01272">
        <ele>1840.1</ele>
        <time>2017-03-11T14:28:19Z</time>
      </trkpt>
      <trkpt lat="42.7451" lon="2.0126">
        <ele>1840.1</ele>
        <time>2017-03-11T14:28:33Z</time>
      </trkpt>
      <trkpt lat="42.74509" lon="2.01246">
        <ele>1840.1</ele>
        <time>2017-03-11T14:28:45Z</time>
      </trkpt>
      <trkpt lat="42.74508" lon="2.01234">
        <ele>1840.1</ele>
        <time>2017-03-11T14:28:56Z</time>
      </trkpt>
      <trkpt lat="42.74505" lon="2.01223">
        <ele>1841.54</ele>
        <time>2017-03-11T14:29:09Z</time>
      </trkpt>
      <trkpt lat="42.74503" lon="2.01211">
        <ele>1842.02</ele>
        <time>2017-03-11T14:29:21Z</time>
      </trkpt>
      <trkpt lat="42.74499" lon="2.012">
        <ele>1843.47</ele>
        <time>2017-03-11T14:29:34Z</time>
      </trkpt>
      <trkpt lat="42.74497" lon="2.01188">
        <ele>1844.91</ele>
        <time>2017-03-11T14:29:48Z</time>
      </trkpt>
      <trkpt lat="42.74495" lon="2.01177">
        <ele>1845.39</ele>
        <time>2017-03-11T14:30:02Z</time>
      </trkpt>
      <trkpt lat="42.74494" lon="2.01164">
        <ele>1845.87</ele>
        <time>2017-03-11T14:30:16Z</time>
      </trkpt>
      <trkpt lat="42.74492" lon="2.01148">
        <ele>1848.75</ele>
        <time>2017-03-11T14:30:37Z</time>
      </trkpt>
      <trkpt lat="42.74488" lon="2.01136">
        <ele>1849.23</ele>
        <time>2017-03-11T14:30:47Z</time>
      </trkpt>
      <trkpt lat="42.74483" lon="2.01128">
        <ele>1850.19</ele>
        <time>2017-03-11T14:31:01Z</time>
      </trkpt>
      <trkpt lat="42.74478" lon="2.0112">
        <ele>1851.16</ele>
        <time>2017-03-11T14:31:12Z</time>
      </trkpt>
      <trkpt lat="42.74474" lon="2.01113">
        <ele>1852.6</ele>
        <time>2017-03-11T14:31:24Z</time>
      </trkpt>
      <trkpt lat="42.74469" lon="2.01102">
        <ele>1853.08</ele>
        <time>2017-03-11T14:31:40Z</time>
      </trkpt>
      <trkpt lat="42.74464" lon="2.0109">
        <ele>1853.56</ele>
        <time>2017-03-11T14:32:00Z</time>
      </trkpt>
      <trkpt lat="42.74462" lon="2.01082">
        <ele>1852.6</ele>
        <time>2017-03-11T14:32:22Z</time>
      </trkpt>
      <trkpt lat="42.74457" lon="2.0107">
        <ele>1853.08</ele>
        <time>2017-03-11T14:32:35Z</time>
      </trkpt>
      <trkpt lat="42.7445" lon="2.0106">
        <ele>1852.6</ele>
        <time>2017-03-11T14:32:47Z</time>
      </trkpt>
      <trkpt lat="42.74447" lon="2.0105">
        <ele>1852.6</ele>
        <time>2017-03-11T14:33:00Z</time>
      </trkpt>
      <trkpt lat="42.74435" lon="2.01046">
        <ele>1853.08</ele>
        <time>2017-03-11T14:33:17Z</time>
      </trkpt>
      <trkpt lat="42.74422" lon="2.01043">
        <ele>1855</ele>
        <time>2017-03-11T14:33:31Z</time>
      </trkpt>
      <trkpt lat="42.74415" lon="2.01045">
        <ele>1856.44</ele>
        <time>2017-03-11T14:33:43Z</time>
      </trkpt>
      <trkpt lat="42.74411" lon="2.01045">
        <ele>1858.85</ele>
        <time>2017-03-11T14:34:14Z</time>
      </trkpt>
      <trkpt lat="42.74403" lon="2.01043">
        <ele>1861.25</ele>
        <time>2017-03-11T14:34:37Z</time>
      </trkpt>
      <trkpt lat="42.74395" lon="2.01045">
        <ele>1863.65</ele>
        <time>2017-03-11T14:34:58Z</time>
      </trkpt>
      <trkpt lat="42.74384" lon="2.01043">
        <ele>1864.61</ele>
        <time>2017-03-11T14:35:15Z</time>
      </trkpt>
      <trkpt lat="42.74376" lon="2.01041">
        <ele>1865.58</ele>
        <time>2017-03-11T14:35:31Z</time>
      </trkpt>
      <trkpt lat="42.74365" lon="2.01038">
        <ele>1866.06</ele>
        <time>2017-03-11T14:35:52Z</time>
      </trkpt>
      <trkpt lat="42.74354" lon="2.01033">
        <ele>1866.06</ele>
        <time>2017-03-11T14:36:06Z</time>
      </trkpt>
      <trkpt lat="42.74347" lon="2.01031">
        <ele>1866.06</ele>
        <time>2017-03-11T14:36:19Z</time>
      </trkpt>
      <trkpt lat="42.74335" lon="2.01029">
        <ele>1866.06</ele>
        <time>2017-03-11T14:36:32Z</time>
      </trkpt>
      <trkpt lat="42.74328" lon="2.01027">
        <ele>1867.5</ele>
        <time>2017-03-11T14:36:46Z</time>
      </trkpt>
      <trkpt lat="42.74316" lon="2.01026">
        <ele>1866.54</ele>
        <time>2017-03-11T14:37:00Z</time>
      </trkpt>
      <trkpt lat="42.74307" lon="2.0102">
        <ele>1865.09</ele>
        <time>2017-03-11T14:37:11Z</time>
      </trkpt>
      <trkpt lat="42.74298" lon="2.01014">
        <ele>1865.09</ele>
        <time>2017-03-11T14:37:22Z</time>
      </trkpt>
      <trkpt lat="42.74288" lon="2.01012">
        <ele>1863.65</ele>
        <time>2017-03-11T14:37:34Z</time>
      </trkpt>
      <trkpt lat="42.7428" lon="2.01004">
        <ele>1861.25</ele>
        <time>2017-03-11T14:37:46Z</time>
      </trkpt>
      <trkpt lat="42.74271" lon="2.01">
        <ele>1860.29</ele>
        <time>2017-03-11T14:37:58Z</time>
      </trkpt>
      <trkpt lat="42.74261" lon="2.00996">
        <ele>1860.29</ele>
        <time>2017-03-11T14:38:10Z</time>
      </trkpt>
      <trkpt lat="42.74253" lon="2.00994">
        <ele>1860.29</ele>
        <time>2017-03-11T14:38:23Z</time>
      </trkpt>
      <trkpt lat="42.74243" lon="2.00994">
        <ele>1859.81</ele>
        <time>2017-03-11T14:38:37Z</time>
      </trkpt>
      <trkpt lat="42.74235" lon="2.00993">
        <ele>1859.81</ele>
        <time>2017-03-11T14:38:49Z</time>
      </trkpt>
      <trkpt lat="42.74225" lon="2.0099">
        <ele>1860.29</ele>
        <time>2017-03-11T14:39:02Z</time>
      </trkpt>
      <trkpt lat="42.74215" lon="2.00987">
        <ele>1860.29</ele>
        <time>2017-03-11T14:39:14Z</time>
      </trkpt>
      <trkpt lat="42.74207" lon="2.00983">
        <ele>1859.81</ele>
        <time>2017-03-11T14:39:27Z</time>
      </trkpt>
      <trkpt lat="42.74198" lon="2.00979">
        <ele>1860.29</ele>
        <time>2017-03-11T14:39:41Z</time>
      </trkpt>
      <trkpt lat="42.74188" lon="2.00976">
        <ele>1861.25</ele>
        <time>2017-03-11T14:39:53Z</time>
      </trkpt>
      <trkpt lat="42.74178" lon="2.00972">
        <ele>1860.29</ele>
        <time>2017-03-11T14:40:06Z</time>
      </trkpt>
      <trkpt lat="42.7417" lon="2.00967">
        <ele>1860.29</ele>
        <time>2017-03-11T14:40:17Z</time>
      </trkpt>
      <trkpt lat="42.7416" lon="2.00965">
        <ele>1860.77</ele>
        <time>2017-03-11T14:40:30Z</time>
      </trkpt>
      <trkpt lat="42.7415" lon="2.00958">
        <ele>1861.25</ele>
        <time>2017-03-11T14:40:44Z</time>
      </trkpt>
      <trkpt lat="42.74144" lon="2.00952">
        <ele>1861.73</ele>
        <time>2017-03-11T14:41:09Z</time>
      </trkpt>
      <trkpt lat="42.74133" lon="2.00947">
        <ele>1862.69</ele>
        <time>2017-03-11T14:41:23Z</time>
      </trkpt>
      <trkpt lat="42.74125" lon="2.0094">
        <ele>1862.21</ele>
        <time>2017-03-11T14:41:36Z</time>
      </trkpt>
      <trkpt lat="42.74117" lon="2.00935">
        <ele>1861.25</ele>
        <time>2017-03-11T14:41:51Z</time>
      </trkpt>
      <trkpt lat="42.74107" lon="2.00932">
        <ele>1862.69</ele>
        <time>2017-03-11T14:42:04Z</time>
      </trkpt>
      <trkpt lat="42.74098" lon="2.00928">
        <ele>1863.65</ele>
        <time>2017-03-11T14:42:16Z</time>
      </trkpt>
      <trkpt lat="42.74089" lon="2.00924">
        <ele>1865.58</ele>
        <time>2017-03-11T14:42:34Z</time>
      </trkpt>
      <trkpt lat="42.74081" lon="2.00915">
        <ele>1866.54</ele>
        <time>2017-03-11T14:42:56Z</time>
      </trkpt>
      <trkpt lat="42.7407" lon="2.00911">
        <ele>1867.02</ele>
        <time>2017-03-11T14:43:35Z</time>
      </trkpt>
      <trkpt lat="42.7406" lon="2.0091">
        <ele>1867.5</ele>
        <time>2017-03-11T14:43:47Z</time>
      </trkpt>
      <trkpt lat="42.74051" lon="2.00909">
        <ele>1868.94</ele>
        <time>2017-03-11T14:44:02Z</time>
      </trkpt>
      <trkpt lat="42.74041" lon="2.00903">
        <ele>1868.46</ele>
        <time>2017-03-11T14:44:15Z</time>
      </trkpt>
      <trkpt lat="42.74032" lon="2.00896">
        <ele>1867.98</ele>
        <time>2017-03-11T14:44:29Z</time>
      </trkpt>
      <trkpt lat="42.74023" lon="2.00891">
        <ele>1867.98</ele>
        <time>2017-03-11T14:44:44Z</time>
      </trkpt>
      <trkpt lat="42.74015" lon="2.00886">
        <ele>1868.94</ele>
        <time>2017-03-11T14:44:57Z</time>
      </trkpt>
      <trkpt lat="42.74006" lon="2.00881">
        <ele>1867.98</ele>
        <time>2017-03-11T14:45:09Z</time>
      </trkpt>
      <trkpt lat="42.73999" lon="2.00873">
        <ele>1868.46</ele>
        <time>2017-03-11T14:45:22Z</time>
      </trkpt>
      <trkpt lat="42.73992" lon="2.00864">
        <ele>1867.98</ele>
        <time>2017-03-11T14:45:33Z</time>
      </trkpt>
      <trkpt lat="42.73984" lon="2.00856">
        <ele>1868.46</ele>
        <time>2017-03-11T14:45:46Z</time>
      </trkpt>
      <trkpt lat="42.73976" lon="2.00849">
        <ele>1868.94</ele>
        <time>2017-03-11T14:45:59Z</time>
      </trkpt>
      <trkpt lat="42.73969" lon="2.00841">
        <ele>1868.94</ele>
        <time>2017-03-11T14:46:11Z</time>
      </trkpt>
      <trkpt lat="42.73963" lon="2.00832">
        <ele>1869.9</ele>
        <time>2017-03-11T14:46:24Z</time>
      </trkpt>
      <trkpt lat="42.73955" lon="2.00824">
        <ele>1870.86</ele>
        <time>2017-03-11T14:46:37Z</time>
      </trkpt>
      <trkpt lat="42.73949" lon="2.00815">
        <ele>1871.82</ele>
        <time>2017-03-11T14:46:49Z</time>
      </trkpt>
      <trkpt lat="42.73943" lon="2.00806">
        <ele>1872.79</ele>
        <time>2017-03-11T14:47:03Z</time>
      </trkpt>
      <trkpt lat="42.73937" lon="2.00796">
        <ele>1873.75</ele>
        <time>2017-03-11T14:47:13Z</time>
      </trkpt>
      <trkpt lat="42.73934" lon="2.00788">
        <ele>1874.23</ele>
        <time>2017-03-11T14:47:22Z</time>
      </trkpt>
      <trkpt lat="42.7393" lon="2.0078">
        <ele>1874.71</ele>
        <time>2017-03-11T14:47:34Z</time>
      </trkpt>
      <trkpt lat="42.73923" lon="2.00773">
        <ele>1875.67</ele>
        <time>2017-03-11T14:47:56Z</time>
      </trkpt>
      <trkpt lat="42.73914" lon="2.00766">
        <ele>1877.59</ele>
        <time>2017-03-11T14:48:16Z</time>
      </trkpt>
      <trkpt lat="42.73906" lon="2.00761">
        <ele>1878.55</ele>
        <time>2017-03-11T14:48:28Z</time>
      </trkpt>
      <trkpt lat="42.73898" lon="2.00754">
        <ele>1879.51</ele>
        <time>2017-03-11T14:48:46Z</time>
      </trkpt>
      <trkpt lat="42.7389" lon="2.00749">
        <ele>1880</ele>
        <time>2017-03-11T14:49:09Z</time>
      </trkpt>
      <trkpt lat="42.73881" lon="2.00743">
        <ele>1880.48</ele>
        <time>2017-03-11T14:49:25Z</time>
      </trkpt>
      <trkpt lat="42.73872" lon="2.00736">
        <ele>1880.96</ele>
        <time>2017-03-11T14:49:41Z</time>
      </trkpt>
      <trkpt lat="42.73865" lon="2.00731">
        <ele>1881.44</ele>
        <time>2017-03-11T14:49:55Z</time>
      </trkpt>
      <trkpt lat="42.73857" lon="2.00727">
        <ele>1881.92</ele>
        <time>2017-03-11T14:50:06Z</time>
      </trkpt>
      <trkpt lat="42.73846" lon="2.00723">
        <ele>1881.92</ele>
        <time>2017-03-11T14:50:20Z</time>
      </trkpt>
      <trkpt lat="42.73838" lon="2.00718">
        <ele>1882.88</ele>
        <time>2017-03-11T14:50:35Z</time>
      </trkpt>
      <trkpt lat="42.7383" lon="2.00713">
        <ele>1883.84</ele>
        <time>2017-03-11T14:50:49Z</time>
      </trkpt>
      <trkpt lat="42.7382" lon="2.00709">
        <ele>1884.8</ele>
        <time>2017-03-11T14:51:04Z</time>
      </trkpt>
      <trkpt lat="42.73811" lon="2.00705">
        <ele>1885.76</ele>
        <time>2017-03-11T14:51:17Z</time>
      </trkpt>
      <trkpt lat="42.73804" lon="2.00697">
        <ele>1885.76</ele>
        <time>2017-03-11T14:51:32Z</time>
      </trkpt>
      <trkpt lat="42.73796" lon="2.00691">
        <ele>1886.24</ele>
        <time>2017-03-11T14:51:44Z</time>
      </trkpt>
      <trkpt lat="42.73788" lon="2.00684">
        <ele>1885.76</ele>
        <time>2017-03-11T14:51:56Z</time>
      </trkpt>
      <trkpt lat="42.73781" lon="2.00676">
        <ele>1886.72</ele>
        <time>2017-03-11T14:52:14Z</time>
      </trkpt>
      <trkpt lat="42.73771" lon="2.00673">
        <ele>1887.69</ele>
        <time>2017-03-11T14:52:30Z</time>
      </trkpt>
      <trkpt lat="42.73762" lon="2.00669">
        <ele>1888.17</ele>
        <time>2017-03-11T14:52:42Z</time>
      </trkpt>
      <trkpt lat="42.73757" lon="2.00662">
        <ele>1888.65</ele>
        <time>2017-03-11T14:53:00Z</time>
      </trkpt>
      <trkpt lat="42.73749" lon="2.00653">
        <ele>1889.13</ele>
        <time>2017-03-11T14:53:17Z</time>
      </trkpt>
      <trkpt lat="42.73739" lon="2.00647">
        <ele>1890.57</ele>
        <time>2017-03-11T14:53:38Z</time>
      </trkpt>
      <trkpt lat="42.7373" lon="2.00642">
        <ele>1890.09</ele>
        <time>2017-03-11T14:53:51Z</time>
      </trkpt>
      <trkpt lat="42.73722" lon="2.00637">
        <ele>1891.05</ele>
        <time>2017-03-11T14:54:01Z</time>
      </trkpt>
      <trkpt lat="42.73715" lon="2.00631">
        <ele>1891.53</ele>
        <time>2017-03-11T14:54:17Z</time>
      </trkpt>
      <trkpt lat="42.73706" lon="2.00625">
        <ele>1892.01</ele>
        <time>2017-03-11T14:54:31Z</time>
      </trkpt>
      <trkpt lat="42.73701" lon="2.00616">
        <ele>1892.97</ele>
        <time>2017-03-11T14:54:43Z</time>
      </trkpt>
      <trkpt lat="42.73693" lon="2.0061">
        <ele>1893.45</ele>
        <time>2017-03-11T14:54:57Z</time>
      </trkpt>
      <trkpt lat="42.73682" lon="2.00605">
        <ele>1894.9</ele>
        <time>2017-03-11T14:55:12Z</time>
      </trkpt>
      <trkpt lat="42.73675" lon="2.00597">
        <ele>1894.9</ele>
        <time>2017-03-11T14:55:24Z</time>
      </trkpt>
      <trkpt lat="42.73669" lon="2.00591">
        <ele>1895.38</ele>
        <time>2017-03-11T14:55:36Z</time>
      </trkpt>
      <trkpt lat="42.73661" lon="2.00583">
        <ele>1895.38</ele>
        <time>2017-03-11T14:55:50Z</time>
      </trkpt>
      <trkpt lat="42.73654" lon="2.00574">
        <ele>1896.34</ele>
        <time>2017-03-11T14:56:04Z</time>
      </trkpt>
      <trkpt lat="42.73649" lon="2.0057">
        <ele>1897.3</ele>
        <time>2017-03-11T14:56:13Z</time>
      </trkpt>
      <trkpt lat="42.73645" lon="2.00563">
        <ele>1897.3</ele>
        <time>2017-03-11T14:56:22Z</time>
      </trkpt>
      <trkpt lat="42.73638" lon="2.00556">
        <ele>1897.78</ele>
        <time>2017-03-11T14:56:36Z</time>
      </trkpt>
      <trkpt lat="42.73632" lon="2.00548">
        <ele>1898.74</ele>
        <time>2017-03-11T14:56:48Z</time>
      </trkpt>
      <trkpt lat="42.73626" lon="2.0054">
        <ele>1898.74</ele>
        <time>2017-03-11T14:57:01Z</time>
      </trkpt>
      <trkpt lat="42.7362" lon="2.0053">
        <ele>1899.22</ele>
        <time>2017-03-11T14:57:15Z</time>
      </trkpt>
      <trkpt lat="42.73614" lon="2.00522">
        <ele>1899.7</ele>
        <time>2017-03-11T14:57:28Z</time>
      </trkpt>
      <trkpt lat="42.73608" lon="2.00512">
        <ele>1900.18</ele>
        <time>2017-03-11T14:57:43Z</time>
      </trkpt>
      <trkpt lat="42.73604" lon="2.00503">
        <ele>1900.66</ele>
        <time>2017-03-11T14:57:56Z</time>
      </trkpt>
      <trkpt lat="42.73599" lon="2.00492">
        <ele>1901.14</ele>
        <time>2017-03-11T14:58:11Z</time>
      </trkpt>
      <trkpt lat="42.73594" lon="2.00482">
        <ele>1901.63</ele>
        <time>2017-03-11T14:58:39Z</time>
      </trkpt>
      <trkpt lat="42.73588" lon="2.00474">
        <ele>1902.11</ele>
        <time>2017-03-11T14:58:51Z</time>
      </trkpt>
      <trkpt lat="42.73587" lon="2.00463">
        <ele>1902.59</ele>
        <time>2017-03-11T14:59:03Z</time>
      </trkpt>
      <trkpt lat="42.73583" lon="2.00454">
        <ele>1903.55</ele>
        <time>2017-03-11T14:59:15Z</time>
      </trkpt>
      <trkpt lat="42.73581" lon="2.0044">
        <ele>1904.51</ele>
        <time>2017-03-11T14:59:34Z</time>
      </trkpt>
      <trkpt lat="42.73575" lon="2.00433">
        <ele>1905.47</ele>
        <time>2017-03-11T14:59:46Z</time>
      </trkpt>
      <trkpt lat="42.73572" lon="2.00418">
        <ele>1906.91</ele>
        <time>2017-03-11T15:00:02Z</time>
      </trkpt>
      <trkpt lat="42.73565" lon="2.00412">
        <ele>1907.87</ele>
        <time>2017-03-11T15:00:16Z</time>
      </trkpt>
      <trkpt lat="42.73562" lon="2.00401">
        <ele>1908.83</ele>
        <time>2017-03-11T15:00:32Z</time>
      </trkpt>
      <trkpt lat="42.73559" lon="2.00388">
        <ele>1910.76</ele>
        <time>2017-03-11T15:01:04Z</time>
      </trkpt>
      <trkpt lat="42.73556" lon="2.00378">
        <ele>1911.72</ele>
        <time>2017-03-11T15:01:18Z</time>
      </trkpt>
      <trkpt lat="42.73553" lon="2.00368">
        <ele>1913.16</ele>
        <time>2017-03-11T15:01:33Z</time>
      </trkpt>
      <trkpt lat="42.73549" lon="2.00358">
        <ele>1914.12</ele>
        <time>2017-03-11T15:01:46Z</time>
      </trkpt>
      <trkpt lat="42.73541" lon="2.00353">
        <ele>1916.04</ele>
        <time>2017-03-11T15:02:00Z</time>
      </trkpt>
      <trkpt lat="42.73539" lon="2.00342">
        <ele>1917.01</ele>
        <time>2017-03-11T15:02:17Z</time>
      </trkpt>
      <trkpt lat="42.73536" lon="2.00322">
        <ele>1919.89</ele>
        <time>2017-03-11T15:02:43Z</time>
      </trkpt>
      <trkpt lat="42.73534" lon="2.00311">
        <ele>1920.37</ele>
        <time>2017-03-11T15:02:58Z</time>
      </trkpt>
      <trkpt lat="42.73531" lon="2.00301">
        <ele>1922.29</ele>
        <time>2017-03-11T15:03:15Z</time>
      </trkpt>
      <trkpt lat="42.73529" lon="2.0029">
        <ele>1924.22</ele>
        <time>2017-03-11T15:03:34Z</time>
      </trkpt>
      <trkpt lat="42.73527" lon="2.0028">
        <ele>1925.66</ele>
        <time>2017-03-11T15:04:04Z</time>
      </trkpt>
      <trkpt lat="42.7353" lon="2.00271">
        <ele>1926.62</ele>
        <time>2017-03-11T15:04:21Z</time>
      </trkpt>
      <trkpt lat="42.73534" lon="2.00262">
        <ele>1927.1</ele>
        <time>2017-03-11T15:04:58Z</time>
      </trkpt>
      <trkpt lat="42.73536" lon="2.00251">
        <ele>1929.02</ele>
        <time>2017-03-11T15:05:25Z</time>
      </trkpt>
      <trkpt lat="42.73538" lon="2.00239">
        <ele>1930.95</ele>
        <time>2017-03-11T15:05:48Z</time>
      </trkpt>
      <trkpt lat="42.73538" lon="2.00229">
        <ele>1931.91</ele>
        <time>2017-03-11T15:06:51Z</time>
      </trkpt>
      <trkpt lat="42.73538" lon="2.00229">
        <ele>1931.43</ele>
        <time>2017-03-11T15:13:34Z</time>
      </trkpt>
      <trkpt lat="42.7354" lon="2.00226">
        <ele>1932.39</ele>
        <time>2017-03-11T15:14:02Z</time>
      </trkpt>
      <trkpt lat="42.73539" lon="2.00217">
        <ele>1933.83</ele>
        <time>2017-03-11T15:14:17Z</time>
      </trkpt>
      <trkpt lat="42.73538" lon="2.00205">
        <ele>1934.79</ele>
        <time>2017-03-11T15:14:34Z</time>
      </trkpt>
      <trkpt lat="42.73539" lon="2.00193">
        <ele>1936.71</ele>
        <time>2017-03-11T15:14:50Z</time>
      </trkpt>
      <trkpt lat="42.73539" lon="2.00181">
        <ele>1937.67</ele>
        <time>2017-03-11T15:15:04Z</time>
      </trkpt>
      <trkpt lat="42.73541" lon="2.0017">
        <ele>1940.56</ele>
        <time>2017-03-11T15:15:20Z</time>
      </trkpt>
      <trkpt lat="42.73549" lon="2.00163">
        <ele>1942.48</ele>
        <time>2017-03-11T15:15:39Z</time>
      </trkpt>
      <trkpt lat="42.73555" lon="2.00157">
        <ele>1942.48</ele>
        <time>2017-03-11T15:16:21Z</time>
      </trkpt>
      <trkpt lat="42.73552" lon="2.00144">
        <ele>1944.4</ele>
        <time>2017-03-11T15:16:38Z</time>
      </trkpt>
      <trkpt lat="42.73553" lon="2.00132">
        <ele>1944.88</ele>
        <time>2017-03-11T15:16:50Z</time>
      </trkpt>
      <trkpt lat="42.73555" lon="2.00123">
        <ele>1945.36</ele>
        <time>2017-03-11T15:17:05Z</time>
      </trkpt>
      <trkpt lat="42.73557" lon="2.00114">
        <ele>1946.33</ele>
        <time>2017-03-11T15:17:17Z</time>
      </trkpt>
      <trkpt lat="42.73561" lon="2.00104">
        <ele>1947.29</ele>
        <time>2017-03-11T15:17:34Z</time>
      </trkpt>
      <trkpt lat="42.73566" lon="2.00091">
        <ele>1948.73</ele>
        <time>2017-03-11T15:17:48Z</time>
      </trkpt>
      <trkpt lat="42.7357" lon="2.00081">
        <ele>1949.69</ele>
        <time>2017-03-11T15:18:03Z</time>
      </trkpt>
      <trkpt lat="42.73573" lon="2.00069">
        <ele>1950.17</ele>
        <time>2017-03-11T15:18:18Z</time>
      </trkpt>
      <trkpt lat="42.73575" lon="2.00057">
        <ele>1950.17</ele>
        <time>2017-03-11T15:18:34Z</time>
      </trkpt>
      <trkpt lat="42.73576" lon="2.00045">
        <ele>1951.13</ele>
        <time>2017-03-11T15:18:47Z</time>
      </trkpt>
      <trkpt lat="42.73577" lon="2.00034">
        <ele>1951.61</ele>
        <time>2017-03-11T15:19:03Z</time>
      </trkpt>
      <trkpt lat="42.73581" lon="2.00024">
        <ele>1954.02</ele>
        <time>2017-03-11T15:19:18Z</time>
      </trkpt>
      <trkpt lat="42.73587" lon="2.00014">
        <ele>1955.46</ele>
        <time>2017-03-11T15:19:34Z</time>
      </trkpt>
      <trkpt lat="42.73591" lon="2.00007">
        <ele>1956.42</ele>
        <time>2017-03-11T15:19:51Z</time>
      </trkpt>
      <trkpt lat="42.73597" lon="1.99998">
        <ele>1957.86</ele>
        <time>2017-03-11T15:20:06Z</time>
      </trkpt>
      <trkpt lat="42.73601" lon="1.99986">
        <ele>1959.3</ele>
        <time>2017-03-11T15:20:24Z</time>
      </trkpt>
      <trkpt lat="42.73604" lon="1.99978">
        <ele>1960.75</ele>
        <time>2017-03-11T15:20:35Z</time>
      </trkpt>
      <trkpt lat="42.73607" lon="1.9997">
        <ele>1963.15</ele>
        <time>2017-03-11T15:20:57Z</time>
      </trkpt>
      <trkpt lat="42.7361" lon="1.99958">
        <ele>1964.59</ele>
        <time>2017-03-11T15:21:12Z</time>
      </trkpt>
      <trkpt lat="42.73613" lon="1.9995">
        <ele>1965.55</ele>
        <time>2017-03-11T15:21:25Z</time>
      </trkpt>
      <trkpt lat="42.73617" lon="1.99943">
        <ele>1966.51</ele>
        <time>2017-03-11T15:21:38Z</time>
      </trkpt>
      <trkpt lat="42.73622" lon="1.99935">
        <ele>1967.48</ele>
        <time>2017-03-11T15:21:53Z</time>
      </trkpt>
      <trkpt lat="42.73625" lon="1.99925">
        <ele>1968.92</ele>
        <time>2017-03-11T15:22:06Z</time>
      </trkpt>
      <trkpt lat="42.73629" lon="1.99918">
        <ele>1969.88</ele>
        <time>2017-03-11T15:22:19Z</time>
      </trkpt>
      <trkpt lat="42.73632" lon="1.99908">
        <ele>1972.76</ele>
        <time>2017-03-11T15:22:43Z</time>
      </trkpt>
      <trkpt lat="42.73637" lon="1.99891">
        <ele>1973.72</ele>
        <time>2017-03-11T15:23:05Z</time>
      </trkpt>
      <trkpt lat="42.73639" lon="1.99878">
        <ele>1976.13</ele>
        <time>2017-03-11T15:23:31Z</time>
      </trkpt>
      <trkpt lat="42.73648" lon="1.99866">
        <ele>1978.53</ele>
        <time>2017-03-11T15:23:56Z</time>
      </trkpt>
      <trkpt lat="42.73649" lon="1.9985">
        <ele>1979.97</ele>
        <time>2017-03-11T15:24:14Z</time>
      </trkpt>
      <trkpt lat="42.73652" lon="1.99836">
        <ele>1981.9</ele>
        <time>2017-03-11T15:24:33Z</time>
      </trkpt>
      <trkpt lat="42.73653" lon="1.99825">
        <ele>1983.34</ele>
        <time>2017-03-11T15:24:45Z</time>
      </trkpt>
      <trkpt lat="42.73654" lon="1.99816">
        <ele>1983.34</ele>
        <time>2017-03-11T15:24:54Z</time>
      </trkpt>
      <trkpt lat="42.73656" lon="1.99808">
        <ele>1984.78</ele>
        <time>2017-03-11T15:25:13Z</time>
      </trkpt>
      <trkpt lat="42.73663" lon="1.99797">
        <ele>1985.74</ele>
        <time>2017-03-11T15:25:25Z</time>
      </trkpt>
      <trkpt lat="42.73666" lon="1.9979">
        <ele>1986.22</ele>
        <time>2017-03-11T15:25:37Z</time>
      </trkpt>
      <trkpt lat="42.73663" lon="1.99779">
        <ele>1987.18</ele>
        <time>2017-03-11T15:25:53Z</time>
      </trkpt>
      <trkpt lat="42.7366" lon="1.99768">
        <ele>1988.14</ele>
        <time>2017-03-11T15:26:03Z</time>
      </trkpt>
      <trkpt lat="42.73658" lon="1.99759">
        <ele>1988.62</ele>
        <time>2017-03-11T15:26:17Z</time>
      </trkpt>
      <trkpt lat="42.73655" lon="1.99748">
        <ele>1989.1</ele>
        <time>2017-03-11T15:26:31Z</time>
      </trkpt>
      <trkpt lat="42.73652" lon="1.99736">
        <ele>1989.59</ele>
        <time>2017-03-11T15:26:45Z</time>
      </trkpt>
      <trkpt lat="42.7365" lon="1.99723">
        <ele>1990.55</ele>
        <time>2017-03-11T15:26:57Z</time>
      </trkpt>
      <trkpt lat="42.73647" lon="1.99712">
        <ele>1991.03</ele>
        <time>2017-03-11T15:27:08Z</time>
      </trkpt>
      <trkpt lat="42.73641" lon="1.99703">
        <ele>1991.03</ele>
        <time>2017-03-11T15:27:20Z</time>
      </trkpt>
      <trkpt lat="42.73637" lon="1.99696">
        <ele>1991.51</ele>
        <time>2017-03-11T15:27:40Z</time>
      </trkpt>
      <trkpt lat="42.73633" lon="1.99685">
        <ele>1992.47</ele>
        <time>2017-03-11T15:27:50Z</time>
      </trkpt>
      <trkpt lat="42.73631" lon="1.99673">
        <ele>1992.47</ele>
        <time>2017-03-11T15:28:00Z</time>
      </trkpt>
      <trkpt lat="42.73631" lon="1.99662">
        <ele>1992.47</ele>
        <time>2017-03-11T15:28:10Z</time>
      </trkpt>
      <trkpt lat="42.73631" lon="1.99649">
        <ele>1993.43</ele>
        <time>2017-03-11T15:28:20Z</time>
      </trkpt>
      <trkpt lat="42.7363" lon="1.99636">
        <ele>1993.43</ele>
        <time>2017-03-11T15:28:30Z</time>
      </trkpt>
      <trkpt lat="42.73627" lon="1.99623">
        <ele>1992.47</ele>
        <time>2017-03-11T15:28:40Z</time>
      </trkpt>
      <trkpt lat="42.73625" lon="1.9961">
        <ele>1992.47</ele>
        <time>2017-03-11T15:28:49Z</time>
      </trkpt>
      <trkpt lat="42.73622" lon="1.99597">
        <ele>1991.99</ele>
        <time>2017-03-11T15:28:58Z</time>
      </trkpt>
      <trkpt lat="42.73619" lon="1.99583">
        <ele>1991.51</ele>
        <time>2017-03-11T15:29:07Z</time>
      </trkpt>
      <trkpt lat="42.73618" lon="1.99572">
        <ele>1989.59</ele>
        <time>2017-03-11T15:29:15Z</time>
      </trkpt>
      <trkpt lat="42.73615" lon="1.9956">
        <ele>1989.59</ele>
        <time>2017-03-11T15:29:24Z</time>
      </trkpt>
      <trkpt lat="42.73611" lon="1.99549">
        <ele>1988.62</ele>
        <time>2017-03-11T15:29:33Z</time>
      </trkpt>
      <trkpt lat="42.73607" lon="1.99538">
        <ele>1988.14</ele>
        <time>2017-03-11T15:29:43Z</time>
      </trkpt>
      <trkpt lat="42.73603" lon="1.99525">
        <ele>1988.14</ele>
        <time>2017-03-11T15:29:53Z</time>
      </trkpt>
      <trkpt lat="42.73599" lon="1.99512">
        <ele>1988.14</ele>
        <time>2017-03-11T15:30:03Z</time>
      </trkpt>
      <trkpt lat="42.73595" lon="1.99501">
        <ele>1987.18</ele>
        <time>2017-03-11T15:30:12Z</time>
      </trkpt>
      <trkpt lat="42.73591" lon="1.99488">
        <ele>1987.66</ele>
        <time>2017-03-11T15:30:26Z</time>
      </trkpt>
      <trkpt lat="42.73587" lon="1.99477">
        <ele>1987.18</ele>
        <time>2017-03-11T15:30:38Z</time>
      </trkpt>
      <trkpt lat="42.73583" lon="1.99464">
        <ele>1988.14</ele>
        <time>2017-03-11T15:30:51Z</time>
      </trkpt>
      <trkpt lat="42.7358" lon="1.99453">
        <ele>1988.62</ele>
        <time>2017-03-11T15:31:05Z</time>
      </trkpt>
      <trkpt lat="42.73576" lon="1.99443">
        <ele>1989.1</ele>
        <time>2017-03-11T15:31:20Z</time>
      </trkpt>
      <trkpt lat="42.73574" lon="1.99432">
        <ele>1989.59</ele>
        <time>2017-03-11T15:31:39Z</time>
      </trkpt>
      <trkpt lat="42.73569" lon="1.9942">
        <ele>1990.55</ele>
        <time>2017-03-11T15:31:53Z</time>
      </trkpt>
      <trkpt lat="42.73563" lon="1.99409">
        <ele>1991.51</ele>
        <time>2017-03-11T15:32:04Z</time>
      </trkpt>
      <trkpt lat="42.73561" lon="1.99398">
        <ele>1991.99</ele>
        <time>2017-03-11T15:32:14Z</time>
      </trkpt>
      <trkpt lat="42.73556" lon="1.99387">
        <ele>1992.95</ele>
        <time>2017-03-11T15:32:25Z</time>
      </trkpt>
      <trkpt lat="42.73551" lon="1.99376">
        <ele>1993.43</ele>
        <time>2017-03-11T15:32:36Z</time>
      </trkpt>
      <trkpt lat="42.73549" lon="1.99363">
        <ele>1994.87</ele>
        <time>2017-03-11T15:32:47Z</time>
      </trkpt>
      <trkpt lat="42.73545" lon="1.99352">
        <ele>1995.35</ele>
        <time>2017-03-11T15:32:58Z</time>
      </trkpt>
      <trkpt lat="42.73541" lon="1.9934">
        <ele>1996.32</ele>
        <time>2017-03-11T15:33:09Z</time>
      </trkpt>
      <trkpt lat="42.73537" lon="1.99328">
        <ele>1997.76</ele>
        <time>2017-03-11T15:33:22Z</time>
      </trkpt>
      <trkpt lat="42.73534" lon="1.99318">
        <ele>1998.72</ele>
        <time>2017-03-11T15:33:36Z</time>
      </trkpt>
      <trkpt lat="42.73526" lon="1.99319">
        <ele>1999.2</ele>
        <time>2017-03-11T15:33:51Z</time>
      </trkpt>
      <trkpt lat="42.73518" lon="1.99319">
        <ele>1999.2</ele>
        <time>2017-03-11T15:35:04Z</time>
      </trkpt>
      <trkpt lat="42.73512" lon="1.99326">
        <ele>1999.68</ele>
        <time>2017-03-11T15:35:30Z</time>
      </trkpt>
      <trkpt lat="42.73509" lon="1.99319">
        <ele>2001.12</ele>
        <time>2017-03-11T15:36:49Z</time>
      </trkpt>
      <trkpt lat="42.73506" lon="1.99308">
        <ele>2000.64</ele>
        <time>2017-03-11T15:36:59Z</time>
      </trkpt>
      <trkpt lat="42.73503" lon="1.99295">
        <ele>2000.64</ele>
        <time>2017-03-11T15:37:09Z</time>
      </trkpt>
      <trkpt lat="42.735" lon="1.99281">
        <ele>2001.6</ele>
        <time>2017-03-11T15:37:19Z</time>
      </trkpt>
      <trkpt lat="42.73497" lon="1.99268">
        <ele>2001.6</ele>
        <time>2017-03-11T15:37:29Z</time>
      </trkpt>
      <trkpt lat="42.73492" lon="1.99257">
        <ele>2001.6</ele>
        <time>2017-03-11T15:37:39Z</time>
      </trkpt>
      <trkpt lat="42.73487" lon="1.99247">
        <ele>2002.56</ele>
        <time>2017-03-11T15:37:49Z</time>
      </trkpt>
      <trkpt lat="42.73481" lon="1.99237">
        <ele>2003.04</ele>
        <time>2017-03-11T15:37:58Z</time>
      </trkpt>
      <trkpt lat="42.73475" lon="1.99228">
        <ele>2003.52</ele>
        <time>2017-03-11T15:38:08Z</time>
      </trkpt>
      <trkpt lat="42.73471" lon="1.99216">
        <ele>2004.01</ele>
        <time>2017-03-11T15:38:17Z</time>
      </trkpt>
      <trkpt lat="42.73465" lon="1.99207">
        <ele>2004.01</ele>
        <time>2017-03-11T15:38:27Z</time>
      </trkpt>
      <trkpt lat="42.7346" lon="1.99198">
        <ele>2004.49</ele>
        <time>2017-03-11T15:38:37Z</time>
      </trkpt>
      <trkpt lat="42.73458" lon="1.99186">
        <ele>2004.01</ele>
        <time>2017-03-11T15:38:47Z</time>
      </trkpt>
      <trkpt lat="42.73454" lon="1.99173">
        <ele>2003.52</ele>
        <time>2017-03-11T15:38:58Z</time>
      </trkpt>
      <trkpt lat="42.73451" lon="1.9916">
        <ele>2003.04</ele>
        <time>2017-03-11T15:39:09Z</time>
      </trkpt>
      <trkpt lat="42.73447" lon="1.99149">
        <ele>2002.56</ele>
        <time>2017-03-11T15:39:19Z</time>
      </trkpt>
      <trkpt lat="42.73445" lon="1.99137">
        <ele>2002.56</ele>
        <time>2017-03-11T15:39:28Z</time>
      </trkpt>
      <trkpt lat="42.73443" lon="1.99125">
        <ele>2001.6</ele>
        <time>2017-03-11T15:39:37Z</time>
      </trkpt>
      <trkpt lat="42.73442" lon="1.99113">
        <ele>2000.64</ele>
        <time>2017-03-11T15:39:45Z</time>
      </trkpt>
      <trkpt lat="42.73442" lon="1.99101">
        <ele>1999.2</ele>
        <time>2017-03-11T15:39:53Z</time>
      </trkpt>
      <trkpt lat="42.73441" lon="1.99088">
        <ele>1998.72</ele>
        <time>2017-03-11T15:40:03Z</time>
      </trkpt>
      <trkpt lat="42.73436" lon="1.99076">
        <ele>1996.8</ele>
        <time>2017-03-11T15:40:13Z</time>
      </trkpt>
      <trkpt lat="42.73431" lon="1.99065">
        <ele>1995.83</ele>
        <time>2017-03-11T15:40:22Z</time>
      </trkpt>
      <trkpt lat="42.73428" lon="1.99053">
        <ele>1993.91</ele>
        <time>2017-03-11T15:40:32Z</time>
      </trkpt>
      <trkpt lat="42.73423" lon="1.9905">
        <ele>1993.43</ele>
        <time>2017-03-11T15:41:09Z</time>
      </trkpt>
      <trkpt lat="42.73417" lon="1.99038">
        <ele>1991.99</ele>
        <time>2017-03-11T15:41:19Z</time>
      </trkpt>
      <trkpt lat="42.73412" lon="1.99026">
        <ele>1990.07</ele>
        <time>2017-03-11T15:41:29Z</time>
      </trkpt>
      <trkpt lat="42.73406" lon="1.99016">
        <ele>1988.62</ele>
        <time>2017-03-11T15:41:38Z</time>
      </trkpt>
      <trkpt lat="42.734" lon="1.99007">
        <ele>1987.66</ele>
        <time>2017-03-11T15:41:47Z</time>
      </trkpt>
      <trkpt lat="42.73392" lon="1.98999">
        <ele>1986.7</ele>
        <time>2017-03-11T15:41:56Z</time>
      </trkpt>
      <trkpt lat="42.73386" lon="1.98989">
        <ele>1985.26</ele>
        <time>2017-03-11T15:42:05Z</time>
      </trkpt>
      <trkpt lat="42.73379" lon="1.98983">
        <ele>1984.3</ele>
        <time>2017-03-11T15:42:16Z</time>
      </trkpt>
      <trkpt lat="42.73372" lon="1.98974">
        <ele>1982.38</ele>
        <time>2017-03-11T15:42:27Z</time>
      </trkpt>
      <trkpt lat="42.73365" lon="1.98966">
        <ele>1981.9</ele>
        <time>2017-03-11T15:42:37Z</time>
      </trkpt>
      <trkpt lat="42.73357" lon="1.98959">
        <ele>1979.01</ele>
        <time>2017-03-11T15:42:47Z</time>
      </trkpt>
      <trkpt lat="42.73351" lon="1.9895">
        <ele>1977.57</ele>
        <time>2017-03-11T15:42:57Z</time>
      </trkpt>
      <trkpt lat="42.73345" lon="1.98939">
        <ele>1975.65</ele>
        <time>2017-03-11T15:43:07Z</time>
      </trkpt>
      <trkpt lat="42.73344" lon="1.98927">
        <ele>1973.72</ele>
        <time>2017-03-11T15:43:16Z</time>
      </trkpt>
      <trkpt lat="42.73342" lon="1.98914">
        <ele>1972.28</ele>
        <time>2017-03-11T15:43:27Z</time>
      </trkpt>
      <trkpt lat="42.73341" lon="1.98903">
        <ele>1970.84</ele>
        <time>2017-03-11T15:43:37Z</time>
      </trkpt>
      <trkpt lat="42.73338" lon="1.98889">
        <ele>1967.96</ele>
        <time>2017-03-11T15:43:48Z</time>
      </trkpt>
      <trkpt lat="42.73333" lon="1.98878">
        <ele>1967.48</ele>
        <time>2017-03-11T15:43:58Z</time>
      </trkpt>
      <trkpt lat="42.73329" lon="1.98868">
        <ele>1965.55</ele>
        <time>2017-03-11T15:44:08Z</time>
      </trkpt>
      <trkpt lat="42.73325" lon="1.98858">
        <ele>1963.63</ele>
        <time>2017-03-11T15:44:18Z</time>
      </trkpt>
      <trkpt lat="42.73317" lon="1.98852">
        <ele>1961.71</ele>
        <time>2017-03-11T15:44:30Z</time>
      </trkpt>
      <trkpt lat="42.73307" lon="1.9885">
        <ele>1961.23</ele>
        <time>2017-03-11T15:44:40Z</time>
      </trkpt>
      <trkpt lat="42.73298" lon="1.98849">
        <ele>1959.3</ele>
        <time>2017-03-11T15:44:51Z</time>
      </trkpt>
      <trkpt lat="42.73288" lon="1.98847">
        <ele>1959.78</ele>
        <time>2017-03-11T15:45:04Z</time>
      </trkpt>
      <trkpt lat="42.73281" lon="1.98844">
        <ele>1958.82</ele>
        <time>2017-03-11T15:45:17Z</time>
      </trkpt>
      <trkpt lat="42.73275" lon="1.98838">
        <ele>1957.38</ele>
        <time>2017-03-11T15:45:46Z</time>
      </trkpt>
      <trkpt lat="42.73268" lon="1.98829">
        <ele>1957.38</ele>
        <time>2017-03-11T15:45:58Z</time>
      </trkpt>
      <trkpt lat="42.73261" lon="1.98824">
        <ele>1956.9</ele>
        <time>2017-03-11T15:46:11Z</time>
      </trkpt>
      <trkpt lat="42.73254" lon="1.98814">
        <ele>1956.42</ele>
        <time>2017-03-11T15:46:23Z</time>
      </trkpt>
      <trkpt lat="42.73248" lon="1.98806">
        <ele>1955.94</ele>
        <time>2017-03-11T15:46:35Z</time>
      </trkpt>
      <trkpt lat="42.73247" lon="1.98808">
        <ele>1955.46</ele>
        <time>2017-03-11T15:49:04Z</time>
      </trkpt>
      <trkpt lat="42.73245" lon="1.98806">
        <ele>1955.94</ele>
        <time>2017-03-11T15:53:19Z</time>
      </trkpt>
      <trkpt lat="42.73245" lon="1.98794">
        <ele>1954.5</ele>
        <time>2017-03-11T15:53:31Z</time>
      </trkpt>
      <trkpt lat="42.73246" lon="1.98782">
        <ele>1953.06</ele>
        <time>2017-03-11T15:53:40Z</time>
      </trkpt>
      <trkpt lat="42.73247" lon="1.98769">
        <ele>1952.57</ele>
        <time>2017-03-11T15:53:49Z</time>
      </trkpt>
      <trkpt lat="42.73251" lon="1.98759">
        <ele>1950.17</ele>
        <time>2017-03-11T15:54:06Z</time>
      </trkpt>
      <trkpt lat="42.73258" lon="1.98754">
        <ele>1949.69</ele>
        <time>2017-03-11T15:54:37Z</time>
      </trkpt>
      <trkpt lat="42.73262" lon="1.98747">
        <ele>1948.25</ele>
        <time>2017-03-11T15:55:12Z</time>
      </trkpt>
      <trkpt lat="42.73271" lon="1.98751">
        <ele>1948.25</ele>
        <time>2017-03-11T15:55:23Z</time>
      </trkpt>
      <trkpt lat="42.73275" lon="1.98761">
        <ele>1949.69</ele>
        <time>2017-03-11T15:55:35Z</time>
      </trkpt>
      <trkpt lat="42.73276" lon="1.98763">
        <ele>1949.69</ele>
        <time>2017-03-11T15:59:26Z</time>
      </trkpt>
      <trkpt lat="42.73271" lon="1.98752">
        <ele>1947.77</ele>
        <time>2017-03-11T15:59:37Z</time>
      </trkpt>
      <trkpt lat="42.73271" lon="1.9874">
        <ele>1946.33</ele>
        <time>2017-03-11T15:59:48Z</time>
      </trkpt>
      <trkpt lat="42.73272" lon="1.98727">
        <ele>1944.88</ele>
        <time>2017-03-11T15:59:59Z</time>
      </trkpt>
      <trkpt lat="42.73274" lon="1.98716">
        <ele>1943.92</ele>
        <time>2017-03-11T16:00:09Z</time>
      </trkpt>
      <trkpt lat="42.73276" lon="1.98704">
        <ele>1942.96</ele>
        <time>2017-03-11T16:00:19Z</time>
      </trkpt>
      <trkpt lat="42.73278" lon="1.98691">
        <ele>1940.56</ele>
        <time>2017-03-11T16:00:30Z</time>
      </trkpt>
      <trkpt lat="42.7328" lon="1.98679">
        <ele>1940.08</ele>
        <time>2017-03-11T16:00:44Z</time>
      </trkpt>
      <trkpt lat="42.73281" lon="1.98668">
        <ele>1938.64</ele>
        <time>2017-03-11T16:00:56Z</time>
      </trkpt>
      <trkpt lat="42.73283" lon="1.98656">
        <ele>1936.71</ele>
        <time>2017-03-11T16:01:07Z</time>
      </trkpt>
      <trkpt lat="42.73286" lon="1.98644">
        <ele>1935.27</ele>
        <time>2017-03-11T16:01:18Z</time>
      </trkpt>
      <trkpt lat="42.73288" lon="1.98633">
        <ele>1934.79</ele>
        <time>2017-03-11T16:01:29Z</time>
      </trkpt>
      <trkpt lat="42.73289" lon="1.9862">
        <ele>1932.39</ele>
        <time>2017-03-11T16:01:40Z</time>
      </trkpt>
      <trkpt lat="42.7329" lon="1.98607">
        <ele>1930.95</ele>
        <time>2017-03-11T16:01:51Z</time>
      </trkpt>
      <trkpt lat="42.73291" lon="1.98596">
        <ele>1929.02</ele>
        <time>2017-03-11T16:02:01Z</time>
      </trkpt>
      <trkpt lat="42.73293" lon="1.98584">
        <ele>1928.06</ele>
        <time>2017-03-11T16:02:11Z</time>
      </trkpt>
      <trkpt lat="42.73295" lon="1.9857">
        <ele>1926.14</ele>
        <time>2017-03-11T16:02:22Z</time>
      </trkpt>
      <trkpt lat="42.73292" lon="1.98578">
        <ele>1927.58</ele>
        <time>2017-03-11T16:02:34Z</time>
      </trkpt>
      <trkpt lat="42.7329" lon="1.98588">
        <ele>1929.02</ele>
        <time>2017-03-11T16:02:51Z</time>
      </trkpt>
      <trkpt lat="42.73291" lon="1.98583">
        <ele>1928.06</ele>
        <time>2017-03-11T16:03:36Z</time>
      </trkpt>
      <trkpt lat="42.73293" lon="1.98573">
        <ele>1926.62</ele>
        <time>2017-03-11T16:03:50Z</time>
      </trkpt>
      <trkpt lat="42.73295" lon="1.98561">
        <ele>1925.18</ele>
        <time>2017-03-11T16:04:03Z</time>
      </trkpt>
      <trkpt lat="42.73298" lon="1.9855">
        <ele>1924.22</ele>
        <time>2017-03-11T16:04:15Z</time>
      </trkpt>
      <trkpt lat="42.73301" lon="1.98539">
        <ele>1921.81</ele>
        <time>2017-03-11T16:04:28Z</time>
      </trkpt>
      <trkpt lat="42.73302" lon="1.98528">
        <ele>1920.37</ele>
        <time>2017-03-11T16:04:40Z</time>
      </trkpt>
      <trkpt lat="42.73303" lon="1.98516">
        <ele>1918.93</ele>
        <time>2017-03-11T16:04:54Z</time>
      </trkpt>
      <trkpt lat="42.73307" lon="1.98505">
        <ele>1916.53</ele>
        <time>2017-03-11T16:05:07Z</time>
      </trkpt>
      <trkpt lat="42.73309" lon="1.98493">
        <ele>1915.56</ele>
        <time>2017-03-11T16:05:20Z</time>
      </trkpt>
      <trkpt lat="42.7331" lon="1.98481">
        <ele>1914.12</ele>
        <time>2017-03-11T16:05:33Z</time>
      </trkpt>
      <trkpt lat="42.73312" lon="1.98469">
        <ele>1912.2</ele>
        <time>2017-03-11T16:05:45Z</time>
      </trkpt>
      <trkpt lat="42.73312" lon="1.98456">
        <ele>1911.72</ele>
        <time>2017-03-11T16:06:01Z</time>
      </trkpt>
      <trkpt lat="42.73311" lon="1.98443">
        <ele>1909.8</ele>
        <time>2017-03-11T16:06:10Z</time>
      </trkpt>
      <trkpt lat="42.7331" lon="1.98433">
        <ele>1908.35</ele>
        <time>2017-03-11T16:06:21Z</time>
      </trkpt>
      <trkpt lat="42.73308" lon="1.98421">
        <ele>1906.43</ele>
        <time>2017-03-11T16:06:34Z</time>
      </trkpt>
      <trkpt lat="42.73305" lon="1.98409">
        <ele>1904.99</ele>
        <time>2017-03-11T16:06:46Z</time>
      </trkpt>
      <trkpt lat="42.73299" lon="1.984">
        <ele>1902.59</ele>
        <time>2017-03-11T16:06:59Z</time>
      </trkpt>
      <trkpt lat="42.73294" lon="1.98391">
        <ele>1901.63</ele>
        <time>2017-03-11T16:07:12Z</time>
      </trkpt>
      <trkpt lat="42.73289" lon="1.98384">
        <ele>1900.18</ele>
        <time>2017-03-11T16:07:25Z</time>
      </trkpt>
      <trkpt lat="42.73283" lon="1.98373">
        <ele>1898.74</ele>
        <time>2017-03-11T16:07:38Z</time>
      </trkpt>
      <trkpt lat="42.73278" lon="1.98363">
        <ele>1896.82</ele>
        <time>2017-03-11T16:07:55Z</time>
      </trkpt>
      <trkpt lat="42.73273" lon="1.98352">
        <ele>1894.9</ele>
        <time>2017-03-11T16:08:08Z</time>
      </trkpt>
      <trkpt lat="42.73268" lon="1.98343">
        <ele>1892.97</ele>
        <time>2017-03-11T16:08:20Z</time>
      </trkpt>
      <trkpt lat="42.73263" lon="1.98332">
        <ele>1891.05</ele>
        <time>2017-03-11T16:08:31Z</time>
      </trkpt>
      <trkpt lat="42.73256" lon="1.98325">
        <ele>1890.09</ele>
        <time>2017-03-11T16:08:43Z</time>
      </trkpt>
      <trkpt lat="42.73252" lon="1.98317">
        <ele>1887.69</ele>
        <time>2017-03-11T16:08:55Z</time>
      </trkpt>
      <trkpt lat="42.73247" lon="1.9831">
        <ele>1884.8</ele>
        <time>2017-03-11T16:09:08Z</time>
      </trkpt>
      <trkpt lat="42.7324" lon="1.983">
        <ele>1882.88</ele>
        <time>2017-03-11T16:09:21Z</time>
      </trkpt>
      <trkpt lat="42.73236" lon="1.98291">
        <ele>1879.51</ele>
        <time>2017-03-11T16:09:42Z</time>
      </trkpt>
      <trkpt lat="42.73233" lon="1.9828">
        <ele>1877.11</ele>
        <time>2017-03-11T16:09:56Z</time>
      </trkpt>
      <trkpt lat="42.73229" lon="1.98269">
        <ele>1873.75</ele>
        <time>2017-03-11T16:10:08Z</time>
      </trkpt>
      <trkpt lat="42.73226" lon="1.98256">
        <ele>1871.82</ele>
        <time>2017-03-11T16:10:18Z</time>
      </trkpt>
      <trkpt lat="42.73221" lon="1.98243">
        <ele>1868.94</ele>
        <time>2017-03-11T16:10:28Z</time>
      </trkpt>
      <trkpt lat="42.73217" lon="1.98233">
        <ele>1866.06</ele>
        <time>2017-03-11T16:10:38Z</time>
      </trkpt>
      <trkpt lat="42.73212" lon="1.98222">
        <ele>1863.17</ele>
        <time>2017-03-11T16:10:49Z</time>
      </trkpt>
      <trkpt lat="42.73207" lon="1.9821">
        <ele>1859.81</ele>
        <time>2017-03-11T16:11:00Z</time>
      </trkpt>
      <trkpt lat="42.73202" lon="1.98198">
        <ele>1858.37</ele>
        <time>2017-03-11T16:11:09Z</time>
      </trkpt>
      <trkpt lat="42.73196" lon="1.98188">
        <ele>1855.48</ele>
        <time>2017-03-11T16:11:19Z</time>
      </trkpt>
      <trkpt lat="42.73191" lon="1.98179">
        <ele>1854.52</ele>
        <time>2017-03-11T16:11:29Z</time>
      </trkpt>
      <trkpt lat="42.73186" lon="1.98169">
        <ele>1852.12</ele>
        <time>2017-03-11T16:11:39Z</time>
      </trkpt>
      <trkpt lat="42.73181" lon="1.98158">
        <ele>1850.19</ele>
        <time>2017-03-11T16:11:49Z</time>
      </trkpt>
      <trkpt lat="42.73176" lon="1.98147">
        <ele>1848.27</ele>
        <time>2017-03-11T16:11:58Z</time>
      </trkpt>
      <trkpt lat="42.73171" lon="1.98135">
        <ele>1846.35</ele>
        <time>2017-03-11T16:12:07Z</time>
      </trkpt>
      <trkpt lat="42.73167" lon="1.98125">
        <ele>1847.31</ele>
        <time>2017-03-11T16:12:16Z</time>
      </trkpt>
      <trkpt lat="42.73163" lon="1.98113">
        <ele>1843.95</ele>
        <time>2017-03-11T16:12:26Z</time>
      </trkpt>
      <trkpt lat="42.7316" lon="1.98101">
        <ele>1842.5</ele>
        <time>2017-03-11T16:12:35Z</time>
      </trkpt>
      <trkpt lat="42.73156" lon="1.9809">
        <ele>1841.06</ele>
        <time>2017-03-11T16:12:45Z</time>
      </trkpt>
      <trkpt lat="42.73151" lon="1.98077">
        <ele>1839.62</ele>
        <time>2017-03-11T16:12:55Z</time>
      </trkpt>
      <trkpt lat="42.73148" lon="1.98065">
        <ele>1838.18</ele>
        <time>2017-03-11T16:13:04Z</time>
      </trkpt>
      <trkpt lat="42.73144" lon="1.98054">
        <ele>1835.77</ele>
        <time>2017-03-11T16:13:13Z</time>
      </trkpt>
      <trkpt lat="42.73139" lon="1.98043">
        <ele>1835.29</ele>
        <time>2017-03-11T16:13:22Z</time>
      </trkpt>
      <trkpt lat="42.73135" lon="1.98032">
        <ele>1833.37</ele>
        <time>2017-03-11T16:13:31Z</time>
      </trkpt>
      <trkpt lat="42.73132" lon="1.98019">
        <ele>1830.49</ele>
        <time>2017-03-11T16:13:41Z</time>
      </trkpt>
      <trkpt lat="42.73129" lon="1.98008">
        <ele>1830.49</ele>
        <time>2017-03-11T16:13:52Z</time>
      </trkpt>
      <trkpt lat="42.73128" lon="1.97997">
        <ele>1829.05</ele>
        <time>2017-03-11T16:14:03Z</time>
      </trkpt>
      <trkpt lat="42.73128" lon="1.97984">
        <ele>1827.12</ele>
        <time>2017-03-11T16:14:14Z</time>
      </trkpt>
      <trkpt lat="42.73127" lon="1.97972">
        <ele>1826.16</ele>
        <time>2017-03-11T16:14:30Z</time>
      </trkpt>
      <trkpt lat="42.73128" lon="1.97959">
        <ele>1823.76</ele>
        <time>2017-03-11T16:14:40Z</time>
      </trkpt>
      <trkpt lat="42.73129" lon="1.97947">
        <ele>1821.84</ele>
        <time>2017-03-11T16:14:50Z</time>
      </trkpt>
      <trkpt lat="42.73132" lon="1.97934">
        <ele>1820.87</ele>
        <time>2017-03-11T16:15:00Z</time>
      </trkpt>
      <trkpt lat="42.73132" lon="1.97921">
        <ele>1819.91</ele>
        <time>2017-03-11T16:15:10Z</time>
      </trkpt>
      <trkpt lat="42.73133" lon="1.97907">
        <ele>1817.51</ele>
        <time>2017-03-11T16:15:19Z</time>
      </trkpt>
      <trkpt lat="42.73133" lon="1.97895">
        <ele>1815.59</ele>
        <time>2017-03-11T16:15:28Z</time>
      </trkpt>
      <trkpt lat="42.73131" lon="1.97882">
        <ele>1815.59</ele>
        <time>2017-03-11T16:15:37Z</time>
      </trkpt>
      <trkpt lat="42.73128" lon="1.97869">
        <ele>1816.07</ele>
        <time>2017-03-11T16:15:46Z</time>
      </trkpt>
      <trkpt lat="42.73125" lon="1.97858">
        <ele>1813.66</ele>
        <time>2017-03-11T16:15:55Z</time>
      </trkpt>
      <trkpt lat="42.73121" lon="1.97846">
        <ele>1813.18</ele>
        <time>2017-03-11T16:16:04Z</time>
      </trkpt>
      <trkpt lat="42.73117" lon="1.97835">
        <ele>1812.22</ele>
        <time>2017-03-11T16:16:13Z</time>
      </trkpt>
      <trkpt lat="42.73113" lon="1.97823">
        <ele>1813.18</ele>
        <time>2017-03-11T16:16:22Z</time>
      </trkpt>
      <trkpt lat="42.73109" lon="1.97812">
        <ele>1811.26</ele>
        <time>2017-03-11T16:16:31Z</time>
      </trkpt>
      <trkpt lat="42.73109" lon="1.97811">
        <ele>1811.26</ele>
        <time>2017-03-11T16:17:20Z</time>
      </trkpt>
      <trkpt lat="42.73109" lon="1.97802">
        <ele>1812.22</ele>
        <time>2017-03-11T16:18:17Z</time>
      </trkpt>
      <trkpt lat="42.73109" lon="1.97795">
        <ele>1811.26</ele>
        <time>2017-03-11T16:21:01Z</time>
      </trkpt>
      <trkpt lat="42.73105" lon="1.97788">
        <ele>1809.82</ele>
        <time>2017-03-11T16:21:21Z</time>
      </trkpt>
      <trkpt lat="42.73101" lon="1.97776">
        <ele>1810.78</ele>
        <time>2017-03-11T16:21:30Z</time>
      </trkpt>
      <trkpt lat="42.73097" lon="1.97765">
        <ele>1809.34</ele>
        <time>2017-03-11T16:21:39Z</time>
      </trkpt>
      <trkpt lat="42.73093" lon="1.97754">
        <ele>1808.86</ele>
        <time>2017-03-11T16:21:50Z</time>
      </trkpt>
      <trkpt lat="42.7309" lon="1.97743">
        <ele>1807.9</ele>
        <time>2017-03-11T16:22:00Z</time>
      </trkpt>
      <trkpt lat="42.73086" lon="1.97732">
        <ele>1805.97</ele>
        <time>2017-03-11T16:22:10Z</time>
      </trkpt>
      <trkpt lat="42.73084" lon="1.9772">
        <ele>1805.97</ele>
        <time>2017-03-11T16:22:21Z</time>
      </trkpt>
      <trkpt lat="42.7308" lon="1.97709">
        <ele>1804.53</ele>
        <time>2017-03-11T16:22:31Z</time>
      </trkpt>
      <trkpt lat="42.73077" lon="1.97699">
        <ele>1805.01</ele>
        <time>2017-03-11T16:23:09Z</time>
      </trkpt>
      <trkpt lat="42.73077" lon="1.97704">
        <ele>1804.53</ele>
        <time>2017-03-11T16:25:53Z</time>
      </trkpt>
      <trkpt lat="42.73074" lon="1.97694">
        <ele>1804.05</ele>
        <time>2017-03-11T16:26:12Z</time>
      </trkpt>
      <trkpt lat="42.73071" lon="1.97682">
        <ele>1803.57</ele>
        <time>2017-03-11T16:26:24Z</time>
      </trkpt>
      <trkpt lat="42.73067" lon="1.97672">
        <ele>1804.53</ele>
        <time>2017-03-11T16:26:42Z</time>
      </trkpt>
      <trkpt lat="42.73065" lon="1.97669">
        <ele>1803.09</ele>
        <time>2017-03-11T16:27:16Z</time>
      </trkpt>
      <trkpt lat="42.73062" lon="1.97657">
        <ele>1803.09</ele>
        <time>2017-03-11T16:27:26Z</time>
      </trkpt>
      <trkpt lat="42.73059" lon="1.97645">
        <ele>1801.65</ele>
        <time>2017-03-11T16:27:35Z</time>
      </trkpt>
      <trkpt lat="42.73056" lon="1.97633">
        <ele>1801.17</ele>
        <time>2017-03-11T16:27:45Z</time>
      </trkpt>
      <trkpt lat="42.73053" lon="1.97622">
        <ele>1801.17</ele>
        <time>2017-03-11T16:27:54Z</time>
      </trkpt>
      <trkpt lat="42.73049" lon="1.9761">
        <ele>1800.69</ele>
        <time>2017-03-11T16:28:03Z</time>
      </trkpt>
      <trkpt lat="42.73045" lon="1.97599">
        <ele>1799.73</ele>
        <time>2017-03-11T16:28:13Z</time>
      </trkpt>
      <trkpt lat="42.73042" lon="1.97587">
        <ele>1798.76</ele>
        <time>2017-03-11T16:28:23Z</time>
      </trkpt>
      <trkpt lat="42.73039" lon="1.97575">
        <ele>1799.24</ele>
        <time>2017-03-11T16:28:33Z</time>
      </trkpt>
      <trkpt lat="42.73036" lon="1.97563">
        <ele>1797.32</ele>
        <time>2017-03-11T16:28:42Z</time>
      </trkpt>
      <trkpt lat="42.73033" lon="1.97551">
        <ele>1798.28</ele>
        <time>2017-03-11T16:28:51Z</time>
      </trkpt>
      <trkpt lat="42.7303" lon="1.97539">
        <ele>1797.8</ele>
        <time>2017-03-11T16:29:00Z</time>
      </trkpt>
      <trkpt lat="42.73028" lon="1.97525">
        <ele>1796.36</ele>
        <time>2017-03-11T16:29:09Z</time>
      </trkpt>
      <trkpt lat="42.73026" lon="1.97514">
        <ele>1794.92</ele>
        <time>2017-03-11T16:29:18Z</time>
      </trkpt>
      <trkpt lat="42.73024" lon="1.975">
        <ele>1793.96</ele>
        <time>2017-03-11T16:29:27Z</time>
      </trkpt>
      <trkpt lat="42.73023" lon="1.97487">
        <ele>1793.48</ele>
        <time>2017-03-11T16:29:37Z</time>
      </trkpt>
      <trkpt lat="42.73021" lon="1.97475">
        <ele>1793</ele>
        <time>2017-03-11T16:29:46Z</time>
      </trkpt>
      <trkpt lat="42.73019" lon="1.97462">
        <ele>1793</ele>
        <time>2017-03-11T16:29:56Z</time>
      </trkpt>
      <trkpt lat="42.73015" lon="1.97449">
        <ele>1790.59</ele>
        <time>2017-03-11T16:30:05Z</time>
      </trkpt>
      <trkpt lat="42.73013" lon="1.97438">
        <ele>1790.11</ele>
        <time>2017-03-11T16:30:15Z</time>
      </trkpt>
      <trkpt lat="42.73011" lon="1.97425">
        <ele>1790.59</ele>
        <time>2017-03-11T16:30:25Z</time>
      </trkpt>
      <trkpt lat="42.7301" lon="1.97412">
        <ele>1788.19</ele>
        <time>2017-03-11T16:30:34Z</time>
      </trkpt>
      <trkpt lat="42.73009" lon="1.974">
        <ele>1787.23</ele>
        <time>2017-03-11T16:30:43Z</time>
      </trkpt>
      <trkpt lat="42.73007" lon="1.97387">
        <ele>1787.23</ele>
        <time>2017-03-11T16:30:53Z</time>
      </trkpt>
      <trkpt lat="42.73005" lon="1.97374">
        <ele>1788.19</ele>
        <time>2017-03-11T16:31:02Z</time>
      </trkpt>
      <trkpt lat="42.73002" lon="1.97361">
        <ele>1786.27</ele>
        <time>2017-03-11T16:31:12Z</time>
      </trkpt>
      <trkpt lat="42.72999" lon="1.97351">
        <ele>1784.82</ele>
        <time>2017-03-11T16:31:21Z</time>
      </trkpt>
      <trkpt lat="42.72995" lon="1.97338">
        <ele>1784.34</ele>
        <time>2017-03-11T16:31:31Z</time>
      </trkpt>
      <trkpt lat="42.72992" lon="1.97326">
        <ele>1782.9</ele>
        <time>2017-03-11T16:31:41Z</time>
      </trkpt>
      <trkpt lat="42.72989" lon="1.97314">
        <ele>1781.46</ele>
        <time>2017-03-11T16:31:51Z</time>
      </trkpt>
      <trkpt lat="42.72987" lon="1.97301">
        <ele>1779.54</ele>
        <time>2017-03-11T16:32:01Z</time>
      </trkpt>
      <trkpt lat="42.72984" lon="1.97288">
        <ele>1779.06</ele>
        <time>2017-03-11T16:32:11Z</time>
      </trkpt>
      <trkpt lat="42.7298" lon="1.97275">
        <ele>1778.1</ele>
        <time>2017-03-11T16:32:21Z</time>
      </trkpt>
      <trkpt lat="42.72976" lon="1.97264">
        <ele>1775.21</ele>
        <time>2017-03-11T16:32:31Z</time>
      </trkpt>
      <trkpt lat="42.72971" lon="1.97252">
        <ele>1774.73</ele>
        <time>2017-03-11T16:32:41Z</time>
      </trkpt>
      <trkpt lat="42.72967" lon="1.9724">
        <ele>1772.81</ele>
        <time>2017-03-11T16:32:51Z</time>
      </trkpt>
      <trkpt lat="42.72962" lon="1.97228">
        <ele>1771.85</ele>
        <time>2017-03-11T16:33:00Z</time>
      </trkpt>
      <trkpt lat="42.72959" lon="1.97217">
        <ele>1770.41</ele>
        <time>2017-03-11T16:33:09Z</time>
      </trkpt>
      <trkpt lat="42.72956" lon="1.97205">
        <ele>1768</ele>
        <time>2017-03-11T16:33:19Z</time>
      </trkpt>
      <trkpt lat="42.72953" lon="1.97193">
        <ele>1767.52</ele>
        <time>2017-03-11T16:33:29Z</time>
      </trkpt>
      <trkpt lat="42.7295" lon="1.97181">
        <ele>1765.6</ele>
        <time>2017-03-11T16:33:39Z</time>
      </trkpt>
      <trkpt lat="42.72946" lon="1.97169">
        <ele>1764.64</ele>
        <time>2017-03-11T16:33:49Z</time>
      </trkpt>
      <trkpt lat="42.7294" lon="1.97158">
        <ele>1760.31</ele>
        <time>2017-03-11T16:33:59Z</time>
      </trkpt>
      <trkpt lat="42.72936" lon="1.97147">
        <ele>1759.83</ele>
        <time>2017-03-11T16:34:11Z</time>
      </trkpt>
      <trkpt lat="42.72932" lon="1.97136">
        <ele>1757.43</ele>
        <time>2017-03-11T16:34:21Z</time>
      </trkpt>
      <trkpt lat="42.72927" lon="1.97126">
        <ele>1755.5</ele>
        <time>2017-03-11T16:34:30Z</time>
      </trkpt>
      <trkpt lat="42.72922" lon="1.97116">
        <ele>1754.06</ele>
        <time>2017-03-11T16:34:40Z</time>
      </trkpt>
      <trkpt lat="42.72917" lon="1.97105">
        <ele>1753.58</ele>
        <time>2017-03-11T16:34:50Z</time>
      </trkpt>
      <trkpt lat="42.72913" lon="1.97093">
        <ele>1750.7</ele>
        <time>2017-03-11T16:35:00Z</time>
      </trkpt>
      <trkpt lat="42.72908" lon="1.97083">
        <ele>1751.18</ele>
        <time>2017-03-11T16:35:09Z</time>
      </trkpt>
      <trkpt lat="42.72903" lon="1.97071">
        <ele>1748.78</ele>
        <time>2017-03-11T16:35:18Z</time>
      </trkpt>
      <trkpt lat="42.72898" lon="1.97059">
        <ele>1747.33</ele>
        <time>2017-03-11T16:35:27Z</time>
      </trkpt>
      <trkpt lat="42.72894" lon="1.97048">
        <ele>1744.93</ele>
        <time>2017-03-11T16:35:36Z</time>
      </trkpt>
      <trkpt lat="42.72888" lon="1.97037">
        <ele>1743.49</ele>
        <time>2017-03-11T16:35:45Z</time>
      </trkpt>
      <trkpt lat="42.72883" lon="1.97025">
        <ele>1741.57</ele>
        <time>2017-03-11T16:35:55Z</time>
      </trkpt>
      <trkpt lat="42.72878" lon="1.97014">
        <ele>1740.12</ele>
        <time>2017-03-11T16:36:06Z</time>
      </trkpt>
      <trkpt lat="42.72874" lon="1.97004">
        <ele>1738.68</ele>
        <time>2017-03-11T16:36:15Z</time>
      </trkpt>
      <trkpt lat="42.72869" lon="1.96992">
        <ele>1737.24</ele>
        <time>2017-03-11T16:36:24Z</time>
      </trkpt>
      <trkpt lat="42.72864" lon="1.96982">
        <ele>1735.8</ele>
        <time>2017-03-11T16:36:33Z</time>
      </trkpt>
      <trkpt lat="42.72859" lon="1.96972">
        <ele>1733.88</ele>
        <time>2017-03-11T16:36:42Z</time>
      </trkpt>
      <trkpt lat="42.72856" lon="1.9696">
        <ele>1731.95</ele>
        <time>2017-03-11T16:36:52Z</time>
      </trkpt>
      <trkpt lat="42.72851" lon="1.96949">
        <ele>1730.99</ele>
        <time>2017-03-11T16:37:02Z</time>
      </trkpt>
      <trkpt lat="42.72847" lon="1.96938">
        <ele>1729.55</ele>
        <time>2017-03-11T16:37:11Z</time>
      </trkpt>
      <trkpt lat="42.72842" lon="1.96929">
        <ele>1728.59</ele>
        <time>2017-03-11T16:37:22Z</time>
      </trkpt>
      <trkpt lat="42.72838" lon="1.96917">
        <ele>1726.67</ele>
        <time>2017-03-11T16:37:30Z</time>
      </trkpt>
      <trkpt lat="42.72834" lon="1.96905">
        <ele>1726.18</ele>
        <time>2017-03-11T16:37:39Z</time>
      </trkpt>
      <trkpt lat="42.7283" lon="1.96895">
        <ele>1723.78</ele>
        <time>2017-03-11T16:37:48Z</time>
      </trkpt>
      <trkpt lat="42.72827" lon="1.96882">
        <ele>1722.34</ele>
        <time>2017-03-11T16:37:58Z</time>
      </trkpt>
      <trkpt lat="42.72823" lon="1.9687">
        <ele>1721.38</ele>
        <time>2017-03-11T16:38:07Z</time>
      </trkpt>
      <trkpt lat="42.72819" lon="1.96859">
        <ele>1719.46</ele>
        <time>2017-03-11T16:38:16Z</time>
      </trkpt>
      <trkpt lat="42.72815" lon="1.96847">
        <ele>1718.97</ele>
        <time>2017-03-11T16:38:25Z</time>
      </trkpt>
      <trkpt lat="42.72811" lon="1.96835">
        <ele>1717.53</ele>
        <time>2017-03-11T16:38:35Z</time>
      </trkpt>
      <trkpt lat="42.72809" lon="1.96823">
        <ele>1717.05</ele>
        <time>2017-03-11T16:38:44Z</time>
      </trkpt>
      <trkpt lat="42.72806" lon="1.96811">
        <ele>1715.13</ele>
        <time>2017-03-11T16:38:54Z</time>
      </trkpt>
      <trkpt lat="42.72803" lon="1.968">
        <ele>1715.13</ele>
        <time>2017-03-11T16:39:03Z</time>
      </trkpt>
      <trkpt lat="42.728" lon="1.96787">
        <ele>1713.69</ele>
        <time>2017-03-11T16:39:12Z</time>
      </trkpt>
      <trkpt lat="42.72794" lon="1.96776">
        <ele>1712.73</ele>
        <time>2017-03-11T16:39:21Z</time>
      </trkpt>
      <trkpt lat="42.72792" lon="1.96763">
        <ele>1711.28</ele>
        <time>2017-03-11T16:39:30Z</time>
      </trkpt>
      <trkpt lat="42.72789" lon="1.9675">
        <ele>1710.32</ele>
        <time>2017-03-11T16:39:39Z</time>
      </trkpt>
      <trkpt lat="42.72786" lon="1.96738">
        <ele>1708.4</ele>
        <time>2017-03-11T16:39:48Z</time>
      </trkpt>
      <trkpt lat="42.72784" lon="1.96727">
        <ele>1707.44</ele>
        <time>2017-03-11T16:39:58Z</time>
      </trkpt>
      <trkpt lat="42.72783" lon="1.96713">
        <ele>1706.48</ele>
        <time>2017-03-11T16:40:08Z</time>
      </trkpt>
      <trkpt lat="42.72782" lon="1.96701">
        <ele>1705.52</ele>
        <time>2017-03-11T16:40:17Z</time>
      </trkpt>
      <trkpt lat="42.72779" lon="1.96688">
        <ele>1704.55</ele>
        <time>2017-03-11T16:40:26Z</time>
      </trkpt>
      <trkpt lat="42.72774" lon="1.96679">
        <ele>1704.55</ele>
        <time>2017-03-11T16:40:39Z</time>
      </trkpt>
      <trkpt lat="42.72773" lon="1.96672">
        <ele>1703.59</ele>
        <time>2017-03-11T16:40:59Z</time>
      </trkpt>
      <trkpt lat="42.72766" lon="1.96662">
        <ele>1701.67</ele>
        <time>2017-03-11T16:41:08Z</time>
      </trkpt>
      <trkpt lat="42.72762" lon="1.96649">
        <ele>1700.23</ele>
        <time>2017-03-11T16:41:18Z</time>
      </trkpt>
      <trkpt lat="42.72762" lon="1.96637">
        <ele>1699.75</ele>
        <time>2017-03-11T16:41:28Z</time>
      </trkpt>
      <trkpt lat="42.72757" lon="1.96625">
        <ele>1699.27</ele>
        <time>2017-03-11T16:41:37Z</time>
      </trkpt>
      <trkpt lat="42.72752" lon="1.96615">
        <ele>1698.31</ele>
        <time>2017-03-11T16:41:45Z</time>
      </trkpt>
      <trkpt lat="42.72751" lon="1.96603">
        <ele>1698.31</ele>
        <time>2017-03-11T16:41:54Z</time>
      </trkpt>
      <trkpt lat="42.72749" lon="1.9659">
        <ele>1697.83</ele>
        <time>2017-03-11T16:42:02Z</time>
      </trkpt>
      <trkpt lat="42.72743" lon="1.96583">
        <ele>1697.34</ele>
        <time>2017-03-11T16:42:10Z</time>
      </trkpt>
      <trkpt lat="42.72738" lon="1.96571">
        <ele>1696.86</ele>
        <time>2017-03-11T16:42:19Z</time>
      </trkpt>
      <trkpt lat="42.72736" lon="1.96559">
        <ele>1696.38</ele>
        <time>2017-03-11T16:42:28Z</time>
      </trkpt>
      <trkpt lat="42.72739" lon="1.9655">
        <ele>1693.98</ele>
        <time>2017-03-11T16:43:19Z</time>
      </trkpt>
    </trkseg>
  </trk>
</gpx>